<?xml version="1.0" encoding="UTF-8" standalone="no" ?>
<gpx xmlns="http://www.topografix.com/GPX/1/1" xmlns:xsi="http://www.w3.org/2001/XMLSchema-instance" xsi:schemaLocation="http://www.topografix.com/GPX/1/1 http://www.topografix.com/GPX/1/1/gpx.xsd" version="1.1" creator="VisuGPX - https://www.visugpx.com">
  <metadata>
    <name>04/1015</name>
    <desc><![CDATA[sauvegarde sortie 04/10/15]]></desc>
  </metadata>
  <trk>
    <name><![CDATA[2015-10-04T07:40:04Z]]></name>
    <trkseg>
      <trkpt lat="44.60613" lon="-0.93971">
        <ele>6.8664551</ele>
        <time>2015-10-04T07:40:05Z</time>
      </trkpt>
      <trkpt lat="44.60611" lon="-0.93971">
        <ele>7.8278809</ele>
        <time>2015-10-04T07:40:12Z</time>
      </trkpt>
      <trkpt lat="44.60605" lon="-0.93966">
        <ele>7.347168</ele>
        <time>2015-10-04T07:40:20Z</time>
      </trkpt>
      <trkpt lat="44.60603" lon="-0.93965">
        <ele>5.9052734</ele>
        <time>2015-10-04T07:40:23Z</time>
      </trkpt>
      <trkpt lat="44.60593" lon="-0.9396">
        <ele>5.4245605</ele>
        <time>2015-10-04T07:40:30Z</time>
      </trkpt>
      <trkpt lat="44.60581" lon="-0.9396">
        <ele>7.347168</ele>
        <time>2015-10-04T07:40:36Z</time>
      </trkpt>
      <trkpt lat="44.60565" lon="-0.93966">
        <ele>6.8664551</ele>
        <time>2015-10-04T07:40:43Z</time>
      </trkpt>
      <trkpt lat="44.60545" lon="-0.93976">
        <ele>5.4245605</ele>
        <time>2015-10-04T07:40:51Z</time>
      </trkpt>
      <trkpt lat="44.60539" lon="-0.93978">
        <ele>5.4245605</ele>
        <time>2015-10-04T07:40:53Z</time>
      </trkpt>
      <trkpt lat="44.60522" lon="-0.93966">
        <ele>5.4245605</ele>
        <time>2015-10-04T07:40:59Z</time>
      </trkpt>
      <trkpt lat="44.60512" lon="-0.93954">
        <ele>5.4245605</ele>
        <time>2015-10-04T07:41:04Z</time>
      </trkpt>
      <trkpt lat="44.60506" lon="-0.93941">
        <ele>5.4245605</ele>
        <time>2015-10-04T07:41:09Z</time>
      </trkpt>
      <trkpt lat="44.60505" lon="-0.93936">
        <ele>5.4245605</ele>
        <time>2015-10-04T07:41:12Z</time>
      </trkpt>
      <trkpt lat="44.60508" lon="-0.9394">
        <ele>5.4245605</ele>
        <time>2015-10-04T07:41:17Z</time>
      </trkpt>
      <trkpt lat="44.60513" lon="-0.93952">
        <ele>4.9438477</ele>
        <time>2015-10-04T07:41:22Z</time>
      </trkpt>
      <trkpt lat="44.60511" lon="-0.93954">
        <ele>4.4632568</ele>
        <time>2015-10-04T07:41:26Z</time>
      </trkpt>
      <trkpt lat="44.60507" lon="-0.93943">
        <ele>3.982666</ele>
        <time>2015-10-04T07:41:30Z</time>
      </trkpt>
      <trkpt lat="44.60499" lon="-0.93927">
        <ele>3.982666</ele>
        <time>2015-10-04T07:41:34Z</time>
      </trkpt>
      <trkpt lat="44.60488" lon="-0.93926">
        <ele>3.982666</ele>
        <time>2015-10-04T07:41:37Z</time>
      </trkpt>
      <trkpt lat="44.60473" lon="-0.93933">
        <ele>3.5019531</ele>
        <time>2015-10-04T07:41:41Z</time>
      </trkpt>
      <trkpt lat="44.6045" lon="-0.93941">
        <ele>3.5019531</ele>
        <time>2015-10-04T07:41:48Z</time>
      </trkpt>
      <trkpt lat="44.60433" lon="-0.9395">
        <ele>2.0600586</ele>
        <time>2015-10-04T07:41:54Z</time>
      </trkpt>
      <trkpt lat="44.6043" lon="-0.93952">
        <ele>2.0600586</ele>
        <time>2015-10-04T07:41:55Z</time>
      </trkpt>
      <trkpt lat="44.60413" lon="-0.93948">
        <ele>0.1374512</ele>
        <time>2015-10-04T07:42:00Z</time>
      </trkpt>
      <trkpt lat="44.60398" lon="-0.93942">
        <ele>-0.3433838</ele>
        <time>2015-10-04T07:42:04Z</time>
      </trkpt>
      <trkpt lat="44.60378" lon="-0.9393">
        <ele>-0.3433838</ele>
        <time>2015-10-04T07:42:09Z</time>
      </trkpt>
      <trkpt lat="44.6036" lon="-0.93913">
        <ele>-0.3433838</ele>
        <time>2015-10-04T07:42:14Z</time>
      </trkpt>
      <trkpt lat="44.60332" lon="-0.93864">
        <ele>-2.2659912</ele>
        <time>2015-10-04T07:42:24Z</time>
      </trkpt>
      <trkpt lat="44.60311" lon="-0.93825">
        <ele>2.0600586</ele>
        <time>2015-10-04T07:42:32Z</time>
      </trkpt>
      <trkpt lat="44.60308" lon="-0.9382">
        <ele>2.5406494</ele>
        <time>2015-10-04T07:42:33Z</time>
      </trkpt>
      <trkpt lat="44.60295" lon="-0.93803">
        <ele>3.5019531</ele>
        <time>2015-10-04T07:42:38Z</time>
      </trkpt>
      <trkpt lat="44.6029" lon="-0.93795">
        <ele>3.5019531</ele>
        <time>2015-10-04T07:42:40Z</time>
      </trkpt>
      <trkpt lat="44.60272" lon="-0.93755">
        <ele>3.982666</ele>
        <time>2015-10-04T07:42:49Z</time>
      </trkpt>
      <trkpt lat="44.6026" lon="-0.93733">
        <ele>3.5019531</ele>
        <time>2015-10-04T07:42:56Z</time>
      </trkpt>
      <trkpt lat="44.60242" lon="-0.93732">
        <ele>3.5019531</ele>
        <time>2015-10-04T07:43:01Z</time>
      </trkpt>
      <trkpt lat="44.60215" lon="-0.93742">
        <ele>2.0600586</ele>
        <time>2015-10-04T07:43:07Z</time>
      </trkpt>
      <trkpt lat="44.60195" lon="-0.93754">
        <ele>3.0212402</ele>
        <time>2015-10-04T07:43:13Z</time>
      </trkpt>
      <trkpt lat="44.60174" lon="-0.93774">
        <ele>3.982666</ele>
        <time>2015-10-04T07:43:20Z</time>
      </trkpt>
      <trkpt lat="44.60159" lon="-0.93796">
        <ele>4.4632568</ele>
        <time>2015-10-04T07:43:26Z</time>
      </trkpt>
      <trkpt lat="44.60145" lon="-0.93822">
        <ele>4.9438477</ele>
        <time>2015-10-04T07:43:31Z</time>
      </trkpt>
      <trkpt lat="44.60133" lon="-0.9384">
        <ele>4.9438477</ele>
        <time>2015-10-04T07:43:35Z</time>
      </trkpt>
      <trkpt lat="44.60111" lon="-0.93877">
        <ele>4.4632568</ele>
        <time>2015-10-04T07:43:44Z</time>
      </trkpt>
      <trkpt lat="44.601" lon="-0.93896">
        <ele>3.982666</ele>
        <time>2015-10-04T07:43:50Z</time>
      </trkpt>
      <trkpt lat="44.60106" lon="-0.939">
        <ele>3.5019531</ele>
        <time>2015-10-04T07:43:55Z</time>
      </trkpt>
      <trkpt lat="44.60108" lon="-0.93898">
        <ele>3.0212402</ele>
        <time>2015-10-04T07:43:56Z</time>
      </trkpt>
      <trkpt lat="44.60121" lon="-0.93876">
        <ele>-0.3433838</ele>
        <time>2015-10-04T07:44:02Z</time>
      </trkpt>
      <trkpt lat="44.60123" lon="-0.93873">
        <ele>-0.8240967</ele>
        <time>2015-10-04T07:44:03Z</time>
      </trkpt>
      <trkpt lat="44.60125" lon="-0.93871">
        <ele>-1.3046875</ele>
        <time>2015-10-04T07:44:08Z</time>
      </trkpt>
      <trkpt lat="44.60126" lon="-0.93872">
        <ele>-2.2659912</ele>
        <time>2015-10-04T07:44:19Z</time>
      </trkpt>
      <trkpt lat="44.60137" lon="-0.9388">
        <ele>-0.3433838</ele>
        <time>2015-10-04T07:44:24Z</time>
      </trkpt>
      <trkpt lat="44.60152" lon="-0.93888">
        <ele>3.5019531</ele>
        <time>2015-10-04T07:44:29Z</time>
      </trkpt>
      <trkpt lat="44.60175" lon="-0.93905">
        <ele>4.9438477</ele>
        <time>2015-10-04T07:44:35Z</time>
      </trkpt>
      <trkpt lat="44.60186" lon="-0.93918">
        <ele>3.0212402</ele>
        <time>2015-10-04T07:44:39Z</time>
      </trkpt>
      <trkpt lat="44.60199" lon="-0.93932">
        <ele>1.0986328</ele>
        <time>2015-10-04T07:44:44Z</time>
      </trkpt>
      <trkpt lat="44.60211" lon="-0.93941">
        <ele>-0.3433838</ele>
        <time>2015-10-04T07:44:49Z</time>
      </trkpt>
      <trkpt lat="44.60229" lon="-0.93953">
        <ele>2.5406494</ele>
        <time>2015-10-04T07:44:55Z</time>
      </trkpt>
      <trkpt lat="44.60237" lon="-0.93969">
        <ele>2.5406494</ele>
        <time>2015-10-04T07:45:00Z</time>
      </trkpt>
      <trkpt lat="44.60246" lon="-0.93985">
        <ele>0.618042</ele>
        <time>2015-10-04T07:45:07Z</time>
      </trkpt>
      <trkpt lat="44.60249" lon="-0.9399">
        <ele>-0.3433838</ele>
        <time>2015-10-04T07:45:09Z</time>
      </trkpt>
      <trkpt lat="44.60258" lon="-0.94">
        <ele>2.0600586</ele>
        <time>2015-10-04T07:45:13Z</time>
      </trkpt>
      <trkpt lat="44.60264" lon="-0.94012">
        <ele>0.618042</ele>
        <time>2015-10-04T07:45:17Z</time>
      </trkpt>
      <trkpt lat="44.60273" lon="-0.94032">
        <ele>-3.2272949</ele>
        <time>2015-10-04T07:45:25Z</time>
      </trkpt>
      <trkpt lat="44.60277" lon="-0.94037">
        <ele>-3.2272949</ele>
        <time>2015-10-04T07:45:27Z</time>
      </trkpt>
      <trkpt lat="44.60283" lon="-0.94057">
        <ele>-5.6304932</ele>
        <time>2015-10-04T07:45:33Z</time>
      </trkpt>
      <trkpt lat="44.60291" lon="-0.94068">
        <ele>-6.5919189</ele>
        <time>2015-10-04T07:45:38Z</time>
      </trkpt>
      <trkpt lat="44.603" lon="-0.9408">
        <ele>-8.5146484</ele>
        <time>2015-10-04T07:45:44Z</time>
      </trkpt>
      <trkpt lat="44.60306" lon="-0.94092">
        <ele>-8.0339355</ele>
        <time>2015-10-04T07:45:49Z</time>
      </trkpt>
      <trkpt lat="44.60315" lon="-0.94111">
        <ele>-7.0725098</ele>
        <time>2015-10-04T07:45:55Z</time>
      </trkpt>
      <trkpt lat="44.60323" lon="-0.94131">
        <ele>-7.5531006</ele>
        <time>2015-10-04T07:46:01Z</time>
      </trkpt>
      <trkpt lat="44.60331" lon="-0.94142">
        <ele>-8.0339355</ele>
        <time>2015-10-04T07:46:06Z</time>
      </trkpt>
      <trkpt lat="44.60339" lon="-0.94156">
        <ele>-5.6304932</ele>
        <time>2015-10-04T07:46:11Z</time>
      </trkpt>
      <trkpt lat="44.60349" lon="-0.94172">
        <ele>-8.0339355</ele>
        <time>2015-10-04T07:46:17Z</time>
      </trkpt>
      <trkpt lat="44.60355" lon="-0.94193">
        <ele>-4.1885986</ele>
        <time>2015-10-04T07:46:23Z</time>
      </trkpt>
      <trkpt lat="44.60361" lon="-0.94214">
        <ele>-4.6693115</ele>
        <time>2015-10-04T07:46:29Z</time>
      </trkpt>
      <trkpt lat="44.60368" lon="-0.94229">
        <ele>-4.6693115</ele>
        <time>2015-10-04T07:46:34Z</time>
      </trkpt>
      <trkpt lat="44.60379" lon="-0.94249">
        <ele>-2.7467041</ele>
        <time>2015-10-04T07:46:42Z</time>
      </trkpt>
      <trkpt lat="44.60385" lon="-0.94259">
        <ele>-1.3046875</ele>
        <time>2015-10-04T07:46:47Z</time>
      </trkpt>
      <trkpt lat="44.60395" lon="-0.94265">
        <ele>0.618042</ele>
        <time>2015-10-04T07:46:52Z</time>
      </trkpt>
      <trkpt lat="44.60403" lon="-0.94271">
        <ele>2.5406494</ele>
        <time>2015-10-04T07:46:57Z</time>
      </trkpt>
      <trkpt lat="44.60405" lon="-0.94275">
        <ele>3.5019531</ele>
        <time>2015-10-04T07:46:59Z</time>
      </trkpt>
      <trkpt lat="44.60407" lon="-0.94282">
        <ele>5.4245605</ele>
        <time>2015-10-04T07:47:04Z</time>
      </trkpt>
      <trkpt lat="44.60408" lon="-0.94283">
        <ele>5.4245605</ele>
        <time>2015-10-04T07:47:08Z</time>
      </trkpt>
      <trkpt lat="44.60418" lon="-0.94298">
        <ele>0.1374512</ele>
        <time>2015-10-04T07:47:16Z</time>
      </trkpt>
      <trkpt lat="44.60422" lon="-0.94302">
        <ele>0.618042</ele>
        <time>2015-10-04T07:47:18Z</time>
      </trkpt>
      <trkpt lat="44.60431" lon="-0.94314">
        <ele>0.618042</ele>
        <time>2015-10-04T07:47:24Z</time>
      </trkpt>
      <trkpt lat="44.60436" lon="-0.9433">
        <ele>-0.8240967</ele>
        <time>2015-10-04T07:47:29Z</time>
      </trkpt>
      <trkpt lat="44.60438" lon="-0.94334">
        <ele>-0.8240967</ele>
        <time>2015-10-04T07:47:30Z</time>
      </trkpt>
      <trkpt lat="44.60444" lon="-0.94354">
        <ele>-3.7078857</ele>
        <time>2015-10-04T07:47:35Z</time>
      </trkpt>
      <trkpt lat="44.60445" lon="-0.94378">
        <ele>-3.7078857</ele>
        <time>2015-10-04T07:47:40Z</time>
      </trkpt>
      <trkpt lat="44.60447" lon="-0.94398">
        <ele>-6.1112061</ele>
        <time>2015-10-04T07:47:45Z</time>
      </trkpt>
      <trkpt lat="44.60448" lon="-0.94403">
        <ele>-7.5531006</ele>
        <time>2015-10-04T07:47:47Z</time>
      </trkpt>
      <trkpt lat="44.60447" lon="-0.94424">
        <ele>-11.8791504</ele>
        <time>2015-10-04T07:47:53Z</time>
      </trkpt>
      <trkpt lat="44.60447" lon="-0.94435">
        <ele>-11.3984375</ele>
        <time>2015-10-04T07:47:56Z</time>
      </trkpt>
      <trkpt lat="44.60442" lon="-0.94461">
        <ele>-16.2052002</ele>
        <time>2015-10-04T07:48:02Z</time>
      </trkpt>
      <trkpt lat="44.60442" lon="-0.94472">
        <ele>-17.6470947</ele>
        <time>2015-10-04T07:48:05Z</time>
      </trkpt>
      <trkpt lat="44.60441" lon="-0.94477">
        <ele>-18.6083984</ele>
        <time>2015-10-04T07:48:07Z</time>
      </trkpt>
      <trkpt lat="44.60435" lon="-0.945">
        <ele>-22.4536133</ele>
        <time>2015-10-04T07:48:13Z</time>
      </trkpt>
      <trkpt lat="44.60434" lon="-0.94515">
        <ele>-23.8956299</ele>
        <time>2015-10-04T07:48:20Z</time>
      </trkpt>
      <trkpt lat="44.60435" lon="-0.94521">
        <ele>-23.8956299</ele>
        <time>2015-10-04T07:48:22Z</time>
      </trkpt>
      <trkpt lat="44.60437" lon="-0.94535">
        <ele>-25.8183594</ele>
        <time>2015-10-04T07:48:27Z</time>
      </trkpt>
      <trkpt lat="44.60435" lon="-0.94546">
        <ele>-25.3376465</ele>
        <time>2015-10-04T07:48:32Z</time>
      </trkpt>
      <trkpt lat="44.60434" lon="-0.94557">
        <ele>-27.2602539</ele>
        <time>2015-10-04T07:48:37Z</time>
      </trkpt>
      <trkpt lat="44.60434" lon="-0.94562">
        <ele>-27.7409668</ele>
        <time>2015-10-04T07:48:39Z</time>
      </trkpt>
      <trkpt lat="44.60427" lon="-0.94605">
        <ele>-17.1663818</ele>
        <time>2015-10-04T07:49:03Z</time>
      </trkpt>
      <trkpt lat="44.60431" lon="-0.94616">
        <ele>-15.2436523</ele>
        <time>2015-10-04T07:49:07Z</time>
      </trkpt>
      <trkpt lat="44.60431" lon="-0.94637">
        <ele>-8.5146484</ele>
        <time>2015-10-04T07:49:13Z</time>
      </trkpt>
      <trkpt lat="44.60428" lon="-0.94645">
        <ele>-8.5146484</ele>
        <time>2015-10-04T07:49:15Z</time>
      </trkpt>
      <trkpt lat="44.60426" lon="-0.9467">
        <ele>-8.5146484</ele>
        <time>2015-10-04T07:49:20Z</time>
      </trkpt>
      <trkpt lat="44.60428" lon="-0.94692">
        <ele>-9.956543</ele>
        <time>2015-10-04T07:49:25Z</time>
      </trkpt>
      <trkpt lat="44.60427" lon="-0.94704">
        <ele>-12.3598633</ele>
        <time>2015-10-04T07:49:29Z</time>
      </trkpt>
      <trkpt lat="44.6043" lon="-0.94722">
        <ele>-15.2436523</ele>
        <time>2015-10-04T07:49:36Z</time>
      </trkpt>
      <trkpt lat="44.60432" lon="-0.94726">
        <ele>-15.2436523</ele>
        <time>2015-10-04T07:49:38Z</time>
      </trkpt>
      <trkpt lat="44.60431" lon="-0.94739">
        <ele>-15.2436523</ele>
        <time>2015-10-04T07:49:42Z</time>
      </trkpt>
      <trkpt lat="44.60437" lon="-0.9476">
        <ele>-12.8404541</ele>
        <time>2015-10-04T07:49:48Z</time>
      </trkpt>
      <trkpt lat="44.60441" lon="-0.94774">
        <ele>-10.9178467</ele>
        <time>2015-10-04T07:49:53Z</time>
      </trkpt>
      <trkpt lat="44.60445" lon="-0.94782">
        <ele>-1.7852783</ele>
        <time>2015-10-04T07:49:58Z</time>
      </trkpt>
      <trkpt lat="44.60446" lon="-0.94784">
        <ele>-0.3433838</ele>
        <time>2015-10-04T07:49:59Z</time>
      </trkpt>
      <trkpt lat="44.60447" lon="-0.94794">
        <ele>0.1374512</ele>
        <time>2015-10-04T07:50:07Z</time>
      </trkpt>
      <trkpt lat="44.60448" lon="-0.94798">
        <ele>3.982666</ele>
        <time>2015-10-04T07:50:10Z</time>
      </trkpt>
      <trkpt lat="44.60449" lon="-0.94808">
        <ele>8.7891846</ele>
        <time>2015-10-04T07:50:18Z</time>
      </trkpt>
      <trkpt lat="44.60452" lon="-0.94815">
        <ele>13.5958252</ele>
        <time>2015-10-04T07:50:26Z</time>
      </trkpt>
      <trkpt lat="44.60452" lon="-0.94816">
        <ele>14.5570068</ele>
        <time>2015-10-04T07:50:28Z</time>
      </trkpt>
      <trkpt lat="44.60454" lon="-0.94822">
        <ele>14.076416</ele>
        <time>2015-10-04T07:50:32Z</time>
      </trkpt>
      <trkpt lat="44.60457" lon="-0.9484">
        <ele>12.6343994</ele>
        <time>2015-10-04T07:50:38Z</time>
      </trkpt>
      <trkpt lat="44.60467" lon="-0.94852">
        <ele>10.2312012</ele>
        <time>2015-10-04T07:50:44Z</time>
      </trkpt>
      <trkpt lat="44.60473" lon="-0.94864">
        <ele>10.2312012</ele>
        <time>2015-10-04T07:50:50Z</time>
      </trkpt>
      <trkpt lat="44.60481" lon="-0.94876">
        <ele>10.2312012</ele>
        <time>2015-10-04T07:50:56Z</time>
      </trkpt>
      <trkpt lat="44.60481" lon="-0.94879">
        <ele>9.2698975</ele>
        <time>2015-10-04T07:51:03Z</time>
      </trkpt>
      <trkpt lat="44.6048" lon="-0.9488">
        <ele>8.3085938</ele>
        <time>2015-10-04T07:51:10Z</time>
      </trkpt>
      <trkpt lat="44.6049" lon="-0.9489">
        <ele>6.8664551</ele>
        <time>2015-10-04T07:51:16Z</time>
      </trkpt>
      <trkpt lat="44.60503" lon="-0.94903">
        <ele>5.9052734</ele>
        <time>2015-10-04T07:51:21Z</time>
      </trkpt>
      <trkpt lat="44.6052" lon="-0.94919">
        <ele>4.9438477</ele>
        <time>2015-10-04T07:51:27Z</time>
      </trkpt>
      <trkpt lat="44.60532" lon="-0.94917">
        <ele>4.9438477</ele>
        <time>2015-10-04T07:51:30Z</time>
      </trkpt>
      <trkpt lat="44.60539" lon="-0.94913">
        <ele>4.9438477</ele>
        <time>2015-10-04T07:51:32Z</time>
      </trkpt>
      <trkpt lat="44.60552" lon="-0.94913">
        <ele>4.4632568</ele>
        <time>2015-10-04T07:51:37Z</time>
      </trkpt>
      <trkpt lat="44.60568" lon="-0.94921">
        <ele>2.5406494</ele>
        <time>2015-10-04T07:51:43Z</time>
      </trkpt>
      <trkpt lat="44.60573" lon="-0.94924">
        <ele>2.0600586</ele>
        <time>2015-10-04T07:51:47Z</time>
      </trkpt>
      <trkpt lat="44.60588" lon="-0.94927">
        <ele>1.5793457</ele>
        <time>2015-10-04T07:51:54Z</time>
      </trkpt>
      <trkpt lat="44.60598" lon="-0.94926">
        <ele>2.5406494</ele>
        <time>2015-10-04T07:51:59Z</time>
      </trkpt>
      <trkpt lat="44.6061" lon="-0.9493">
        <ele>2.5406494</ele>
        <time>2015-10-04T07:52:05Z</time>
      </trkpt>
      <trkpt lat="44.6062" lon="-0.94936">
        <ele>0.618042</ele>
        <time>2015-10-04T07:52:10Z</time>
      </trkpt>
      <trkpt lat="44.60625" lon="-0.94938">
        <ele>-1.3046875</ele>
        <time>2015-10-04T07:52:16Z</time>
      </trkpt>
      <trkpt lat="44.60626" lon="-0.9494">
        <ele>-2.2659912</ele>
        <time>2015-10-04T07:52:23Z</time>
      </trkpt>
      <trkpt lat="44.60635" lon="-0.94941">
        <ele>0.1374512</ele>
        <time>2015-10-04T07:52:28Z</time>
      </trkpt>
      <trkpt lat="44.60646" lon="-0.94946">
        <ele>1.5793457</ele>
        <time>2015-10-04T07:52:34Z</time>
      </trkpt>
      <trkpt lat="44.60649" lon="-0.94947">
        <ele>0.1374512</ele>
        <time>2015-10-04T07:52:37Z</time>
      </trkpt>
      <trkpt lat="44.60657" lon="-0.94951">
        <ele>-1.3046875</ele>
        <time>2015-10-04T07:52:44Z</time>
      </trkpt>
      <trkpt lat="44.60662" lon="-0.94955">
        <ele>-2.2659912</ele>
        <time>2015-10-04T07:52:53Z</time>
      </trkpt>
      <trkpt lat="44.60664" lon="-0.94959">
        <ele>-3.7078857</ele>
        <time>2015-10-04T07:53:00Z</time>
      </trkpt>
      <trkpt lat="44.60673" lon="-0.94965">
        <ele>-5.1499023</ele>
        <time>2015-10-04T07:53:06Z</time>
      </trkpt>
      <trkpt lat="44.60678" lon="-0.94969">
        <ele>-5.6304932</ele>
        <time>2015-10-04T07:53:11Z</time>
      </trkpt>
      <trkpt lat="44.6068" lon="-0.94975">
        <ele>-5.1499023</ele>
        <time>2015-10-04T07:53:18Z</time>
      </trkpt>
      <trkpt lat="44.6068" lon="-0.94985">
        <ele>-2.2659912</ele>
        <time>2015-10-04T07:53:24Z</time>
      </trkpt>
      <trkpt lat="44.60679" lon="-0.94986">
        <ele>-1.3046875</ele>
        <time>2015-10-04T07:53:26Z</time>
      </trkpt>
      <trkpt lat="44.60681" lon="-0.94996">
        <ele>-1.3046875</ele>
        <time>2015-10-04T07:53:32Z</time>
      </trkpt>
      <trkpt lat="44.60684" lon="-0.94996">
        <ele>-1.3046875</ele>
        <time>2015-10-04T07:53:34Z</time>
      </trkpt>
      <trkpt lat="44.60687" lon="-0.94997">
        <ele>-1.3046875</ele>
        <time>2015-10-04T07:53:39Z</time>
      </trkpt>
      <trkpt lat="44.60693" lon="-0.95">
        <ele>-2.2659912</ele>
        <time>2015-10-04T07:53:43Z</time>
      </trkpt>
      <trkpt lat="44.60705" lon="-0.9501">
        <ele>-3.7078857</ele>
        <time>2015-10-04T07:53:51Z</time>
      </trkpt>
      <trkpt lat="44.6071" lon="-0.95011">
        <ele>-3.7078857</ele>
        <time>2015-10-04T07:53:54Z</time>
      </trkpt>
      <trkpt lat="44.60715" lon="-0.95017">
        <ele>-3.2272949</ele>
        <time>2015-10-04T07:53:58Z</time>
      </trkpt>
      <trkpt lat="44.60726" lon="-0.9502">
        <ele>-3.7078857</ele>
        <time>2015-10-04T07:54:04Z</time>
      </trkpt>
      <trkpt lat="44.60734" lon="-0.95021">
        <ele>-2.7467041</ele>
        <time>2015-10-04T07:54:09Z</time>
      </trkpt>
      <trkpt lat="44.60743" lon="-0.95026">
        <ele>-3.2272949</ele>
        <time>2015-10-04T07:54:16Z</time>
      </trkpt>
      <trkpt lat="44.60753" lon="-0.95031">
        <ele>-6.5919189</ele>
        <time>2015-10-04T07:54:21Z</time>
      </trkpt>
      <trkpt lat="44.6077" lon="-0.9504">
        <ele>-4.1885986</ele>
        <time>2015-10-04T07:54:27Z</time>
      </trkpt>
      <trkpt lat="44.60778" lon="-0.95045">
        <ele>-3.7078857</ele>
        <time>2015-10-04T07:54:31Z</time>
      </trkpt>
      <trkpt lat="44.60782" lon="-0.95053">
        <ele>-3.7078857</ele>
        <time>2015-10-04T07:54:35Z</time>
      </trkpt>
      <trkpt lat="44.60786" lon="-0.95063">
        <ele>0.618042</ele>
        <time>2015-10-04T07:54:42Z</time>
      </trkpt>
      <trkpt lat="44.6079" lon="-0.95068">
        <ele>1.5793457</ele>
        <time>2015-10-04T07:54:45Z</time>
      </trkpt>
      <trkpt lat="44.60791" lon="-0.95077">
        <ele>-1.7852783</ele>
        <time>2015-10-04T07:54:53Z</time>
      </trkpt>
      <trkpt lat="44.60793" lon="-0.95082">
        <ele>-2.7467041</ele>
        <time>2015-10-04T07:55:05Z</time>
      </trkpt>
      <trkpt lat="44.608" lon="-0.95089">
        <ele>-5.6304932</ele>
        <time>2015-10-04T07:55:11Z</time>
      </trkpt>
      <trkpt lat="44.60807" lon="-0.95099">
        <ele>-4.1885986</ele>
        <time>2015-10-04T07:55:17Z</time>
      </trkpt>
      <trkpt lat="44.60811" lon="-0.95105">
        <ele>-3.2272949</ele>
        <time>2015-10-04T07:55:20Z</time>
      </trkpt>
      <trkpt lat="44.60822" lon="-0.9511">
        <ele>1.5793457</ele>
        <time>2015-10-04T07:55:25Z</time>
      </trkpt>
      <trkpt lat="44.60826" lon="-0.95113">
        <ele>1.0986328</ele>
        <time>2015-10-04T07:55:27Z</time>
      </trkpt>
      <trkpt lat="44.60831" lon="-0.95119">
        <ele>2.0600586</ele>
        <time>2015-10-04T07:55:31Z</time>
      </trkpt>
      <trkpt lat="44.60849" lon="-0.95129">
        <ele>-0.3433838</ele>
        <time>2015-10-04T07:55:38Z</time>
      </trkpt>
      <trkpt lat="44.60859" lon="-0.95137">
        <ele>-0.8240967</ele>
        <time>2015-10-04T07:55:43Z</time>
      </trkpt>
      <trkpt lat="44.60863" lon="-0.95141">
        <ele>-4.1885986</ele>
        <time>2015-10-04T07:55:46Z</time>
      </trkpt>
      <trkpt lat="44.60871" lon="-0.95151">
        <ele>-10.4372559</ele>
        <time>2015-10-04T07:55:53Z</time>
      </trkpt>
      <trkpt lat="44.60875" lon="-0.95158">
        <ele>-13.3210449</ele>
        <time>2015-10-04T07:55:56Z</time>
      </trkpt>
      <trkpt lat="44.60879" lon="-0.95164">
        <ele>-14.2824707</ele>
        <time>2015-10-04T07:55:59Z</time>
      </trkpt>
      <trkpt lat="44.6089" lon="-0.95174">
        <ele>-10.9178467</ele>
        <time>2015-10-04T07:56:05Z</time>
      </trkpt>
      <trkpt lat="44.60904" lon="-0.9519">
        <ele>-8.9952393</ele>
        <time>2015-10-04T07:56:13Z</time>
      </trkpt>
      <trkpt lat="44.60911" lon="-0.95201">
        <ele>-9.4758301</ele>
        <time>2015-10-04T07:56:19Z</time>
      </trkpt>
      <trkpt lat="44.60916" lon="-0.95208">
        <ele>-8.0339355</ele>
        <time>2015-10-04T07:56:23Z</time>
      </trkpt>
      <trkpt lat="44.60927" lon="-0.9522">
        <ele>-8.5146484</ele>
        <time>2015-10-04T07:56:30Z</time>
      </trkpt>
      <trkpt lat="44.6093" lon="-0.95222">
        <ele>-8.5146484</ele>
        <time>2015-10-04T07:56:32Z</time>
      </trkpt>
      <trkpt lat="44.60938" lon="-0.95231">
        <ele>-6.5919189</ele>
        <time>2015-10-04T07:56:37Z</time>
      </trkpt>
      <trkpt lat="44.60945" lon="-0.95241">
        <ele>-5.1499023</ele>
        <time>2015-10-04T07:56:42Z</time>
      </trkpt>
      <trkpt lat="44.60953" lon="-0.9525">
        <ele>-6.5919189</ele>
        <time>2015-10-04T07:56:47Z</time>
      </trkpt>
      <trkpt lat="44.60955" lon="-0.95252">
        <ele>-7.0725098</ele>
        <time>2015-10-04T07:56:48Z</time>
      </trkpt>
      <trkpt lat="44.60963" lon="-0.95268">
        <ele>-7.5531006</ele>
        <time>2015-10-04T07:56:55Z</time>
      </trkpt>
      <trkpt lat="44.60971" lon="-0.9528">
        <ele>-8.9952393</ele>
        <time>2015-10-04T07:57:02Z</time>
      </trkpt>
      <trkpt lat="44.60975" lon="-0.95288">
        <ele>-7.0725098</ele>
        <time>2015-10-04T07:57:07Z</time>
      </trkpt>
      <trkpt lat="44.60985" lon="-0.95297">
        <ele>-5.1499023</ele>
        <time>2015-10-04T07:57:13Z</time>
      </trkpt>
      <trkpt lat="44.60986" lon="-0.95299">
        <ele>-4.6693115</ele>
        <time>2015-10-04T07:57:14Z</time>
      </trkpt>
      <trkpt lat="44.60993" lon="-0.95302">
        <ele>-0.8240967</ele>
        <time>2015-10-04T07:57:19Z</time>
      </trkpt>
      <trkpt lat="44.60997" lon="-0.95303">
        <ele>3.0212402</ele>
        <time>2015-10-04T07:57:29Z</time>
      </trkpt>
      <trkpt lat="44.61003" lon="-0.9531">
        <ele>0.1374512</ele>
        <time>2015-10-04T07:57:34Z</time>
      </trkpt>
      <trkpt lat="44.61015" lon="-0.95324">
        <ele>-2.2659912</ele>
        <time>2015-10-04T07:57:40Z</time>
      </trkpt>
      <trkpt lat="44.61026" lon="-0.95335">
        <ele>-1.3046875</ele>
        <time>2015-10-04T07:57:46Z</time>
      </trkpt>
      <trkpt lat="44.61034" lon="-0.95345">
        <ele>-2.2659912</ele>
        <time>2015-10-04T07:57:51Z</time>
      </trkpt>
      <trkpt lat="44.61042" lon="-0.95356">
        <ele>-3.7078857</ele>
        <time>2015-10-04T07:57:56Z</time>
      </trkpt>
      <trkpt lat="44.61051" lon="-0.9537">
        <ele>-3.7078857</ele>
        <time>2015-10-04T07:58:02Z</time>
      </trkpt>
      <trkpt lat="44.6106" lon="-0.95384">
        <ele>-5.1499023</ele>
        <time>2015-10-04T07:58:08Z</time>
      </trkpt>
      <trkpt lat="44.61062" lon="-0.9539">
        <ele>-6.1112061</ele>
        <time>2015-10-04T07:58:10Z</time>
      </trkpt>
      <trkpt lat="44.61073" lon="-0.95403">
        <ele>-7.5531006</ele>
        <time>2015-10-04T07:58:16Z</time>
      </trkpt>
      <trkpt lat="44.61076" lon="-0.9541">
        <ele>-8.0339355</ele>
        <time>2015-10-04T07:58:19Z</time>
      </trkpt>
      <trkpt lat="44.61084" lon="-0.95434">
        <ele>-9.4758301</ele>
        <time>2015-10-04T07:58:27Z</time>
      </trkpt>
      <trkpt lat="44.61088" lon="-0.95446">
        <ele>-9.956543</ele>
        <time>2015-10-04T07:58:31Z</time>
      </trkpt>
      <trkpt lat="44.61095" lon="-0.95462">
        <ele>-10.9178467</ele>
        <time>2015-10-04T07:58:37Z</time>
      </trkpt>
      <trkpt lat="44.61097" lon="-0.95467">
        <ele>-10.9178467</ele>
        <time>2015-10-04T07:58:39Z</time>
      </trkpt>
      <trkpt lat="44.61102" lon="-0.95476">
        <ele>-12.8404541</ele>
        <time>2015-10-04T07:58:43Z</time>
      </trkpt>
      <trkpt lat="44.61109" lon="-0.95495">
        <ele>-14.2824707</ele>
        <time>2015-10-04T07:58:50Z</time>
      </trkpt>
      <trkpt lat="44.61117" lon="-0.9551">
        <ele>-15.7243652</ele>
        <time>2015-10-04T07:58:56Z</time>
      </trkpt>
      <trkpt lat="44.61124" lon="-0.95527">
        <ele>-14.2824707</ele>
        <time>2015-10-04T07:59:02Z</time>
      </trkpt>
      <trkpt lat="44.61126" lon="-0.9553">
        <ele>-14.2824707</ele>
        <time>2015-10-04T07:59:03Z</time>
      </trkpt>
      <trkpt lat="44.61131" lon="-0.95545">
        <ele>-9.4758301</ele>
        <time>2015-10-04T07:59:09Z</time>
      </trkpt>
      <trkpt lat="44.61131" lon="-0.9555">
        <ele>-7.0725098</ele>
        <time>2015-10-04T07:59:11Z</time>
      </trkpt>
      <trkpt lat="44.61137" lon="-0.95563">
        <ele>-8.0339355</ele>
        <time>2015-10-04T07:59:15Z</time>
      </trkpt>
      <trkpt lat="44.61145" lon="-0.95582">
        <ele>-7.5531006</ele>
        <time>2015-10-04T07:59:22Z</time>
      </trkpt>
      <trkpt lat="44.61153" lon="-0.95596">
        <ele>-6.1112061</ele>
        <time>2015-10-04T07:59:28Z</time>
      </trkpt>
      <trkpt lat="44.61157" lon="-0.95612">
        <ele>-6.1112061</ele>
        <time>2015-10-04T07:59:33Z</time>
      </trkpt>
      <trkpt lat="44.61166" lon="-0.95627">
        <ele>-8.0339355</ele>
        <time>2015-10-04T07:59:39Z</time>
      </trkpt>
      <trkpt lat="44.61169" lon="-0.95632">
        <ele>-7.0725098</ele>
        <time>2015-10-04T07:59:41Z</time>
      </trkpt>
      <trkpt lat="44.61176" lon="-0.9565">
        <ele>-7.0725098</ele>
        <time>2015-10-04T07:59:47Z</time>
      </trkpt>
      <trkpt lat="44.61177" lon="-0.95652">
        <ele>-7.5531006</ele>
        <time>2015-10-04T07:59:48Z</time>
      </trkpt>
      <trkpt lat="44.6118" lon="-0.95671">
        <ele>-7.0725098</ele>
        <time>2015-10-04T07:59:54Z</time>
      </trkpt>
      <trkpt lat="44.61181" lon="-0.95673">
        <ele>-7.0725098</ele>
        <time>2015-10-04T07:59:55Z</time>
      </trkpt>
      <trkpt lat="44.61186" lon="-0.95685">
        <ele>-6.5919189</ele>
        <time>2015-10-04T08:00:01Z</time>
      </trkpt>
      <trkpt lat="44.61192" lon="-0.95703">
        <ele>-4.1885986</ele>
        <time>2015-10-04T08:00:08Z</time>
      </trkpt>
      <trkpt lat="44.61195" lon="-0.95718">
        <ele>-4.1885986</ele>
        <time>2015-10-04T08:00:14Z</time>
      </trkpt>
      <trkpt lat="44.61192" lon="-0.95726">
        <ele>-2.7467041</ele>
        <time>2015-10-04T08:00:22Z</time>
      </trkpt>
      <trkpt lat="44.61195" lon="-0.95737">
        <ele>-2.7467041</ele>
        <time>2015-10-04T08:00:28Z</time>
      </trkpt>
      <trkpt lat="44.61194" lon="-0.9574">
        <ele>-2.7467041</ele>
        <time>2015-10-04T08:00:29Z</time>
      </trkpt>
      <trkpt lat="44.61193" lon="-0.95745">
        <ele>-2.7467041</ele>
        <time>2015-10-04T08:00:31Z</time>
      </trkpt>
      <trkpt lat="44.61196" lon="-0.95758">
        <ele>-2.2659912</ele>
        <time>2015-10-04T08:00:36Z</time>
      </trkpt>
      <trkpt lat="44.61202" lon="-0.95766">
        <ele>-2.2659912</ele>
        <time>2015-10-04T08:00:40Z</time>
      </trkpt>
      <trkpt lat="44.61207" lon="-0.95781">
        <ele>-3.7078857</ele>
        <time>2015-10-04T08:00:46Z</time>
      </trkpt>
      <trkpt lat="44.61212" lon="-0.95794">
        <ele>-5.1499023</ele>
        <time>2015-10-04T08:00:51Z</time>
      </trkpt>
      <trkpt lat="44.61215" lon="-0.95799">
        <ele>-5.6304932</ele>
        <time>2015-10-04T08:00:53Z</time>
      </trkpt>
      <trkpt lat="44.61219" lon="-0.95814">
        <ele>-7.5531006</ele>
        <time>2015-10-04T08:00:58Z</time>
      </trkpt>
      <trkpt lat="44.61219" lon="-0.95824">
        <ele>-9.4758301</ele>
        <time>2015-10-04T08:01:02Z</time>
      </trkpt>
      <trkpt lat="44.61222" lon="-0.95838">
        <ele>-10.9178467</ele>
        <time>2015-10-04T08:01:08Z</time>
      </trkpt>
      <trkpt lat="44.61222" lon="-0.95839">
        <ele>-11.3984375</ele>
        <time>2015-10-04T08:01:09Z</time>
      </trkpt>
      <trkpt lat="44.61224" lon="-0.95849">
        <ele>-11.8791504</ele>
        <time>2015-10-04T08:01:13Z</time>
      </trkpt>
      <trkpt lat="44.61228" lon="-0.95868">
        <ele>-12.3598633</ele>
        <time>2015-10-04T08:01:20Z</time>
      </trkpt>
      <trkpt lat="44.61229" lon="-0.95876">
        <ele>-12.3598633</ele>
        <time>2015-10-04T08:01:23Z</time>
      </trkpt>
      <trkpt lat="44.61229" lon="-0.95886">
        <ele>-12.3598633</ele>
        <time>2015-10-04T08:01:28Z</time>
      </trkpt>
      <trkpt lat="44.61231" lon="-0.95896">
        <ele>-11.8791504</ele>
        <time>2015-10-04T08:01:32Z</time>
      </trkpt>
      <trkpt lat="44.61234" lon="-0.95909">
        <ele>-15.2436523</ele>
        <time>2015-10-04T08:01:37Z</time>
      </trkpt>
      <trkpt lat="44.61231" lon="-0.95923">
        <ele>-19.0889893</ele>
        <time>2015-10-04T08:01:43Z</time>
      </trkpt>
      <trkpt lat="44.61232" lon="-0.95928">
        <ele>-20.5310059</ele>
        <time>2015-10-04T08:01:45Z</time>
      </trkpt>
      <trkpt lat="44.61233" lon="-0.95934">
        <ele>-18.6083984</ele>
        <time>2015-10-04T08:01:47Z</time>
      </trkpt>
      <trkpt lat="44.61237" lon="-0.95954">
        <ele>-16.685791</ele>
        <time>2015-10-04T08:01:53Z</time>
      </trkpt>
      <trkpt lat="44.61238" lon="-0.95957">
        <ele>-17.1663818</ele>
        <time>2015-10-04T08:01:54Z</time>
      </trkpt>
      <trkpt lat="44.6124" lon="-0.95972">
        <ele>-15.7243652</ele>
        <time>2015-10-04T08:02:00Z</time>
      </trkpt>
      <trkpt lat="44.61241" lon="-0.95977">
        <ele>-13.8017578</ele>
        <time>2015-10-04T08:02:02Z</time>
      </trkpt>
      <trkpt lat="44.61241" lon="-0.95983">
        <ele>-9.956543</ele>
        <time>2015-10-04T08:02:04Z</time>
      </trkpt>
      <trkpt lat="44.6124" lon="-0.95988">
        <ele>-6.5919189</ele>
        <time>2015-10-04T08:02:07Z</time>
      </trkpt>
      <trkpt lat="44.61236" lon="-0.95994">
        <ele>-3.7078857</ele>
        <time>2015-10-04T08:02:16Z</time>
      </trkpt>
      <trkpt lat="44.61237" lon="-0.96009">
        <ele>9.2698975</ele>
        <time>2015-10-04T08:04:21Z</time>
      </trkpt>
      <trkpt lat="44.61236" lon="-0.96014">
        <ele>8.3085938</ele>
        <time>2015-10-04T08:04:25Z</time>
      </trkpt>
      <trkpt lat="44.61238" lon="-0.96028">
        <ele>6.3858643</ele>
        <time>2015-10-04T08:04:32Z</time>
      </trkpt>
      <trkpt lat="44.61238" lon="-0.96041">
        <ele>5.4245605</ele>
        <time>2015-10-04T08:04:37Z</time>
      </trkpt>
      <trkpt lat="44.61236" lon="-0.96049">
        <ele>4.4632568</ele>
        <time>2015-10-04T08:04:40Z</time>
      </trkpt>
      <trkpt lat="44.61236" lon="-0.96055">
        <ele>3.5019531</ele>
        <time>2015-10-04T08:04:42Z</time>
      </trkpt>
      <trkpt lat="44.61235" lon="-0.96064">
        <ele>3.5019531</ele>
        <time>2015-10-04T08:04:47Z</time>
      </trkpt>
      <trkpt lat="44.61235" lon="-0.96071">
        <ele>4.4632568</ele>
        <time>2015-10-04T08:04:58Z</time>
      </trkpt>
      <trkpt lat="44.61236" lon="-0.96085">
        <ele>3.5019531</ele>
        <time>2015-10-04T08:05:04Z</time>
      </trkpt>
      <trkpt lat="44.61235" lon="-0.96094">
        <ele>3.5019531</ele>
        <time>2015-10-04T08:05:10Z</time>
      </trkpt>
      <trkpt lat="44.61237" lon="-0.96101">
        <ele>2.5406494</ele>
        <time>2015-10-04T08:05:17Z</time>
      </trkpt>
      <trkpt lat="44.61235" lon="-0.9611">
        <ele>0.618042</ele>
        <time>2015-10-04T08:05:22Z</time>
      </trkpt>
      <trkpt lat="44.61234" lon="-0.96113">
        <ele>0.1374512</ele>
        <time>2015-10-04T08:05:24Z</time>
      </trkpt>
      <trkpt lat="44.61234" lon="-0.96116">
        <ele>0.1374512</ele>
        <time>2015-10-04T08:05:26Z</time>
      </trkpt>
      <trkpt lat="44.61235" lon="-0.96123">
        <ele>0.1374512</ele>
        <time>2015-10-04T08:05:31Z</time>
      </trkpt>
      <trkpt lat="44.61234" lon="-0.96135">
        <ele>-1.3046875</ele>
        <time>2015-10-04T08:05:35Z</time>
      </trkpt>
      <trkpt lat="44.61236" lon="-0.96141">
        <ele>-2.2659912</ele>
        <time>2015-10-04T08:05:39Z</time>
      </trkpt>
      <trkpt lat="44.61238" lon="-0.96153">
        <ele>-5.6304932</ele>
        <time>2015-10-04T08:05:47Z</time>
      </trkpt>
      <trkpt lat="44.61239" lon="-0.96155">
        <ele>-5.6304932</ele>
        <time>2015-10-04T08:05:48Z</time>
      </trkpt>
      <trkpt lat="44.61239" lon="-0.96158">
        <ele>-4.6693115</ele>
        <time>2015-10-04T08:05:51Z</time>
      </trkpt>
      <trkpt lat="44.61237" lon="-0.96166">
        <ele>-6.1112061</ele>
        <time>2015-10-04T08:05:57Z</time>
      </trkpt>
      <trkpt lat="44.61237" lon="-0.96182">
        <ele>-4.1885986</ele>
        <time>2015-10-04T08:06:03Z</time>
      </trkpt>
      <trkpt lat="44.61238" lon="-0.96195">
        <ele>-4.1885986</ele>
        <time>2015-10-04T08:06:09Z</time>
      </trkpt>
      <trkpt lat="44.61239" lon="-0.962">
        <ele>-3.7078857</ele>
        <time>2015-10-04T08:06:11Z</time>
      </trkpt>
      <trkpt lat="44.61239" lon="-0.96211">
        <ele>-5.1499023</ele>
        <time>2015-10-04T08:06:17Z</time>
      </trkpt>
      <trkpt lat="44.61239" lon="-0.96218">
        <ele>-5.6304932</ele>
        <time>2015-10-04T08:06:21Z</time>
      </trkpt>
      <trkpt lat="44.61239" lon="-0.9622">
        <ele>-5.1499023</ele>
        <time>2015-10-04T08:06:24Z</time>
      </trkpt>
      <trkpt lat="44.61239" lon="-0.96223">
        <ele>-5.1499023</ele>
        <time>2015-10-04T08:06:26Z</time>
      </trkpt>
      <trkpt lat="44.61239" lon="-0.96226">
        <ele>-4.1885986</ele>
        <time>2015-10-04T08:06:28Z</time>
      </trkpt>
      <trkpt lat="44.6124" lon="-0.96234">
        <ele>-2.2659912</ele>
        <time>2015-10-04T08:06:38Z</time>
      </trkpt>
      <trkpt lat="44.61242" lon="-0.96238">
        <ele>-2.2659912</ele>
        <time>2015-10-04T08:06:41Z</time>
      </trkpt>
      <trkpt lat="44.61243" lon="-0.96251">
        <ele>-3.2272949</ele>
        <time>2015-10-04T08:06:47Z</time>
      </trkpt>
      <trkpt lat="44.61245" lon="-0.9627">
        <ele>-5.1499023</ele>
        <time>2015-10-04T08:06:52Z</time>
      </trkpt>
      <trkpt lat="44.61252" lon="-0.96282">
        <ele>-5.1499023</ele>
        <time>2015-10-04T08:06:57Z</time>
      </trkpt>
      <trkpt lat="44.61253" lon="-0.96285">
        <ele>-4.6693115</ele>
        <time>2015-10-04T08:06:58Z</time>
      </trkpt>
      <trkpt lat="44.61252" lon="-0.96298">
        <ele>-5.6304932</ele>
        <time>2015-10-04T08:07:01Z</time>
      </trkpt>
      <trkpt lat="44.61244" lon="-0.96312">
        <ele>-5.1499023</ele>
        <time>2015-10-04T08:07:06Z</time>
      </trkpt>
      <trkpt lat="44.61244" lon="-0.96327">
        <ele>-3.7078857</ele>
        <time>2015-10-04T08:07:12Z</time>
      </trkpt>
      <trkpt lat="44.61244" lon="-0.96336">
        <ele>-4.1885986</ele>
        <time>2015-10-04T08:07:15Z</time>
      </trkpt>
      <trkpt lat="44.61245" lon="-0.96353">
        <ele>-8.0339355</ele>
        <time>2015-10-04T08:07:21Z</time>
      </trkpt>
      <trkpt lat="44.61247" lon="-0.96374">
        <ele>-9.956543</ele>
        <time>2015-10-04T08:07:28Z</time>
      </trkpt>
      <trkpt lat="44.61246" lon="-0.96378">
        <ele>-8.9952393</ele>
        <time>2015-10-04T08:07:31Z</time>
      </trkpt>
      <trkpt lat="44.61245" lon="-0.96388">
        <ele>-7.0725098</ele>
        <time>2015-10-04T08:07:36Z</time>
      </trkpt>
      <trkpt lat="44.61245" lon="-0.96392">
        <ele>-5.6304932</ele>
        <time>2015-10-04T08:07:39Z</time>
      </trkpt>
      <trkpt lat="44.61243" lon="-0.96397">
        <ele>-2.7467041</ele>
        <time>2015-10-04T08:07:43Z</time>
      </trkpt>
      <trkpt lat="44.61241" lon="-0.96401">
        <ele>-1.7852783</ele>
        <time>2015-10-04T08:07:47Z</time>
      </trkpt>
      <trkpt lat="44.6124" lon="-0.96402">
        <ele>-0.3433838</ele>
        <time>2015-10-04T08:07:49Z</time>
      </trkpt>
      <trkpt lat="44.61245" lon="-0.96412">
        <ele>-1.7852783</ele>
        <time>2015-10-04T08:07:55Z</time>
      </trkpt>
      <trkpt lat="44.61248" lon="-0.9642">
        <ele>-2.7467041</ele>
        <time>2015-10-04T08:08:00Z</time>
      </trkpt>
      <trkpt lat="44.61251" lon="-0.96434">
        <ele>-3.7078857</ele>
        <time>2015-10-04T08:08:07Z</time>
      </trkpt>
      <trkpt lat="44.6125" lon="-0.96443">
        <ele>-4.1885986</ele>
        <time>2015-10-04T08:08:13Z</time>
      </trkpt>
      <trkpt lat="44.61253" lon="-0.96452">
        <ele>-4.1885986</ele>
        <time>2015-10-04T08:08:19Z</time>
      </trkpt>
      <trkpt lat="44.61256" lon="-0.96461">
        <ele>-3.2272949</ele>
        <time>2015-10-04T08:08:49Z</time>
      </trkpt>
      <trkpt lat="44.61263" lon="-0.96475">
        <ele>-1.7852783</ele>
        <time>2015-10-04T08:08:56Z</time>
      </trkpt>
      <trkpt lat="44.61264" lon="-0.96484">
        <ele>-2.2659912</ele>
        <time>2015-10-04T08:08:59Z</time>
      </trkpt>
      <trkpt lat="44.6127" lon="-0.96495">
        <ele>-3.7078857</ele>
        <time>2015-10-04T08:09:04Z</time>
      </trkpt>
      <trkpt lat="44.61278" lon="-0.96504">
        <ele>-4.6693115</ele>
        <time>2015-10-04T08:09:09Z</time>
      </trkpt>
      <trkpt lat="44.61282" lon="-0.96519">
        <ele>-5.6304932</ele>
        <time>2015-10-04T08:09:15Z</time>
      </trkpt>
      <trkpt lat="44.61283" lon="-0.96522">
        <ele>-4.6693115</ele>
        <time>2015-10-04T08:09:17Z</time>
      </trkpt>
      <trkpt lat="44.61288" lon="-0.96535">
        <ele>-7.5531006</ele>
        <time>2015-10-04T08:09:22Z</time>
      </trkpt>
      <trkpt lat="44.61295" lon="-0.96552">
        <ele>-7.0725098</ele>
        <time>2015-10-04T08:09:28Z</time>
      </trkpt>
      <trkpt lat="44.61299" lon="-0.9657">
        <ele>-7.0725098</ele>
        <time>2015-10-04T08:09:34Z</time>
      </trkpt>
      <trkpt lat="44.61299" lon="-0.96587">
        <ele>-7.5531006</ele>
        <time>2015-10-04T08:09:39Z</time>
      </trkpt>
      <trkpt lat="44.61304" lon="-0.96602">
        <ele>-8.0339355</ele>
        <time>2015-10-04T08:09:44Z</time>
      </trkpt>
      <trkpt lat="44.61316" lon="-0.96614">
        <ele>-5.6304932</ele>
        <time>2015-10-04T08:09:51Z</time>
      </trkpt>
      <trkpt lat="44.61324" lon="-0.96629">
        <ele>-7.0725098</ele>
        <time>2015-10-04T08:09:57Z</time>
      </trkpt>
      <trkpt lat="44.61328" lon="-0.9664">
        <ele>-7.0725098</ele>
        <time>2015-10-04T08:10:01Z</time>
      </trkpt>
      <trkpt lat="44.61332" lon="-0.96655">
        <ele>-7.0725098</ele>
        <time>2015-10-04T08:10:06Z</time>
      </trkpt>
      <trkpt lat="44.61328" lon="-0.96668">
        <ele>-8.0339355</ele>
        <time>2015-10-04T08:10:12Z</time>
      </trkpt>
      <trkpt lat="44.61329" lon="-0.96677">
        <ele>-8.9952393</ele>
        <time>2015-10-04T08:10:16Z</time>
      </trkpt>
      <trkpt lat="44.61336" lon="-0.96679">
        <ele>-6.5919189</ele>
        <time>2015-10-04T08:10:20Z</time>
      </trkpt>
      <trkpt lat="44.6134" lon="-0.96682">
        <ele>-6.1112061</ele>
        <time>2015-10-04T08:10:22Z</time>
      </trkpt>
      <trkpt lat="44.61349" lon="-0.96697">
        <ele>-7.5531006</ele>
        <time>2015-10-04T08:10:28Z</time>
      </trkpt>
      <trkpt lat="44.61359" lon="-0.96714">
        <ele>-7.5531006</ele>
        <time>2015-10-04T08:10:35Z</time>
      </trkpt>
      <trkpt lat="44.61365" lon="-0.96724">
        <ele>-7.5531006</ele>
        <time>2015-10-04T08:10:40Z</time>
      </trkpt>
      <trkpt lat="44.61375" lon="-0.96743">
        <ele>-8.5146484</ele>
        <time>2015-10-04T08:10:48Z</time>
      </trkpt>
      <trkpt lat="44.61377" lon="-0.96745">
        <ele>-8.9952393</ele>
        <time>2015-10-04T08:10:49Z</time>
      </trkpt>
      <trkpt lat="44.61387" lon="-0.96762">
        <ele>-6.5919189</ele>
        <time>2015-10-04T08:10:57Z</time>
      </trkpt>
      <trkpt lat="44.61397" lon="-0.96777">
        <ele>-6.5919189</ele>
        <time>2015-10-04T08:11:04Z</time>
      </trkpt>
      <trkpt lat="44.61409" lon="-0.96793">
        <ele>-5.1499023</ele>
        <time>2015-10-04T08:11:11Z</time>
      </trkpt>
      <trkpt lat="44.61416" lon="-0.96805">
        <ele>-5.1499023</ele>
        <time>2015-10-04T08:11:16Z</time>
      </trkpt>
      <trkpt lat="44.61426" lon="-0.96821">
        <ele>-6.1112061</ele>
        <time>2015-10-04T08:11:23Z</time>
      </trkpt>
      <trkpt lat="44.61439" lon="-0.96835">
        <ele>-5.6304932</ele>
        <time>2015-10-04T08:11:29Z</time>
      </trkpt>
      <trkpt lat="44.61442" lon="-0.9685">
        <ele>-6.5919189</ele>
        <time>2015-10-04T08:11:34Z</time>
      </trkpt>
      <trkpt lat="44.61451" lon="-0.96868">
        <ele>-6.5919189</ele>
        <time>2015-10-04T08:11:40Z</time>
      </trkpt>
      <trkpt lat="44.6146" lon="-0.96882">
        <ele>-6.1112061</ele>
        <time>2015-10-04T08:11:45Z</time>
      </trkpt>
      <trkpt lat="44.61465" lon="-0.96902">
        <ele>-6.5919189</ele>
        <time>2015-10-04T08:11:51Z</time>
      </trkpt>
      <trkpt lat="44.61471" lon="-0.96916">
        <ele>-5.6304932</ele>
        <time>2015-10-04T08:11:56Z</time>
      </trkpt>
      <trkpt lat="44.61472" lon="-0.96919">
        <ele>-5.1499023</ele>
        <time>2015-10-04T08:11:57Z</time>
      </trkpt>
      <trkpt lat="44.61485" lon="-0.96943">
        <ele>-5.6304932</ele>
        <time>2015-10-04T08:12:06Z</time>
      </trkpt>
      <trkpt lat="44.61496" lon="-0.96961">
        <ele>-7.5531006</ele>
        <time>2015-10-04T08:12:12Z</time>
      </trkpt>
      <trkpt lat="44.61497" lon="-0.96964">
        <ele>-8.0339355</ele>
        <time>2015-10-04T08:12:13Z</time>
      </trkpt>
      <trkpt lat="44.61504" lon="-0.9698">
        <ele>-10.9178467</ele>
        <time>2015-10-04T08:12:18Z</time>
      </trkpt>
      <trkpt lat="44.61512" lon="-0.96999">
        <ele>-12.3598633</ele>
        <time>2015-10-04T08:12:24Z</time>
      </trkpt>
      <trkpt lat="44.61521" lon="-0.97016">
        <ele>-12.8404541</ele>
        <time>2015-10-04T08:12:29Z</time>
      </trkpt>
      <trkpt lat="44.61529" lon="-0.97033">
        <ele>-15.7243652</ele>
        <time>2015-10-04T08:12:34Z</time>
      </trkpt>
      <trkpt lat="44.61539" lon="-0.97046">
        <ele>-16.685791</ele>
        <time>2015-10-04T08:12:39Z</time>
      </trkpt>
      <trkpt lat="44.61548" lon="-0.97064">
        <ele>-15.2436523</ele>
        <time>2015-10-04T08:12:44Z</time>
      </trkpt>
      <trkpt lat="44.61555" lon="-0.9708">
        <ele>-9.4758301</ele>
        <time>2015-10-04T08:12:50Z</time>
      </trkpt>
      <trkpt lat="44.61563" lon="-0.97098">
        <ele>-8.9952393</ele>
        <time>2015-10-04T08:12:56Z</time>
      </trkpt>
      <trkpt lat="44.61572" lon="-0.97123">
        <ele>-6.5919189</ele>
        <time>2015-10-04T08:13:02Z</time>
      </trkpt>
      <trkpt lat="44.61579" lon="-0.97142">
        <ele>-4.6693115</ele>
        <time>2015-10-04T08:13:07Z</time>
      </trkpt>
      <trkpt lat="44.61587" lon="-0.97158">
        <ele>-3.2272949</ele>
        <time>2015-10-04T08:13:12Z</time>
      </trkpt>
      <trkpt lat="44.61598" lon="-0.97173">
        <ele>-2.2659912</ele>
        <time>2015-10-04T08:13:18Z</time>
      </trkpt>
      <trkpt lat="44.61607" lon="-0.97184">
        <ele>-1.7852783</ele>
        <time>2015-10-04T08:13:23Z</time>
      </trkpt>
      <trkpt lat="44.61619" lon="-0.97198">
        <ele>1.0986328</ele>
        <time>2015-10-04T08:13:29Z</time>
      </trkpt>
      <trkpt lat="44.61631" lon="-0.97212">
        <ele>3.0212402</ele>
        <time>2015-10-04T08:13:36Z</time>
      </trkpt>
      <trkpt lat="44.61634" lon="-0.9722">
        <ele>1.5793457</ele>
        <time>2015-10-04T08:13:39Z</time>
      </trkpt>
      <trkpt lat="44.61641" lon="-0.97237">
        <ele>-0.3433838</ele>
        <time>2015-10-04T08:13:44Z</time>
      </trkpt>
      <trkpt lat="44.61647" lon="-0.97248">
        <ele>-1.3046875</ele>
        <time>2015-10-04T08:13:48Z</time>
      </trkpt>
      <trkpt lat="44.61649" lon="-0.97268">
        <ele>-0.8240967</ele>
        <time>2015-10-04T08:13:54Z</time>
      </trkpt>
      <trkpt lat="44.61654" lon="-0.97284">
        <ele>-1.3046875</ele>
        <time>2015-10-04T08:13:59Z</time>
      </trkpt>
      <trkpt lat="44.61663" lon="-0.97308">
        <ele>-1.7852783</ele>
        <time>2015-10-04T08:14:05Z</time>
      </trkpt>
      <trkpt lat="44.61665" lon="-0.97318">
        <ele>-3.2272949</ele>
        <time>2015-10-04T08:14:08Z</time>
      </trkpt>
      <trkpt lat="44.61671" lon="-0.97324">
        <ele>-2.7467041</ele>
        <time>2015-10-04T08:14:13Z</time>
      </trkpt>
      <trkpt lat="44.61677" lon="-0.97341">
        <ele>-3.7078857</ele>
        <time>2015-10-04T08:14:19Z</time>
      </trkpt>
      <trkpt lat="44.6168" lon="-0.9736">
        <ele>-5.1499023</ele>
        <time>2015-10-04T08:14:26Z</time>
      </trkpt>
      <trkpt lat="44.61682" lon="-0.97376">
        <ele>-8.5146484</ele>
        <time>2015-10-04T08:14:31Z</time>
      </trkpt>
      <trkpt lat="44.61685" lon="-0.97382">
        <ele>-8.5146484</ele>
        <time>2015-10-04T08:14:33Z</time>
      </trkpt>
      <trkpt lat="44.61692" lon="-0.97404">
        <ele>-10.4372559</ele>
        <time>2015-10-04T08:14:40Z</time>
      </trkpt>
      <trkpt lat="44.61696" lon="-0.97424">
        <ele>-8.9952393</ele>
        <time>2015-10-04T08:14:45Z</time>
      </trkpt>
      <trkpt lat="44.61703" lon="-0.97435">
        <ele>-7.0725098</ele>
        <time>2015-10-04T08:14:50Z</time>
      </trkpt>
      <trkpt lat="44.61705" lon="-0.97437">
        <ele>-7.0725098</ele>
        <time>2015-10-04T08:14:51Z</time>
      </trkpt>
      <trkpt lat="44.61708" lon="-0.97442">
        <ele>-6.5919189</ele>
        <time>2015-10-04T08:14:57Z</time>
      </trkpt>
      <trkpt lat="44.61709" lon="-0.97448">
        <ele>-4.1885986</ele>
        <time>2015-10-04T08:15:07Z</time>
      </trkpt>
      <trkpt lat="44.61717" lon="-0.97453">
        <ele>2.5406494</ele>
        <time>2015-10-04T08:16:44Z</time>
      </trkpt>
      <trkpt lat="44.61717" lon="-0.97456">
        <ele>2.0600586</ele>
        <time>2015-10-04T08:16:50Z</time>
      </trkpt>
      <trkpt lat="44.61718" lon="-0.9746">
        <ele>2.5406494</ele>
        <time>2015-10-04T08:16:56Z</time>
      </trkpt>
      <trkpt lat="44.61719" lon="-0.9746">
        <ele>1.0986328</ele>
        <time>2015-10-04T08:17:01Z</time>
      </trkpt>
      <trkpt lat="44.61721" lon="-0.97477">
        <ele>-2.2659912</ele>
        <time>2015-10-04T08:17:09Z</time>
      </trkpt>
      <trkpt lat="44.61727" lon="-0.97489">
        <ele>-2.2659912</ele>
        <time>2015-10-04T08:17:13Z</time>
      </trkpt>
      <trkpt lat="44.61738" lon="-0.97504">
        <ele>-1.7852783</ele>
        <time>2015-10-04T08:17:18Z</time>
      </trkpt>
      <trkpt lat="44.61745" lon="-0.97518">
        <ele>-0.8240967</ele>
        <time>2015-10-04T08:17:23Z</time>
      </trkpt>
      <trkpt lat="44.61746" lon="-0.97526">
        <ele>-0.3433838</ele>
        <time>2015-10-04T08:17:27Z</time>
      </trkpt>
      <trkpt lat="44.61741" lon="-0.97542">
        <ele>-1.7852783</ele>
        <time>2015-10-04T08:17:33Z</time>
      </trkpt>
      <trkpt lat="44.61745" lon="-0.97552">
        <ele>-1.3046875</ele>
        <time>2015-10-04T08:17:36Z</time>
      </trkpt>
      <trkpt lat="44.61755" lon="-0.97559">
        <ele>0.1374512</ele>
        <time>2015-10-04T08:17:41Z</time>
      </trkpt>
      <trkpt lat="44.61767" lon="-0.97571">
        <ele>3.0212402</ele>
        <time>2015-10-04T08:17:47Z</time>
      </trkpt>
      <trkpt lat="44.61778" lon="-0.97587">
        <ele>3.0212402</ele>
        <time>2015-10-04T08:17:52Z</time>
      </trkpt>
      <trkpt lat="44.61787" lon="-0.97603">
        <ele>2.0600586</ele>
        <time>2015-10-04T08:17:57Z</time>
      </trkpt>
      <trkpt lat="44.61793" lon="-0.97628">
        <ele>0.1374512</ele>
        <time>2015-10-04T08:18:03Z</time>
      </trkpt>
      <trkpt lat="44.61797" lon="-0.97658">
        <ele>-1.7852783</ele>
        <time>2015-10-04T08:18:10Z</time>
      </trkpt>
      <trkpt lat="44.61806" lon="-0.97666">
        <ele>-1.3046875</ele>
        <time>2015-10-04T08:18:14Z</time>
      </trkpt>
      <trkpt lat="44.61815" lon="-0.97673">
        <ele>0.1374512</ele>
        <time>2015-10-04T08:18:19Z</time>
      </trkpt>
      <trkpt lat="44.61821" lon="-0.97685">
        <ele>-1.3046875</ele>
        <time>2015-10-04T08:18:24Z</time>
      </trkpt>
      <trkpt lat="44.61824" lon="-0.97691">
        <ele>-0.8240967</ele>
        <time>2015-10-04T08:18:26Z</time>
      </trkpt>
      <trkpt lat="44.61846" lon="-0.97716">
        <ele>2.0600586</ele>
        <time>2015-10-04T08:18:30Z</time>
      </trkpt>
      <trkpt lat="44.61847" lon="-0.9772">
        <ele>2.5406494</ele>
        <time>2015-10-04T08:18:31Z</time>
      </trkpt>
      <trkpt lat="44.61858" lon="-0.97732">
        <ele>2.5406494</ele>
        <time>2015-10-04T08:18:36Z</time>
      </trkpt>
      <trkpt lat="44.61864" lon="-0.97746">
        <ele>3.0212402</ele>
        <time>2015-10-04T08:18:42Z</time>
      </trkpt>
      <trkpt lat="44.61866" lon="-0.97747">
        <ele>3.5019531</ele>
        <time>2015-10-04T08:18:43Z</time>
      </trkpt>
      <trkpt lat="44.6187" lon="-0.97752">
        <ele>2.5406494</ele>
        <time>2015-10-04T08:18:45Z</time>
      </trkpt>
      <trkpt lat="44.61881" lon="-0.97768">
        <ele>3.982666</ele>
        <time>2015-10-04T08:18:51Z</time>
      </trkpt>
      <trkpt lat="44.61888" lon="-0.97782">
        <ele>3.0212402</ele>
        <time>2015-10-04T08:18:56Z</time>
      </trkpt>
      <trkpt lat="44.61894" lon="-0.97785">
        <ele>3.982666</ele>
        <time>2015-10-04T08:18:59Z</time>
      </trkpt>
      <trkpt lat="44.6191" lon="-0.97792">
        <ele>3.5019531</ele>
        <time>2015-10-04T08:19:05Z</time>
      </trkpt>
      <trkpt lat="44.6192" lon="-0.97804">
        <ele>3.5019531</ele>
        <time>2015-10-04T08:19:10Z</time>
      </trkpt>
      <trkpt lat="44.61923" lon="-0.97806">
        <ele>3.982666</ele>
        <time>2015-10-04T08:19:11Z</time>
      </trkpt>
      <trkpt lat="44.61936" lon="-0.97825">
        <ele>2.0600586</ele>
        <time>2015-10-04T08:19:17Z</time>
      </trkpt>
      <trkpt lat="44.61948" lon="-0.97839">
        <ele>-0.8240967</ele>
        <time>2015-10-04T08:19:22Z</time>
      </trkpt>
      <trkpt lat="44.61961" lon="-0.97844">
        <ele>0.618042</ele>
        <time>2015-10-04T08:19:27Z</time>
      </trkpt>
      <trkpt lat="44.61975" lon="-0.97846">
        <ele>0.618042</ele>
        <time>2015-10-04T08:19:32Z</time>
      </trkpt>
      <trkpt lat="44.61989" lon="-0.9786">
        <ele>2.0600586</ele>
        <time>2015-10-04T08:19:38Z</time>
      </trkpt>
      <trkpt lat="44.62" lon="-0.97875">
        <ele>2.0600586</ele>
        <time>2015-10-04T08:19:44Z</time>
      </trkpt>
      <trkpt lat="44.62011" lon="-0.97878">
        <ele>3.0212402</ele>
        <time>2015-10-04T08:19:48Z</time>
      </trkpt>
      <trkpt lat="44.62022" lon="-0.97878">
        <ele>3.5019531</ele>
        <time>2015-10-04T08:19:52Z</time>
      </trkpt>
      <trkpt lat="44.6204" lon="-0.9788">
        <ele>5.4245605</ele>
        <time>2015-10-04T08:19:57Z</time>
      </trkpt>
      <trkpt lat="44.62055" lon="-0.97883">
        <ele>6.3858643</ele>
        <time>2015-10-04T08:20:01Z</time>
      </trkpt>
      <trkpt lat="44.62074" lon="-0.97883">
        <ele>7.8278809</ele>
        <time>2015-10-04T08:20:06Z</time>
      </trkpt>
      <trkpt lat="44.62088" lon="-0.97883">
        <ele>9.2698975</ele>
        <time>2015-10-04T08:20:10Z</time>
      </trkpt>
      <trkpt lat="44.62094" lon="-0.97882">
        <ele>7.8278809</ele>
        <time>2015-10-04T08:20:13Z</time>
      </trkpt>
      <trkpt lat="44.62107" lon="-0.97888">
        <ele>5.4245605</ele>
        <time>2015-10-04T08:20:18Z</time>
      </trkpt>
      <trkpt lat="44.62118" lon="-0.97892">
        <ele>4.9438477</ele>
        <time>2015-10-04T08:20:22Z</time>
      </trkpt>
      <trkpt lat="44.62127" lon="-0.97894">
        <ele>2.0600586</ele>
        <time>2015-10-04T08:20:26Z</time>
      </trkpt>
      <trkpt lat="44.6214" lon="-0.979">
        <ele>0.618042</ele>
        <time>2015-10-04T08:20:30Z</time>
      </trkpt>
      <trkpt lat="44.62148" lon="-0.97909">
        <ele>-0.3433838</ele>
        <time>2015-10-04T08:20:34Z</time>
      </trkpt>
      <trkpt lat="44.62162" lon="-0.97911">
        <ele>-1.3046875</ele>
        <time>2015-10-04T08:20:38Z</time>
      </trkpt>
      <trkpt lat="44.62169" lon="-0.97928">
        <ele>-2.7467041</ele>
        <time>2015-10-04T08:20:42Z</time>
      </trkpt>
      <trkpt lat="44.62178" lon="-0.97942">
        <ele>-3.2272949</ele>
        <time>2015-10-04T08:20:45Z</time>
      </trkpt>
      <trkpt lat="44.62194" lon="-0.97949">
        <ele>-1.7852783</ele>
        <time>2015-10-04T08:20:49Z</time>
      </trkpt>
      <trkpt lat="44.62204" lon="-0.97964">
        <ele>-0.3433838</ele>
        <time>2015-10-04T08:20:53Z</time>
      </trkpt>
      <trkpt lat="44.62205" lon="-0.97967">
        <ele>-0.3433838</ele>
        <time>2015-10-04T08:20:54Z</time>
      </trkpt>
      <trkpt lat="44.62213" lon="-0.97983">
        <ele>-0.3433838</ele>
        <time>2015-10-04T08:20:59Z</time>
      </trkpt>
      <trkpt lat="44.62216" lon="-0.97999">
        <ele>-1.3046875</ele>
        <time>2015-10-04T08:21:03Z</time>
      </trkpt>
      <trkpt lat="44.62223" lon="-0.98029">
        <ele>-3.7078857</ele>
        <time>2015-10-04T08:21:09Z</time>
      </trkpt>
      <trkpt lat="44.62231" lon="-0.98052">
        <ele>-1.3046875</ele>
        <time>2015-10-04T08:21:15Z</time>
      </trkpt>
      <trkpt lat="44.62241" lon="-0.98068">
        <ele>0.1374512</ele>
        <time>2015-10-04T08:21:20Z</time>
      </trkpt>
      <trkpt lat="44.62247" lon="-0.98086">
        <ele>-0.3433838</ele>
        <time>2015-10-04T08:21:24Z</time>
      </trkpt>
      <trkpt lat="44.62257" lon="-0.98108">
        <ele>0.1374512</ele>
        <time>2015-10-04T08:21:30Z</time>
      </trkpt>
      <trkpt lat="44.62264" lon="-0.98123">
        <ele>1.0986328</ele>
        <time>2015-10-04T08:21:34Z</time>
      </trkpt>
      <trkpt lat="44.6227" lon="-0.98133">
        <ele>2.5406494</ele>
        <time>2015-10-04T08:21:37Z</time>
      </trkpt>
      <trkpt lat="44.62272" lon="-0.98156">
        <ele>2.5406494</ele>
        <time>2015-10-04T08:21:42Z</time>
      </trkpt>
      <trkpt lat="44.62281" lon="-0.98182">
        <ele>2.0600586</ele>
        <time>2015-10-04T08:21:49Z</time>
      </trkpt>
      <trkpt lat="44.62285" lon="-0.98189">
        <ele>1.5793457</ele>
        <time>2015-10-04T08:21:51Z</time>
      </trkpt>
      <trkpt lat="44.62284" lon="-0.98216">
        <ele>-0.8240967</ele>
        <time>2015-10-04T08:21:57Z</time>
      </trkpt>
      <trkpt lat="44.62283" lon="-0.98224">
        <ele>-1.3046875</ele>
        <time>2015-10-04T08:21:59Z</time>
      </trkpt>
      <trkpt lat="44.62275" lon="-0.98233">
        <ele>-1.7852783</ele>
        <time>2015-10-04T08:22:04Z</time>
      </trkpt>
      <trkpt lat="44.62274" lon="-0.98245">
        <ele>-1.7852783</ele>
        <time>2015-10-04T08:22:07Z</time>
      </trkpt>
      <trkpt lat="44.62264" lon="-0.98263">
        <ele>-1.3046875</ele>
        <time>2015-10-04T08:22:11Z</time>
      </trkpt>
      <trkpt lat="44.62249" lon="-0.98273">
        <ele>-0.3433838</ele>
        <time>2015-10-04T08:22:15Z</time>
      </trkpt>
      <trkpt lat="44.62232" lon="-0.98278">
        <ele>0.618042</ele>
        <time>2015-10-04T08:22:20Z</time>
      </trkpt>
      <trkpt lat="44.62211" lon="-0.98277">
        <ele>2.5406494</ele>
        <time>2015-10-04T08:22:26Z</time>
      </trkpt>
      <trkpt lat="44.62199" lon="-0.98275">
        <ele>3.0212402</ele>
        <time>2015-10-04T08:22:31Z</time>
      </trkpt>
      <trkpt lat="44.62194" lon="-0.98274">
        <ele>3.0212402</ele>
        <time>2015-10-04T08:22:33Z</time>
      </trkpt>
      <trkpt lat="44.6218" lon="-0.98277">
        <ele>2.5406494</ele>
        <time>2015-10-04T08:22:38Z</time>
      </trkpt>
      <trkpt lat="44.62173" lon="-0.9828">
        <ele>3.0212402</ele>
        <time>2015-10-04T08:22:40Z</time>
      </trkpt>
      <trkpt lat="44.62156" lon="-0.98287">
        <ele>2.0600586</ele>
        <time>2015-10-04T08:22:45Z</time>
      </trkpt>
      <trkpt lat="44.62139" lon="-0.98307">
        <ele>0.1374512</ele>
        <time>2015-10-04T08:22:51Z</time>
      </trkpt>
      <trkpt lat="44.62128" lon="-0.9833">
        <ele>3.0212402</ele>
        <time>2015-10-04T08:22:57Z</time>
      </trkpt>
      <trkpt lat="44.62123" lon="-0.98353">
        <ele>5.4245605</ele>
        <time>2015-10-04T08:23:02Z</time>
      </trkpt>
      <trkpt lat="44.62117" lon="-0.98373">
        <ele>9.2698975</ele>
        <time>2015-10-04T08:23:07Z</time>
      </trkpt>
      <trkpt lat="44.62119" lon="-0.98391">
        <ele>7.347168</ele>
        <time>2015-10-04T08:23:11Z</time>
      </trkpt>
      <trkpt lat="44.62118" lon="-0.98408">
        <ele>3.982666</ele>
        <time>2015-10-04T08:23:15Z</time>
      </trkpt>
      <trkpt lat="44.62113" lon="-0.98422">
        <ele>2.0600586</ele>
        <time>2015-10-04T08:23:20Z</time>
      </trkpt>
      <trkpt lat="44.62106" lon="-0.98439">
        <ele>-0.3433838</ele>
        <time>2015-10-04T08:23:25Z</time>
      </trkpt>
      <trkpt lat="44.62102" lon="-0.98449">
        <ele>-2.7467041</ele>
        <time>2015-10-04T08:23:28Z</time>
      </trkpt>
      <trkpt lat="44.62099" lon="-0.98471">
        <ele>-5.1499023</ele>
        <time>2015-10-04T08:23:34Z</time>
      </trkpt>
      <trkpt lat="44.62082" lon="-0.98483">
        <ele>-4.6693115</ele>
        <time>2015-10-04T08:23:40Z</time>
      </trkpt>
      <trkpt lat="44.62081" lon="-0.98506">
        <ele>-6.1112061</ele>
        <time>2015-10-04T08:23:44Z</time>
      </trkpt>
      <trkpt lat="44.62082" lon="-0.98511">
        <ele>-6.5919189</ele>
        <time>2015-10-04T08:23:45Z</time>
      </trkpt>
      <trkpt lat="44.62078" lon="-0.98527">
        <ele>-8.0339355</ele>
        <time>2015-10-04T08:23:49Z</time>
      </trkpt>
      <trkpt lat="44.62055" lon="-0.98546">
        <ele>-7.0725098</ele>
        <time>2015-10-04T08:23:56Z</time>
      </trkpt>
      <trkpt lat="44.62044" lon="-0.98549">
        <ele>-3.7078857</ele>
        <time>2015-10-04T08:24:00Z</time>
      </trkpt>
      <trkpt lat="44.62034" lon="-0.98549">
        <ele>-1.7852783</ele>
        <time>2015-10-04T08:24:03Z</time>
      </trkpt>
      <trkpt lat="44.62024" lon="-0.98562">
        <ele>-2.2659912</ele>
        <time>2015-10-04T08:24:08Z</time>
      </trkpt>
      <trkpt lat="44.62017" lon="-0.9857">
        <ele>-1.3046875</ele>
        <time>2015-10-04T08:24:11Z</time>
      </trkpt>
      <trkpt lat="44.62007" lon="-0.98581">
        <ele>0.1374512</ele>
        <time>2015-10-04T08:24:16Z</time>
      </trkpt>
      <trkpt lat="44.61991" lon="-0.98584">
        <ele>1.0986328</ele>
        <time>2015-10-04T08:24:21Z</time>
      </trkpt>
      <trkpt lat="44.61987" lon="-0.98591">
        <ele>-1.3046875</ele>
        <time>2015-10-04T08:24:25Z</time>
      </trkpt>
      <trkpt lat="44.61984" lon="-0.98597">
        <ele>-1.3046875</ele>
        <time>2015-10-04T08:24:28Z</time>
      </trkpt>
      <trkpt lat="44.61981" lon="-0.98606">
        <ele>8.3085938</ele>
        <time>2015-10-04T08:24:47Z</time>
      </trkpt>
      <trkpt lat="44.61983" lon="-0.98617">
        <ele>5.9052734</ele>
        <time>2015-10-04T08:24:53Z</time>
      </trkpt>
      <trkpt lat="44.61981" lon="-0.98629">
        <ele>1.0986328</ele>
        <time>2015-10-04T08:24:59Z</time>
      </trkpt>
      <trkpt lat="44.61982" lon="-0.98637">
        <ele>-1.7852783</ele>
        <time>2015-10-04T08:25:02Z</time>
      </trkpt>
      <trkpt lat="44.61983" lon="-0.98657">
        <ele>-4.1885986</ele>
        <time>2015-10-04T08:25:09Z</time>
      </trkpt>
      <trkpt lat="44.61988" lon="-0.98677">
        <ele>-4.1885986</ele>
        <time>2015-10-04T08:25:15Z</time>
      </trkpt>
      <trkpt lat="44.61996" lon="-0.98694">
        <ele>-5.6304932</ele>
        <time>2015-10-04T08:25:20Z</time>
      </trkpt>
      <trkpt lat="44.62006" lon="-0.98713">
        <ele>-5.1499023</ele>
        <time>2015-10-04T08:25:25Z</time>
      </trkpt>
      <trkpt lat="44.62016" lon="-0.98729">
        <ele>-3.7078857</ele>
        <time>2015-10-04T08:25:30Z</time>
      </trkpt>
      <trkpt lat="44.62026" lon="-0.98736">
        <ele>-0.8240967</ele>
        <time>2015-10-04T08:25:34Z</time>
      </trkpt>
      <trkpt lat="44.62032" lon="-0.9874">
        <ele>-1.3046875</ele>
        <time>2015-10-04T08:25:36Z</time>
      </trkpt>
      <trkpt lat="44.62037" lon="-0.98756">
        <ele>-0.8240967</ele>
        <time>2015-10-04T08:25:42Z</time>
      </trkpt>
      <trkpt lat="44.62038" lon="-0.98762">
        <ele>-1.3046875</ele>
        <time>2015-10-04T08:25:44Z</time>
      </trkpt>
      <trkpt lat="44.62048" lon="-0.98769">
        <ele>0.1374512</ele>
        <time>2015-10-04T08:25:49Z</time>
      </trkpt>
      <trkpt lat="44.6205" lon="-0.98772">
        <ele>0.1374512</ele>
        <time>2015-10-04T08:25:50Z</time>
      </trkpt>
      <trkpt lat="44.62054" lon="-0.98779">
        <ele>-0.3433838</ele>
        <time>2015-10-04T08:25:53Z</time>
      </trkpt>
      <trkpt lat="44.62061" lon="-0.98799">
        <ele>-0.3433838</ele>
        <time>2015-10-04T08:25:59Z</time>
      </trkpt>
      <trkpt lat="44.62062" lon="-0.98802">
        <ele>0.618042</ele>
        <time>2015-10-04T08:26:00Z</time>
      </trkpt>
      <trkpt lat="44.62065" lon="-0.98808">
        <ele>0.1374512</ele>
        <time>2015-10-04T08:26:02Z</time>
      </trkpt>
      <trkpt lat="44.62072" lon="-0.98821">
        <ele>0.618042</ele>
        <time>2015-10-04T08:26:07Z</time>
      </trkpt>
      <trkpt lat="44.62071" lon="-0.98837">
        <ele>-0.8240967</ele>
        <time>2015-10-04T08:26:12Z</time>
      </trkpt>
      <trkpt lat="44.62071" lon="-0.98844">
        <ele>-2.2659912</ele>
        <time>2015-10-04T08:26:17Z</time>
      </trkpt>
      <trkpt lat="44.62072" lon="-0.98836">
        <ele>11.1925049</ele>
        <time>2015-10-04T08:28:54Z</time>
      </trkpt>
      <trkpt lat="44.62072" lon="-0.98843">
        <ele>9.2698975</ele>
        <time>2015-10-04T08:29:04Z</time>
      </trkpt>
      <trkpt lat="44.62073" lon="-0.98851">
        <ele>2.5406494</ele>
        <time>2015-10-04T08:29:12Z</time>
      </trkpt>
      <trkpt lat="44.62077" lon="-0.98862">
        <ele>2.5406494</ele>
        <time>2015-10-04T08:29:17Z</time>
      </trkpt>
      <trkpt lat="44.62086" lon="-0.98866">
        <ele>0.618042</ele>
        <time>2015-10-04T08:29:23Z</time>
      </trkpt>
      <trkpt lat="44.6209" lon="-0.98868">
        <ele>0.1374512</ele>
        <time>2015-10-04T08:29:26Z</time>
      </trkpt>
      <trkpt lat="44.62098" lon="-0.98879">
        <ele>-0.3433838</ele>
        <time>2015-10-04T08:29:31Z</time>
      </trkpt>
      <trkpt lat="44.62106" lon="-0.98898">
        <ele>-1.3046875</ele>
        <time>2015-10-04T08:29:37Z</time>
      </trkpt>
      <trkpt lat="44.62111" lon="-0.98916">
        <ele>-0.8240967</ele>
        <time>2015-10-04T08:29:42Z</time>
      </trkpt>
      <trkpt lat="44.62118" lon="-0.98936">
        <ele>-0.8240967</ele>
        <time>2015-10-04T08:29:47Z</time>
      </trkpt>
      <trkpt lat="44.62113" lon="-0.98955">
        <ele>-0.3433838</ele>
        <time>2015-10-04T08:29:51Z</time>
      </trkpt>
      <trkpt lat="44.62108" lon="-0.98963">
        <ele>-0.3433838</ele>
        <time>2015-10-04T08:29:53Z</time>
      </trkpt>
      <trkpt lat="44.62093" lon="-0.98972">
        <ele>0.1374512</ele>
        <time>2015-10-04T08:29:58Z</time>
      </trkpt>
      <trkpt lat="44.6209" lon="-0.98972">
        <ele>0.618042</ele>
        <time>2015-10-04T08:29:59Z</time>
      </trkpt>
      <trkpt lat="44.62082" lon="-0.98981">
        <ele>1.5793457</ele>
        <time>2015-10-04T08:30:03Z</time>
      </trkpt>
      <trkpt lat="44.62077" lon="-0.98992">
        <ele>-0.3433838</ele>
        <time>2015-10-04T08:30:06Z</time>
      </trkpt>
      <trkpt lat="44.62069" lon="-0.99008">
        <ele>-0.8240967</ele>
        <time>2015-10-04T08:30:10Z</time>
      </trkpt>
      <trkpt lat="44.62059" lon="-0.99028">
        <ele>1.0986328</ele>
        <time>2015-10-04T08:30:15Z</time>
      </trkpt>
      <trkpt lat="44.62048" lon="-0.99047">
        <ele>1.0986328</ele>
        <time>2015-10-04T08:30:20Z</time>
      </trkpt>
      <trkpt lat="44.62046" lon="-0.99051">
        <ele>1.0986328</ele>
        <time>2015-10-04T08:30:21Z</time>
      </trkpt>
      <trkpt lat="44.62037" lon="-0.99072">
        <ele>0.1374512</ele>
        <time>2015-10-04T08:30:26Z</time>
      </trkpt>
      <trkpt lat="44.62034" lon="-0.99074">
        <ele>-0.3433838</ele>
        <time>2015-10-04T08:30:27Z</time>
      </trkpt>
      <trkpt lat="44.62022" lon="-0.99089">
        <ele>-1.7852783</ele>
        <time>2015-10-04T08:30:32Z</time>
      </trkpt>
      <trkpt lat="44.6202" lon="-0.9911">
        <ele>-6.1112061</ele>
        <time>2015-10-04T08:30:37Z</time>
      </trkpt>
      <trkpt lat="44.62018" lon="-0.99132">
        <ele>-5.1499023</ele>
        <time>2015-10-04T08:30:41Z</time>
      </trkpt>
      <trkpt lat="44.6201" lon="-0.99152">
        <ele>-0.3433838</ele>
        <time>2015-10-04T08:30:45Z</time>
      </trkpt>
      <trkpt lat="44.62" lon="-0.99168">
        <ele>2.0600586</ele>
        <time>2015-10-04T08:30:48Z</time>
      </trkpt>
      <trkpt lat="44.61991" lon="-0.99183">
        <ele>2.0600586</ele>
        <time>2015-10-04T08:30:51Z</time>
      </trkpt>
      <trkpt lat="44.61976" lon="-0.99199">
        <ele>2.5406494</ele>
        <time>2015-10-04T08:30:56Z</time>
      </trkpt>
      <trkpt lat="44.61963" lon="-0.99213">
        <ele>3.0212402</ele>
        <time>2015-10-04T08:31:01Z</time>
      </trkpt>
      <trkpt lat="44.61935" lon="-0.99223">
        <ele>2.0600586</ele>
        <time>2015-10-04T08:31:09Z</time>
      </trkpt>
      <trkpt lat="44.61916" lon="-0.99227">
        <ele>1.0986328</ele>
        <time>2015-10-04T08:31:14Z</time>
      </trkpt>
      <trkpt lat="44.61904" lon="-0.99234">
        <ele>1.0986328</ele>
        <time>2015-10-04T08:31:17Z</time>
      </trkpt>
      <trkpt lat="44.61885" lon="-0.99243">
        <ele>1.0986328</ele>
        <time>2015-10-04T08:31:22Z</time>
      </trkpt>
      <trkpt lat="44.61878" lon="-0.99249">
        <ele>0.618042</ele>
        <time>2015-10-04T08:31:24Z</time>
      </trkpt>
      <trkpt lat="44.61859" lon="-0.99266">
        <ele>1.0986328</ele>
        <time>2015-10-04T08:31:31Z</time>
      </trkpt>
      <trkpt lat="44.61851" lon="-0.99273">
        <ele>1.0986328</ele>
        <time>2015-10-04T08:31:34Z</time>
      </trkpt>
      <trkpt lat="44.61834" lon="-0.99271">
        <ele>2.5406494</ele>
        <time>2015-10-04T08:31:41Z</time>
      </trkpt>
      <trkpt lat="44.61822" lon="-0.99271">
        <ele>3.0212402</ele>
        <time>2015-10-04T08:31:46Z</time>
      </trkpt>
      <trkpt lat="44.61805" lon="-0.99267">
        <ele>2.5406494</ele>
        <time>2015-10-04T08:31:51Z</time>
      </trkpt>
      <trkpt lat="44.61786" lon="-0.99263">
        <ele>2.5406494</ele>
        <time>2015-10-04T08:31:56Z</time>
      </trkpt>
      <trkpt lat="44.6176" lon="-0.99251">
        <ele>2.5406494</ele>
        <time>2015-10-04T08:32:03Z</time>
      </trkpt>
      <trkpt lat="44.61746" lon="-0.99242">
        <ele>2.5406494</ele>
        <time>2015-10-04T08:32:08Z</time>
      </trkpt>
      <trkpt lat="44.61729" lon="-0.99229">
        <ele>3.5019531</ele>
        <time>2015-10-04T08:32:14Z</time>
      </trkpt>
      <trkpt lat="44.6171" lon="-0.99211">
        <ele>3.5019531</ele>
        <time>2015-10-04T08:32:18Z</time>
      </trkpt>
      <trkpt lat="44.61686" lon="-0.99195">
        <ele>3.5019531</ele>
        <time>2015-10-04T08:32:22Z</time>
      </trkpt>
      <trkpt lat="44.61654" lon="-0.99176">
        <ele>3.5019531</ele>
        <time>2015-10-04T08:32:27Z</time>
      </trkpt>
      <trkpt lat="44.61642" lon="-0.99165">
        <ele>3.5019531</ele>
        <time>2015-10-04T08:32:29Z</time>
      </trkpt>
      <trkpt lat="44.61621" lon="-0.99155">
        <ele>3.982666</ele>
        <time>2015-10-04T08:32:32Z</time>
      </trkpt>
      <trkpt lat="44.61596" lon="-0.99139">
        <ele>3.0212402</ele>
        <time>2015-10-04T08:32:36Z</time>
      </trkpt>
      <trkpt lat="44.6158" lon="-0.99136">
        <ele>4.9438477</ele>
        <time>2015-10-04T08:32:40Z</time>
      </trkpt>
      <trkpt lat="44.61575" lon="-0.99149">
        <ele>5.4245605</ele>
        <time>2015-10-04T08:32:44Z</time>
      </trkpt>
      <trkpt lat="44.61574" lon="-0.99154">
        <ele>3.982666</ele>
        <time>2015-10-04T08:32:45Z</time>
      </trkpt>
      <trkpt lat="44.61566" lon="-0.99186">
        <ele>1.5793457</ele>
        <time>2015-10-04T08:32:50Z</time>
      </trkpt>
      <trkpt lat="44.61564" lon="-0.99193">
        <ele>2.0600586</ele>
        <time>2015-10-04T08:32:51Z</time>
      </trkpt>
      <trkpt lat="44.6156" lon="-0.99214">
        <ele>0.1374512</ele>
        <time>2015-10-04T08:32:55Z</time>
      </trkpt>
      <trkpt lat="44.61554" lon="-0.99239">
        <ele>-2.2659912</ele>
        <time>2015-10-04T08:33:01Z</time>
      </trkpt>
      <trkpt lat="44.61551" lon="-0.99259">
        <ele>-6.5919189</ele>
        <time>2015-10-04T08:33:05Z</time>
      </trkpt>
      <trkpt lat="44.61553" lon="-0.99278">
        <ele>-2.2659912</ele>
        <time>2015-10-04T08:33:09Z</time>
      </trkpt>
      <trkpt lat="44.61564" lon="-0.99293">
        <ele>0.618042</ele>
        <time>2015-10-04T08:33:15Z</time>
      </trkpt>
      <trkpt lat="44.61583" lon="-0.99309">
        <ele>1.5793457</ele>
        <time>2015-10-04T08:33:22Z</time>
      </trkpt>
      <trkpt lat="44.61602" lon="-0.99321">
        <ele>2.0600586</ele>
        <time>2015-10-04T08:33:28Z</time>
      </trkpt>
      <trkpt lat="44.61614" lon="-0.99326">
        <ele>3.982666</ele>
        <time>2015-10-04T08:33:33Z</time>
      </trkpt>
      <trkpt lat="44.61618" lon="-0.99326">
        <ele>6.8664551</ele>
        <time>2015-10-04T08:33:48Z</time>
      </trkpt>
      <trkpt lat="44.61627" lon="-0.99329">
        <ele>6.3858643</ele>
        <time>2015-10-04T08:33:53Z</time>
      </trkpt>
      <trkpt lat="44.61647" lon="-0.99339">
        <ele>5.4245605</ele>
        <time>2015-10-04T08:33:59Z</time>
      </trkpt>
      <trkpt lat="44.61657" lon="-0.99344">
        <ele>5.9052734</ele>
        <time>2015-10-04T08:34:03Z</time>
      </trkpt>
      <trkpt lat="44.61675" lon="-0.99354">
        <ele>5.9052734</ele>
        <time>2015-10-04T08:34:08Z</time>
      </trkpt>
      <trkpt lat="44.61698" lon="-0.99362">
        <ele>4.9438477</ele>
        <time>2015-10-04T08:34:13Z</time>
      </trkpt>
      <trkpt lat="44.6171" lon="-0.99366">
        <ele>4.9438477</ele>
        <time>2015-10-04T08:34:16Z</time>
      </trkpt>
      <trkpt lat="44.61732" lon="-0.99376">
        <ele>3.982666</ele>
        <time>2015-10-04T08:34:21Z</time>
      </trkpt>
      <trkpt lat="44.61755" lon="-0.99387">
        <ele>5.4245605</ele>
        <time>2015-10-04T08:34:26Z</time>
      </trkpt>
      <trkpt lat="44.61778" lon="-0.99382">
        <ele>2.0600586</ele>
        <time>2015-10-04T08:34:32Z</time>
      </trkpt>
      <trkpt lat="44.61798" lon="-0.99376">
        <ele>2.0600586</ele>
        <time>2015-10-04T08:34:37Z</time>
      </trkpt>
      <trkpt lat="44.6182" lon="-0.99372">
        <ele>2.5406494</ele>
        <time>2015-10-04T08:34:43Z</time>
      </trkpt>
      <trkpt lat="44.61839" lon="-0.99373">
        <ele>2.0600586</ele>
        <time>2015-10-04T08:34:48Z</time>
      </trkpt>
      <trkpt lat="44.61847" lon="-0.99372">
        <ele>3.5019531</ele>
        <time>2015-10-04T08:34:52Z</time>
      </trkpt>
      <trkpt lat="44.61844" lon="-0.99385">
        <ele>21.7669678</ele>
        <time>2015-10-04T08:36:00Z</time>
      </trkpt>
      <trkpt lat="44.61847" lon="-0.9938">
        <ele>8.3085938</ele>
        <time>2015-10-04T08:37:23Z</time>
      </trkpt>
      <trkpt lat="44.6185" lon="-0.99384">
        <ele>25.1317139</ele>
        <time>2015-10-04T08:37:36Z</time>
      </trkpt>
      <trkpt lat="44.61854" lon="-0.99375">
        <ele>21.286377</ele>
        <time>2015-10-04T08:37:46Z</time>
      </trkpt>
      <trkpt lat="44.6186" lon="-0.99361">
        <ele>15.0377197</ele>
        <time>2015-10-04T08:37:53Z</time>
      </trkpt>
      <trkpt lat="44.61865" lon="-0.99349">
        <ele>10.711792</ele>
        <time>2015-10-04T08:37:57Z</time>
      </trkpt>
      <trkpt lat="44.61876" lon="-0.99322">
        <ele>7.347168</ele>
        <time>2015-10-04T08:38:02Z</time>
      </trkpt>
      <trkpt lat="44.61884" lon="-0.99305">
        <ele>4.4632568</ele>
        <time>2015-10-04T08:38:05Z</time>
      </trkpt>
      <trkpt lat="44.61899" lon="-0.99292">
        <ele>2.5406494</ele>
        <time>2015-10-04T08:38:09Z</time>
      </trkpt>
      <trkpt lat="44.61903" lon="-0.99289">
        <ele>3.0212402</ele>
        <time>2015-10-04T08:38:10Z</time>
      </trkpt>
      <trkpt lat="44.61911" lon="-0.99283">
        <ele>2.5406494</ele>
        <time>2015-10-04T08:38:12Z</time>
      </trkpt>
      <trkpt lat="44.61928" lon="-0.99274">
        <ele>1.5793457</ele>
        <time>2015-10-04T08:38:16Z</time>
      </trkpt>
      <trkpt lat="44.61936" lon="-0.99272">
        <ele>1.0986328</ele>
        <time>2015-10-04T08:38:18Z</time>
      </trkpt>
      <trkpt lat="44.61958" lon="-0.99264">
        <ele>2.0600586</ele>
        <time>2015-10-04T08:38:23Z</time>
      </trkpt>
      <trkpt lat="44.61969" lon="-0.99262">
        <ele>2.5406494</ele>
        <time>2015-10-04T08:38:25Z</time>
      </trkpt>
      <trkpt lat="44.61979" lon="-0.99258">
        <ele>2.0600586</ele>
        <time>2015-10-04T08:38:27Z</time>
      </trkpt>
      <trkpt lat="44.62011" lon="-0.99234">
        <ele>2.5406494</ele>
        <time>2015-10-04T08:38:32Z</time>
      </trkpt>
      <trkpt lat="44.62032" lon="-0.99208">
        <ele>3.5019531</ele>
        <time>2015-10-04T08:38:36Z</time>
      </trkpt>
      <trkpt lat="44.62052" lon="-0.99156">
        <ele>2.5406494</ele>
        <time>2015-10-04T08:38:42Z</time>
      </trkpt>
      <trkpt lat="44.62061" lon="-0.99139">
        <ele>3.0212402</ele>
        <time>2015-10-04T08:38:44Z</time>
      </trkpt>
      <trkpt lat="44.62071" lon="-0.99114">
        <ele>3.0212402</ele>
        <time>2015-10-04T08:38:47Z</time>
      </trkpt>
      <trkpt lat="44.62086" lon="-0.99085">
        <ele>2.5406494</ele>
        <time>2015-10-04T08:38:51Z</time>
      </trkpt>
      <trkpt lat="44.62091" lon="-0.99072">
        <ele>0.618042</ele>
        <time>2015-10-04T08:38:55Z</time>
      </trkpt>
      <trkpt lat="44.62091" lon="-0.99071">
        <ele>2.0600586</ele>
        <time>2015-10-04T08:39:02Z</time>
      </trkpt>
      <trkpt lat="44.62089" lon="-0.99075">
        <ele>9.2698975</ele>
        <time>2015-10-04T08:39:18Z</time>
      </trkpt>
      <trkpt lat="44.62088" lon="-0.99077">
        <ele>12.1538086</ele>
        <time>2015-10-04T08:39:24Z</time>
      </trkpt>
      <trkpt lat="44.62086" lon="-0.9908">
        <ele>11.1925049</ele>
        <time>2015-10-04T08:39:30Z</time>
      </trkpt>
      <trkpt lat="44.62086" lon="-0.99082">
        <ele>11.1925049</ele>
        <time>2015-10-04T08:39:31Z</time>
      </trkpt>
      <trkpt lat="44.62088" lon="-0.99083">
        <ele>4.9438477</ele>
        <time>2015-10-04T08:39:39Z</time>
      </trkpt>
      <trkpt lat="44.62086" lon="-0.9908">
        <ele>3.5019531</ele>
        <time>2015-10-04T08:39:44Z</time>
      </trkpt>
      <trkpt lat="44.62088" lon="-0.99079">
        <ele>4.4632568</ele>
        <time>2015-10-04T08:39:52Z</time>
      </trkpt>
      <trkpt lat="44.6209" lon="-0.99081">
        <ele>0.618042</ele>
        <time>2015-10-04T08:40:24Z</time>
      </trkpt>
      <trkpt lat="44.62085" lon="-0.99079">
        <ele>-0.3433838</ele>
        <time>2015-10-04T08:42:30Z</time>
      </trkpt>
      <trkpt lat="44.62087" lon="-0.99075">
        <ele>0.618042</ele>
        <time>2015-10-04T08:42:34Z</time>
      </trkpt>
      <trkpt lat="44.62088" lon="-0.9907">
        <ele>2.0600586</ele>
        <time>2015-10-04T08:42:39Z</time>
      </trkpt>
      <trkpt lat="44.6209" lon="-0.99074">
        <ele>4.4632568</ele>
        <time>2015-10-04T08:43:27Z</time>
      </trkpt>
      <trkpt lat="44.62091" lon="-0.99073">
        <ele>5.9052734</ele>
        <time>2015-10-04T08:43:32Z</time>
      </trkpt>
      <trkpt lat="44.62092" lon="-0.99071">
        <ele>5.9052734</ele>
        <time>2015-10-04T08:43:34Z</time>
      </trkpt>
      <trkpt lat="44.62095" lon="-0.99067">
        <ele>4.9438477</ele>
        <time>2015-10-04T08:43:37Z</time>
      </trkpt>
      <trkpt lat="44.62106" lon="-0.99053">
        <ele>2.5406494</ele>
        <time>2015-10-04T08:43:44Z</time>
      </trkpt>
      <trkpt lat="44.62113" lon="-0.99034">
        <ele>2.0600586</ele>
        <time>2015-10-04T08:43:49Z</time>
      </trkpt>
      <trkpt lat="44.62125" lon="-0.99013">
        <ele>0.618042</ele>
        <time>2015-10-04T08:43:54Z</time>
      </trkpt>
      <trkpt lat="44.6214" lon="-0.98979">
        <ele>0.618042</ele>
        <time>2015-10-04T08:44:00Z</time>
      </trkpt>
      <trkpt lat="44.62146" lon="-0.98966">
        <ele>1.5793457</ele>
        <time>2015-10-04T08:44:02Z</time>
      </trkpt>
      <trkpt lat="44.62156" lon="-0.98964">
        <ele>2.5406494</ele>
        <time>2015-10-04T08:44:06Z</time>
      </trkpt>
      <trkpt lat="44.62163" lon="-0.98977">
        <ele>-0.3433838</ele>
        <time>2015-10-04T08:44:11Z</time>
      </trkpt>
      <trkpt lat="44.6217" lon="-0.98993">
        <ele>-1.3046875</ele>
        <time>2015-10-04T08:44:15Z</time>
      </trkpt>
      <trkpt lat="44.62176" lon="-0.99014">
        <ele>-2.7467041</ele>
        <time>2015-10-04T08:44:19Z</time>
      </trkpt>
      <trkpt lat="44.62181" lon="-0.99032">
        <ele>-1.3046875</ele>
        <time>2015-10-04T08:44:23Z</time>
      </trkpt>
      <trkpt lat="44.62183" lon="-0.99048">
        <ele>-1.3046875</ele>
        <time>2015-10-04T08:44:26Z</time>
      </trkpt>
      <trkpt lat="44.6218" lon="-0.99061">
        <ele>-1.3046875</ele>
        <time>2015-10-04T08:44:28Z</time>
      </trkpt>
      <trkpt lat="44.62183" lon="-0.99092">
        <ele>-1.3046875</ele>
        <time>2015-10-04T08:44:32Z</time>
      </trkpt>
      <trkpt lat="44.62186" lon="-0.9914">
        <ele>1.0986328</ele>
        <time>2015-10-04T08:44:37Z</time>
      </trkpt>
      <trkpt lat="44.62198" lon="-0.9919">
        <ele>3.0212402</ele>
        <time>2015-10-04T08:44:42Z</time>
      </trkpt>
      <trkpt lat="44.62208" lon="-0.99216">
        <ele>2.5406494</ele>
        <time>2015-10-04T08:44:45Z</time>
      </trkpt>
      <trkpt lat="44.62221" lon="-0.99265">
        <ele>1.0986328</ele>
        <time>2015-10-04T08:44:51Z</time>
      </trkpt>
      <trkpt lat="44.62225" lon="-0.99282">
        <ele>0.618042</ele>
        <time>2015-10-04T08:44:53Z</time>
      </trkpt>
      <trkpt lat="44.6224" lon="-0.9931">
        <ele>0.618042</ele>
        <time>2015-10-04T08:44:57Z</time>
      </trkpt>
      <trkpt lat="44.62254" lon="-0.9933">
        <ele>0.1374512</ele>
        <time>2015-10-04T08:45:01Z</time>
      </trkpt>
      <trkpt lat="44.62275" lon="-0.9935">
        <ele>0.618042</ele>
        <time>2015-10-04T08:45:06Z</time>
      </trkpt>
      <trkpt lat="44.62291" lon="-0.99374">
        <ele>0.618042</ele>
        <time>2015-10-04T08:45:10Z</time>
      </trkpt>
      <trkpt lat="44.6231" lon="-0.99389">
        <ele>1.0986328</ele>
        <time>2015-10-04T08:45:13Z</time>
      </trkpt>
      <trkpt lat="44.62324" lon="-0.99397">
        <ele>2.5406494</ele>
        <time>2015-10-04T08:45:15Z</time>
      </trkpt>
      <trkpt lat="44.62339" lon="-0.9941">
        <ele>3.982666</ele>
        <time>2015-10-04T08:45:17Z</time>
      </trkpt>
      <trkpt lat="44.62361" lon="-0.99429">
        <ele>2.0600586</ele>
        <time>2015-10-04T08:45:21Z</time>
      </trkpt>
      <trkpt lat="44.62375" lon="-0.99467">
        <ele>0.1374512</ele>
        <time>2015-10-04T08:45:26Z</time>
      </trkpt>
      <trkpt lat="44.62385" lon="-0.99494">
        <ele>0.618042</ele>
        <time>2015-10-04T08:45:30Z</time>
      </trkpt>
      <trkpt lat="44.62391" lon="-0.99502">
        <ele>-0.3433838</ele>
        <time>2015-10-04T08:45:34Z</time>
      </trkpt>
      <trkpt lat="44.62394" lon="-0.99504">
        <ele>-0.3433838</ele>
        <time>2015-10-04T08:45:36Z</time>
      </trkpt>
      <trkpt lat="44.62403" lon="-0.99507">
        <ele>-0.3433838</ele>
        <time>2015-10-04T08:45:42Z</time>
      </trkpt>
      <trkpt lat="44.62412" lon="-0.99508">
        <ele>-1.3046875</ele>
        <time>2015-10-04T08:45:47Z</time>
      </trkpt>
      <trkpt lat="44.62429" lon="-0.99511">
        <ele>-1.7852783</ele>
        <time>2015-10-04T08:45:53Z</time>
      </trkpt>
      <trkpt lat="44.6244" lon="-0.99518">
        <ele>-2.7467041</ele>
        <time>2015-10-04T08:45:59Z</time>
      </trkpt>
      <trkpt lat="44.62444" lon="-0.99524">
        <ele>-5.1499023</ele>
        <time>2015-10-04T08:46:05Z</time>
      </trkpt>
      <trkpt lat="44.62447" lon="-0.99527">
        <ele>-6.5919189</ele>
        <time>2015-10-04T08:46:09Z</time>
      </trkpt>
      <trkpt lat="44.62449" lon="-0.99531">
        <ele>-4.1885986</ele>
        <time>2015-10-04T08:46:12Z</time>
      </trkpt>
      <trkpt lat="44.62455" lon="-0.99537">
        <ele>-4.1885986</ele>
        <time>2015-10-04T08:46:17Z</time>
      </trkpt>
      <trkpt lat="44.62462" lon="-0.99544">
        <ele>-2.2659912</ele>
        <time>2015-10-04T08:46:23Z</time>
      </trkpt>
      <trkpt lat="44.6247" lon="-0.99552">
        <ele>-1.7852783</ele>
        <time>2015-10-04T08:46:29Z</time>
      </trkpt>
      <trkpt lat="44.62482" lon="-0.99559">
        <ele>0.618042</ele>
        <time>2015-10-04T08:46:33Z</time>
      </trkpt>
      <trkpt lat="44.62502" lon="-0.9958">
        <ele>-0.3433838</ele>
        <time>2015-10-04T08:46:39Z</time>
      </trkpt>
      <trkpt lat="44.62509" lon="-0.99592">
        <ele>-0.3433838</ele>
        <time>2015-10-04T08:46:42Z</time>
      </trkpt>
      <trkpt lat="44.62519" lon="-0.99603">
        <ele>0.1374512</ele>
        <time>2015-10-04T08:46:45Z</time>
      </trkpt>
      <trkpt lat="44.62539" lon="-0.99618">
        <ele>0.618042</ele>
        <time>2015-10-04T08:46:50Z</time>
      </trkpt>
      <trkpt lat="44.62549" lon="-0.99624">
        <ele>0.1374512</ele>
        <time>2015-10-04T08:46:53Z</time>
      </trkpt>
      <trkpt lat="44.62571" lon="-0.99629">
        <ele>-1.3046875</ele>
        <time>2015-10-04T08:46:59Z</time>
      </trkpt>
      <trkpt lat="44.626" lon="-0.99634">
        <ele>-0.8240967</ele>
        <time>2015-10-04T08:47:06Z</time>
      </trkpt>
      <trkpt lat="44.62604" lon="-0.99634">
        <ele>-0.8240967</ele>
        <time>2015-10-04T08:47:07Z</time>
      </trkpt>
      <trkpt lat="44.62621" lon="-0.99642">
        <ele>-0.3433838</ele>
        <time>2015-10-04T08:47:12Z</time>
      </trkpt>
      <trkpt lat="44.62636" lon="-0.99651">
        <ele>-0.8240967</ele>
        <time>2015-10-04T08:47:17Z</time>
      </trkpt>
      <trkpt lat="44.62642" lon="-0.99657">
        <ele>0.618042</ele>
        <time>2015-10-04T08:47:19Z</time>
      </trkpt>
      <trkpt lat="44.62652" lon="-0.99682">
        <ele>0.1374512</ele>
        <time>2015-10-04T08:47:25Z</time>
      </trkpt>
      <trkpt lat="44.62661" lon="-0.99713">
        <ele>-1.7852783</ele>
        <time>2015-10-04T08:47:32Z</time>
      </trkpt>
      <trkpt lat="44.62667" lon="-0.9972">
        <ele>-1.7852783</ele>
        <time>2015-10-04T08:47:36Z</time>
      </trkpt>
      <trkpt lat="44.62666" lon="-0.99723">
        <ele>1.0986328</ele>
        <time>2015-10-04T08:47:40Z</time>
      </trkpt>
      <trkpt lat="44.62662" lon="-0.99717">
        <ele>3.0212402</ele>
        <time>2015-10-04T08:47:44Z</time>
      </trkpt>
      <trkpt lat="44.62654" lon="-0.99692">
        <ele>4.4632568</ele>
        <time>2015-10-04T08:47:49Z</time>
      </trkpt>
      <trkpt lat="44.62647" lon="-0.9966">
        <ele>3.0212402</ele>
        <time>2015-10-04T08:47:55Z</time>
      </trkpt>
      <trkpt lat="44.62644" lon="-0.99657">
        <ele>2.5406494</ele>
        <time>2015-10-04T08:47:56Z</time>
      </trkpt>
      <trkpt lat="44.62626" lon="-0.99646">
        <ele>3.0212402</ele>
        <time>2015-10-04T08:48:00Z</time>
      </trkpt>
      <trkpt lat="44.6261" lon="-0.99639">
        <ele>2.0600586</ele>
        <time>2015-10-04T08:48:03Z</time>
      </trkpt>
      <trkpt lat="44.62592" lon="-0.99632">
        <ele>-0.8240967</ele>
        <time>2015-10-04T08:48:07Z</time>
      </trkpt>
      <trkpt lat="44.62568" lon="-0.99623">
        <ele>-0.3433838</ele>
        <time>2015-10-04T08:48:12Z</time>
      </trkpt>
      <trkpt lat="44.62542" lon="-0.99619">
        <ele>-1.3046875</ele>
        <time>2015-10-04T08:48:17Z</time>
      </trkpt>
      <trkpt lat="44.62512" lon="-0.99601">
        <ele>0.618042</ele>
        <time>2015-10-04T08:48:23Z</time>
      </trkpt>
      <trkpt lat="44.62483" lon="-0.99564">
        <ele>1.5793457</ele>
        <time>2015-10-04T08:48:29Z</time>
      </trkpt>
      <trkpt lat="44.62475" lon="-0.99556">
        <ele>0.618042</ele>
        <time>2015-10-04T08:48:31Z</time>
      </trkpt>
      <trkpt lat="44.62455" lon="-0.99533">
        <ele>1.0986328</ele>
        <time>2015-10-04T08:48:36Z</time>
      </trkpt>
      <trkpt lat="44.6244" lon="-0.99511">
        <ele>-0.3433838</ele>
        <time>2015-10-04T08:48:39Z</time>
      </trkpt>
      <trkpt lat="44.62426" lon="-0.99503">
        <ele>1.5793457</ele>
        <time>2015-10-04T08:48:43Z</time>
      </trkpt>
      <trkpt lat="44.62411" lon="-0.99505">
        <ele>0.1374512</ele>
        <time>2015-10-04T08:48:48Z</time>
      </trkpt>
      <trkpt lat="44.624" lon="-0.99503">
        <ele>-0.3433838</ele>
        <time>2015-10-04T08:48:54Z</time>
      </trkpt>
      <trkpt lat="44.62392" lon="-0.99501">
        <ele>-1.3046875</ele>
        <time>2015-10-04T08:48:57Z</time>
      </trkpt>
      <trkpt lat="44.62385" lon="-0.99514">
        <ele>-0.8240967</ele>
        <time>2015-10-04T08:49:01Z</time>
      </trkpt>
      <trkpt lat="44.62373" lon="-0.99534">
        <ele>-0.8240967</ele>
        <time>2015-10-04T08:49:05Z</time>
      </trkpt>
      <trkpt lat="44.62365" lon="-0.99542">
        <ele>-1.7852783</ele>
        <time>2015-10-04T08:49:07Z</time>
      </trkpt>
      <trkpt lat="44.62345" lon="-0.99563">
        <ele>-1.7852783</ele>
        <time>2015-10-04T08:49:12Z</time>
      </trkpt>
      <trkpt lat="44.62321" lon="-0.99573">
        <ele>-0.3433838</ele>
        <time>2015-10-04T08:49:17Z</time>
      </trkpt>
      <trkpt lat="44.62316" lon="-0.99576">
        <ele>0.1374512</ele>
        <time>2015-10-04T08:49:18Z</time>
      </trkpt>
      <trkpt lat="44.62302" lon="-0.99586">
        <ele>1.0986328</ele>
        <time>2015-10-04T08:49:21Z</time>
      </trkpt>
      <trkpt lat="44.62277" lon="-0.99598">
        <ele>0.618042</ele>
        <time>2015-10-04T08:49:26Z</time>
      </trkpt>
      <trkpt lat="44.62268" lon="-0.99615">
        <ele>-0.8240967</ele>
        <time>2015-10-04T08:49:29Z</time>
      </trkpt>
      <trkpt lat="44.62264" lon="-0.9963">
        <ele>-1.3046875</ele>
        <time>2015-10-04T08:49:31Z</time>
      </trkpt>
      <trkpt lat="44.6226" lon="-0.99663">
        <ele>-2.2659912</ele>
        <time>2015-10-04T08:49:35Z</time>
      </trkpt>
      <trkpt lat="44.6225" lon="-0.997">
        <ele>-3.7078857</ele>
        <time>2015-10-04T08:49:40Z</time>
      </trkpt>
      <trkpt lat="44.6225" lon="-0.99726">
        <ele>-4.6693115</ele>
        <time>2015-10-04T08:49:44Z</time>
      </trkpt>
      <trkpt lat="44.62253" lon="-0.99752">
        <ele>-4.1885986</ele>
        <time>2015-10-04T08:49:48Z</time>
      </trkpt>
      <trkpt lat="44.62255" lon="-0.99758">
        <ele>-4.1885986</ele>
        <time>2015-10-04T08:49:49Z</time>
      </trkpt>
      <trkpt lat="44.62258" lon="-0.99766">
        <ele>-3.2272949</ele>
        <time>2015-10-04T08:49:51Z</time>
      </trkpt>
      <trkpt lat="44.62253" lon="-0.99774">
        <ele>-4.1885986</ele>
        <time>2015-10-04T08:49:55Z</time>
      </trkpt>
      <trkpt lat="44.62241" lon="-0.99786">
        <ele>-5.6304932</ele>
        <time>2015-10-04T08:49:59Z</time>
      </trkpt>
      <trkpt lat="44.62233" lon="-0.9979">
        <ele>-5.1499023</ele>
        <time>2015-10-04T08:50:02Z</time>
      </trkpt>
      <trkpt lat="44.62221" lon="-0.998">
        <ele>-4.6693115</ele>
        <time>2015-10-04T08:50:07Z</time>
      </trkpt>
      <trkpt lat="44.62211" lon="-0.9982">
        <ele>-2.7467041</ele>
        <time>2015-10-04T08:50:12Z</time>
      </trkpt>
      <trkpt lat="44.62209" lon="-0.99827">
        <ele>-2.2659912</ele>
        <time>2015-10-04T08:50:14Z</time>
      </trkpt>
      <trkpt lat="44.6221" lon="-0.99834">
        <ele>1.5793457</ele>
        <time>2015-10-04T08:50:23Z</time>
      </trkpt>
      <trkpt lat="44.62207" lon="-0.99837">
        <ele>4.4632568</ele>
        <time>2015-10-04T08:50:32Z</time>
      </trkpt>
      <trkpt lat="44.62203" lon="-0.99833">
        <ele>6.3858643</ele>
        <time>2015-10-04T08:50:39Z</time>
      </trkpt>
      <trkpt lat="44.62202" lon="-0.99832">
        <ele>6.8664551</ele>
        <time>2015-10-04T08:50:41Z</time>
      </trkpt>
      <trkpt lat="44.62197" lon="-0.99833">
        <ele>5.4245605</ele>
        <time>2015-10-04T08:50:46Z</time>
      </trkpt>
      <trkpt lat="44.62188" lon="-0.99845">
        <ele>4.4632568</ele>
        <time>2015-10-04T08:50:50Z</time>
      </trkpt>
      <trkpt lat="44.6218" lon="-0.99856">
        <ele>3.0212402</ele>
        <time>2015-10-04T08:50:55Z</time>
      </trkpt>
      <trkpt lat="44.62175" lon="-0.99872">
        <ele>2.0600586</ele>
        <time>2015-10-04T08:51:00Z</time>
      </trkpt>
      <trkpt lat="44.62168" lon="-0.99884">
        <ele>1.0986328</ele>
        <time>2015-10-04T08:51:04Z</time>
      </trkpt>
      <trkpt lat="44.62167" lon="-0.99886">
        <ele>0.618042</ele>
        <time>2015-10-04T08:51:05Z</time>
      </trkpt>
      <trkpt lat="44.62165" lon="-0.99907">
        <ele>-0.8240967</ele>
        <time>2015-10-04T08:51:09Z</time>
      </trkpt>
      <trkpt lat="44.62156" lon="-0.99916">
        <ele>-0.3433838</ele>
        <time>2015-10-04T08:51:12Z</time>
      </trkpt>
      <trkpt lat="44.62152" lon="-0.99921">
        <ele>-0.3433838</ele>
        <time>2015-10-04T08:51:14Z</time>
      </trkpt>
      <trkpt lat="44.62143" lon="-0.99941">
        <ele>0.618042</ele>
        <time>2015-10-04T08:51:20Z</time>
      </trkpt>
      <trkpt lat="44.62138" lon="-0.99962">
        <ele>-0.8240967</ele>
        <time>2015-10-04T08:51:25Z</time>
      </trkpt>
      <trkpt lat="44.62144" lon="-0.99987">
        <ele>-2.2659912</ele>
        <time>2015-10-04T08:51:29Z</time>
      </trkpt>
      <trkpt lat="44.62148" lon="-0.99997">
        <ele>-1.7852783</ele>
        <time>2015-10-04T08:51:31Z</time>
      </trkpt>
      <trkpt lat="44.62141" lon="-1.00024">
        <ele>2.0600586</ele>
        <time>2015-10-04T08:51:36Z</time>
      </trkpt>
      <trkpt lat="44.6214" lon="-1.00029">
        <ele>1.5793457</ele>
        <time>2015-10-04T08:51:37Z</time>
      </trkpt>
      <trkpt lat="44.62128" lon="-1.00044">
        <ele>-0.8240967</ele>
        <time>2015-10-04T08:51:41Z</time>
      </trkpt>
      <trkpt lat="44.62123" lon="-1.00047">
        <ele>0.1374512</ele>
        <time>2015-10-04T08:51:42Z</time>
      </trkpt>
      <trkpt lat="44.62099" lon="-1.00057">
        <ele>2.5406494</ele>
        <time>2015-10-04T08:51:48Z</time>
      </trkpt>
      <trkpt lat="44.62093" lon="-1.00064">
        <ele>3.5019531</ele>
        <time>2015-10-04T08:51:52Z</time>
      </trkpt>
      <trkpt lat="44.62074" lon="-1.00076">
        <ele>7.347168</ele>
        <time>2015-10-04T08:51:57Z</time>
      </trkpt>
      <trkpt lat="44.62058" lon="-1.00082">
        <ele>5.4245605</ele>
        <time>2015-10-04T08:52:02Z</time>
      </trkpt>
      <trkpt lat="44.62045" lon="-1.00091">
        <ele>6.3858643</ele>
        <time>2015-10-04T08:52:06Z</time>
      </trkpt>
      <trkpt lat="44.62042" lon="-1.00094">
        <ele>6.3858643</ele>
        <time>2015-10-04T08:52:07Z</time>
      </trkpt>
      <trkpt lat="44.62018" lon="-1.00104">
        <ele>4.4632568</ele>
        <time>2015-10-04T08:52:13Z</time>
      </trkpt>
      <trkpt lat="44.62012" lon="-1.00111">
        <ele>3.5019531</ele>
        <time>2015-10-04T08:52:15Z</time>
      </trkpt>
      <trkpt lat="44.61999" lon="-1.00119">
        <ele>2.5406494</ele>
        <time>2015-10-04T08:52:19Z</time>
      </trkpt>
      <trkpt lat="44.61985" lon="-1.00131">
        <ele>3.5019531</ele>
        <time>2015-10-04T08:52:23Z</time>
      </trkpt>
      <trkpt lat="44.61982" lon="-1.00133">
        <ele>2.5406494</ele>
        <time>2015-10-04T08:52:24Z</time>
      </trkpt>
      <trkpt lat="44.61964" lon="-1.00142">
        <ele>2.0600586</ele>
        <time>2015-10-04T08:52:28Z</time>
      </trkpt>
      <trkpt lat="44.61937" lon="-1.00159">
        <ele>2.0600586</ele>
        <time>2015-10-04T08:52:35Z</time>
      </trkpt>
      <trkpt lat="44.61921" lon="-1.00165">
        <ele>2.5406494</ele>
        <time>2015-10-04T08:52:39Z</time>
      </trkpt>
      <trkpt lat="44.61906" lon="-1.00182">
        <ele>4.4632568</ele>
        <time>2015-10-04T08:52:44Z</time>
      </trkpt>
      <trkpt lat="44.61897" lon="-1.00201">
        <ele>3.0212402</ele>
        <time>2015-10-04T08:52:49Z</time>
      </trkpt>
      <trkpt lat="44.61883" lon="-1.00213">
        <ele>3.5019531</ele>
        <time>2015-10-04T08:52:54Z</time>
      </trkpt>
      <trkpt lat="44.61869" lon="-1.00222">
        <ele>3.982666</ele>
        <time>2015-10-04T08:52:59Z</time>
      </trkpt>
      <trkpt lat="44.61866" lon="-1.00224">
        <ele>3.982666</ele>
        <time>2015-10-04T08:53:00Z</time>
      </trkpt>
      <trkpt lat="44.61853" lon="-1.0023">
        <ele>4.9438477</ele>
        <time>2015-10-04T08:53:04Z</time>
      </trkpt>
      <trkpt lat="44.61843" lon="-1.00232">
        <ele>4.4632568</ele>
        <time>2015-10-04T08:53:08Z</time>
      </trkpt>
      <trkpt lat="44.61835" lon="-1.00239">
        <ele>3.982666</ele>
        <time>2015-10-04T08:53:11Z</time>
      </trkpt>
      <trkpt lat="44.61821" lon="-1.00246">
        <ele>4.4632568</ele>
        <time>2015-10-04T08:53:15Z</time>
      </trkpt>
      <trkpt lat="44.61809" lon="-1.00263">
        <ele>2.0600586</ele>
        <time>2015-10-04T08:53:20Z</time>
      </trkpt>
      <trkpt lat="44.61795" lon="-1.00267">
        <ele>0.618042</ele>
        <time>2015-10-04T08:53:24Z</time>
      </trkpt>
      <trkpt lat="44.61791" lon="-1.00268">
        <ele>0.618042</ele>
        <time>2015-10-04T08:53:25Z</time>
      </trkpt>
      <trkpt lat="44.6177" lon="-1.0028">
        <ele>1.5793457</ele>
        <time>2015-10-04T08:53:31Z</time>
      </trkpt>
      <trkpt lat="44.61751" lon="-1.00289">
        <ele>0.1374512</ele>
        <time>2015-10-04T08:53:36Z</time>
      </trkpt>
      <trkpt lat="44.61731" lon="-1.003">
        <ele>0.1374512</ele>
        <time>2015-10-04T08:53:41Z</time>
      </trkpt>
      <trkpt lat="44.61713" lon="-1.00312">
        <ele>1.5793457</ele>
        <time>2015-10-04T08:53:46Z</time>
      </trkpt>
      <trkpt lat="44.6171" lon="-1.00315">
        <ele>1.0986328</ele>
        <time>2015-10-04T08:53:47Z</time>
      </trkpt>
      <trkpt lat="44.61695" lon="-1.00331">
        <ele>1.5793457</ele>
        <time>2015-10-04T08:53:52Z</time>
      </trkpt>
      <trkpt lat="44.61682" lon="-1.00341">
        <ele>3.0212402</ele>
        <time>2015-10-04T08:53:56Z</time>
      </trkpt>
      <trkpt lat="44.61671" lon="-1.00349">
        <ele>2.5406494</ele>
        <time>2015-10-04T08:54:00Z</time>
      </trkpt>
      <trkpt lat="44.61669" lon="-1.00352">
        <ele>4.4632568</ele>
        <time>2015-10-04T08:54:06Z</time>
      </trkpt>
      <trkpt lat="44.61668" lon="-1.00351">
        <ele>7.347168</ele>
        <time>2015-10-04T08:54:13Z</time>
      </trkpt>
      <trkpt lat="44.61667" lon="-1.00349">
        <ele>10.711792</ele>
        <time>2015-10-04T08:54:52Z</time>
      </trkpt>
      <trkpt lat="44.61667" lon="-1.0035">
        <ele>9.2698975</ele>
        <time>2015-10-04T08:55:18Z</time>
      </trkpt>
      <trkpt lat="44.61667" lon="-1.0035">
        <ele>9.2698975</ele>
        <time>2015-10-04T08:55:28Z</time>
      </trkpt>
      <trkpt lat="44.61667" lon="-1.00351">
        <ele>7.347168</ele>
        <time>2015-10-04T08:55:38Z</time>
      </trkpt>
      <trkpt lat="44.61667" lon="-1.00352">
        <ele>6.3858643</ele>
        <time>2015-10-04T08:55:49Z</time>
      </trkpt>
      <trkpt lat="44.61665" lon="-1.0035">
        <ele>8.3085938</ele>
        <time>2015-10-04T08:56:06Z</time>
      </trkpt>
      <trkpt lat="44.61652" lon="-1.00358">
        <ele>5.4245605</ele>
        <time>2015-10-04T08:56:12Z</time>
      </trkpt>
      <trkpt lat="44.61636" lon="-1.00373">
        <ele>3.982666</ele>
        <time>2015-10-04T08:56:18Z</time>
      </trkpt>
      <trkpt lat="44.6162" lon="-1.00376">
        <ele>4.4632568</ele>
        <time>2015-10-04T08:56:24Z</time>
      </trkpt>
      <trkpt lat="44.6161" lon="-1.00379">
        <ele>4.4632568</ele>
        <time>2015-10-04T08:56:27Z</time>
      </trkpt>
      <trkpt lat="44.61592" lon="-1.00384">
        <ele>3.982666</ele>
        <time>2015-10-04T08:56:32Z</time>
      </trkpt>
      <trkpt lat="44.61577" lon="-1.00398">
        <ele>4.4632568</ele>
        <time>2015-10-04T08:56:37Z</time>
      </trkpt>
      <trkpt lat="44.61568" lon="-1.004">
        <ele>4.4632568</ele>
        <time>2015-10-04T08:56:40Z</time>
      </trkpt>
      <trkpt lat="44.61556" lon="-1.00402">
        <ele>3.982666</ele>
        <time>2015-10-04T08:56:44Z</time>
      </trkpt>
      <trkpt lat="44.61544" lon="-1.00408">
        <ele>4.4632568</ele>
        <time>2015-10-04T08:56:48Z</time>
      </trkpt>
      <trkpt lat="44.61542" lon="-1.00411">
        <ele>4.4632568</ele>
        <time>2015-10-04T08:56:49Z</time>
      </trkpt>
      <trkpt lat="44.61518" lon="-1.0043">
        <ele>4.4632568</ele>
        <time>2015-10-04T08:56:57Z</time>
      </trkpt>
      <trkpt lat="44.61509" lon="-1.00438">
        <ele>3.982666</ele>
        <time>2015-10-04T08:57:01Z</time>
      </trkpt>
      <trkpt lat="44.61492" lon="-1.00435">
        <ele>3.5019531</ele>
        <time>2015-10-04T08:57:07Z</time>
      </trkpt>
      <trkpt lat="44.61477" lon="-1.00441">
        <ele>3.982666</ele>
        <time>2015-10-04T08:57:11Z</time>
      </trkpt>
      <trkpt lat="44.61446" lon="-1.00453">
        <ele>4.9438477</ele>
        <time>2015-10-04T08:57:19Z</time>
      </trkpt>
      <trkpt lat="44.61425" lon="-1.00474">
        <ele>5.4245605</ele>
        <time>2015-10-04T08:57:26Z</time>
      </trkpt>
      <trkpt lat="44.61411" lon="-1.00488">
        <ele>5.4245605</ele>
        <time>2015-10-04T08:57:31Z</time>
      </trkpt>
      <trkpt lat="44.61391" lon="-1.00495">
        <ele>4.9438477</ele>
        <time>2015-10-04T08:57:36Z</time>
      </trkpt>
      <trkpt lat="44.61368" lon="-1.00494">
        <ele>5.4245605</ele>
        <time>2015-10-04T08:57:42Z</time>
      </trkpt>
      <trkpt lat="44.61341" lon="-1.00489">
        <ele>5.9052734</ele>
        <time>2015-10-04T08:57:49Z</time>
      </trkpt>
      <trkpt lat="44.61317" lon="-1.00485">
        <ele>6.3858643</ele>
        <time>2015-10-04T08:57:55Z</time>
      </trkpt>
      <trkpt lat="44.61293" lon="-1.00481">
        <ele>6.3858643</ele>
        <time>2015-10-04T08:58:02Z</time>
      </trkpt>
      <trkpt lat="44.61275" lon="-1.00476">
        <ele>6.8664551</ele>
        <time>2015-10-04T08:58:08Z</time>
      </trkpt>
      <trkpt lat="44.61262" lon="-1.00477">
        <ele>6.8664551</ele>
        <time>2015-10-04T08:58:13Z</time>
      </trkpt>
      <trkpt lat="44.6125" lon="-1.00481">
        <ele>5.9052734</ele>
        <time>2015-10-04T08:58:19Z</time>
      </trkpt>
      <trkpt lat="44.61228" lon="-1.00489">
        <ele>1.5793457</ele>
        <time>2015-10-04T08:58:22Z</time>
      </trkpt>
      <trkpt lat="44.61214" lon="-1.00477">
        <ele>3.5019531</ele>
        <time>2015-10-04T08:58:26Z</time>
      </trkpt>
      <trkpt lat="44.61202" lon="-1.00473">
        <ele>5.4245605</ele>
        <time>2015-10-04T08:58:29Z</time>
      </trkpt>
      <trkpt lat="44.61191" lon="-1.00465">
        <ele>5.9052734</ele>
        <time>2015-10-04T08:58:32Z</time>
      </trkpt>
      <trkpt lat="44.6118" lon="-1.0045">
        <ele>5.4245605</ele>
        <time>2015-10-04T08:58:36Z</time>
      </trkpt>
      <trkpt lat="44.61172" lon="-1.00419">
        <ele>4.9438477</ele>
        <time>2015-10-04T08:58:41Z</time>
      </trkpt>
      <trkpt lat="44.61172" lon="-1.00413">
        <ele>4.9438477</ele>
        <time>2015-10-04T08:58:42Z</time>
      </trkpt>
      <trkpt lat="44.61172" lon="-1.00392">
        <ele>4.9438477</ele>
        <time>2015-10-04T08:58:45Z</time>
      </trkpt>
      <trkpt lat="44.61173" lon="-1.00357">
        <ele>5.4245605</ele>
        <time>2015-10-04T08:58:50Z</time>
      </trkpt>
      <trkpt lat="44.61177" lon="-1.00323">
        <ele>6.3858643</ele>
        <time>2015-10-04T08:58:55Z</time>
      </trkpt>
      <trkpt lat="44.6118" lon="-1.00308">
        <ele>8.3085938</ele>
        <time>2015-10-04T08:58:58Z</time>
      </trkpt>
      <trkpt lat="44.61187" lon="-1.00297">
        <ele>10.2312012</ele>
        <time>2015-10-04T08:59:04Z</time>
      </trkpt>
      <trkpt lat="44.61189" lon="-1.00296">
        <ele>11.1925049</ele>
        <time>2015-10-04T08:59:10Z</time>
      </trkpt>
      <trkpt lat="44.61188" lon="-1.00296">
        <ele>13.1151123</ele>
        <time>2015-10-04T08:59:24Z</time>
      </trkpt>
      <trkpt lat="44.61188" lon="-1.00296">
        <ele>14.076416</ele>
        <time>2015-10-04T08:59:30Z</time>
      </trkpt>
      <trkpt lat="44.61189" lon="-1.00295">
        <ele>13.1151123</ele>
        <time>2015-10-04T08:59:50Z</time>
      </trkpt>
      <trkpt lat="44.61189" lon="-1.00295">
        <ele>13.1151123</ele>
        <time>2015-10-04T08:59:51Z</time>
      </trkpt>
      <trkpt lat="44.6119" lon="-1.00285">
        <ele>12.1538086</ele>
        <time>2015-10-04T08:59:56Z</time>
      </trkpt>
      <trkpt lat="44.61186" lon="-1.00267">
        <ele>11.1925049</ele>
        <time>2015-10-04T09:00:01Z</time>
      </trkpt>
      <trkpt lat="44.61184" lon="-1.00244">
        <ele>10.711792</ele>
        <time>2015-10-04T09:00:05Z</time>
      </trkpt>
      <trkpt lat="44.61192" lon="-1.00228">
        <ele>9.7506104</ele>
        <time>2015-10-04T09:00:08Z</time>
      </trkpt>
      <trkpt lat="44.6122" lon="-1.00191">
        <ele>8.3085938</ele>
        <time>2015-10-04T09:00:16Z</time>
      </trkpt>
      <trkpt lat="44.61232" lon="-1.00171">
        <ele>7.347168</ele>
        <time>2015-10-04T09:00:20Z</time>
      </trkpt>
      <trkpt lat="44.61243" lon="-1.00143">
        <ele>7.347168</ele>
        <time>2015-10-04T09:00:25Z</time>
      </trkpt>
      <trkpt lat="44.61252" lon="-1.00081">
        <ele>6.3858643</ele>
        <time>2015-10-04T09:00:35Z</time>
      </trkpt>
      <trkpt lat="44.61263" lon="-1.00015">
        <ele>5.9052734</ele>
        <time>2015-10-04T09:00:45Z</time>
      </trkpt>
      <trkpt lat="44.61269" lon="-0.99971">
        <ele>5.4245605</ele>
        <time>2015-10-04T09:00:52Z</time>
      </trkpt>
      <trkpt lat="44.61275" lon="-0.99928">
        <ele>5.4245605</ele>
        <time>2015-10-04T09:00:58Z</time>
      </trkpt>
      <trkpt lat="44.61283" lon="-0.99872">
        <ele>5.4245605</ele>
        <time>2015-10-04T09:01:06Z</time>
      </trkpt>
      <trkpt lat="44.61295" lon="-0.99816">
        <ele>5.4245605</ele>
        <time>2015-10-04T09:01:14Z</time>
      </trkpt>
      <trkpt lat="44.61298" lon="-0.99795">
        <ele>6.3858643</ele>
        <time>2015-10-04T09:01:17Z</time>
      </trkpt>
      <trkpt lat="44.61304" lon="-0.99755">
        <ele>5.4245605</ele>
        <time>2015-10-04T09:01:23Z</time>
      </trkpt>
      <trkpt lat="44.61311" lon="-0.99697">
        <ele>5.9052734</ele>
        <time>2015-10-04T09:01:31Z</time>
      </trkpt>
      <trkpt lat="44.61322" lon="-0.99629">
        <ele>5.9052734</ele>
        <time>2015-10-04T09:01:41Z</time>
      </trkpt>
      <trkpt lat="44.61337" lon="-0.99556">
        <ele>4.9438477</ele>
        <time>2015-10-04T09:01:51Z</time>
      </trkpt>
      <trkpt lat="44.61344" lon="-0.99527">
        <ele>4.9438477</ele>
        <time>2015-10-04T09:01:55Z</time>
      </trkpt>
      <trkpt lat="44.61356" lon="-0.99467">
        <ele>3.982666</ele>
        <time>2015-10-04T09:02:03Z</time>
      </trkpt>
      <trkpt lat="44.61366" lon="-0.9941">
        <ele>5.9052734</ele>
        <time>2015-10-04T09:02:11Z</time>
      </trkpt>
      <trkpt lat="44.6137" lon="-0.99388">
        <ele>5.9052734</ele>
        <time>2015-10-04T09:02:15Z</time>
      </trkpt>
      <trkpt lat="44.61368" lon="-0.99375">
        <ele>9.7506104</ele>
        <time>2015-10-04T09:02:19Z</time>
      </trkpt>
      <trkpt lat="44.61367" lon="-0.99377">
        <ele>8.7891846</ele>
        <time>2015-10-04T09:02:30Z</time>
      </trkpt>
      <trkpt lat="44.61358" lon="-0.9938">
        <ele>7.8278809</ele>
        <time>2015-10-04T09:02:34Z</time>
      </trkpt>
      <trkpt lat="44.61349" lon="-0.99382">
        <ele>7.347168</ele>
        <time>2015-10-04T09:02:38Z</time>
      </trkpt>
      <trkpt lat="44.61347" lon="-0.99381">
        <ele>7.8278809</ele>
        <time>2015-10-04T09:02:39Z</time>
      </trkpt>
      <trkpt lat="44.6134" lon="-0.99373">
        <ele>7.347168</ele>
        <time>2015-10-04T09:02:44Z</time>
      </trkpt>
      <trkpt lat="44.61338" lon="-0.99354">
        <ele>5.4245605</ele>
        <time>2015-10-04T09:02:50Z</time>
      </trkpt>
      <trkpt lat="44.61342" lon="-0.99325">
        <ele>3.5019531</ele>
        <time>2015-10-04T09:02:57Z</time>
      </trkpt>
      <trkpt lat="44.61341" lon="-0.99297">
        <ele>2.5406494</ele>
        <time>2015-10-04T09:03:03Z</time>
      </trkpt>
      <trkpt lat="44.61347" lon="-0.99273">
        <ele>4.4632568</ele>
        <time>2015-10-04T09:03:08Z</time>
      </trkpt>
      <trkpt lat="44.61351" lon="-0.99254">
        <ele>4.4632568</ele>
        <time>2015-10-04T09:03:12Z</time>
      </trkpt>
      <trkpt lat="44.61345" lon="-0.99221">
        <ele>7.347168</ele>
        <time>2015-10-04T09:03:18Z</time>
      </trkpt>
      <trkpt lat="44.61337" lon="-0.99192">
        <ele>6.8664551</ele>
        <time>2015-10-04T09:03:24Z</time>
      </trkpt>
      <trkpt lat="44.61329" lon="-0.99155">
        <ele>11.1925049</ele>
        <time>2015-10-04T09:03:31Z</time>
      </trkpt>
      <trkpt lat="44.61324" lon="-0.99131">
        <ele>11.1925049</ele>
        <time>2015-10-04T09:03:36Z</time>
      </trkpt>
      <trkpt lat="44.6132" lon="-0.99101">
        <ele>10.2312012</ele>
        <time>2015-10-04T09:03:41Z</time>
      </trkpt>
      <trkpt lat="44.61315" lon="-0.99073">
        <ele>9.2698975</ele>
        <time>2015-10-04T09:03:45Z</time>
      </trkpt>
      <trkpt lat="44.61306" lon="-0.99028">
        <ele>9.7506104</ele>
        <time>2015-10-04T09:03:51Z</time>
      </trkpt>
      <trkpt lat="44.61305" lon="-0.9902">
        <ele>9.2698975</ele>
        <time>2015-10-04T09:03:52Z</time>
      </trkpt>
      <trkpt lat="44.61301" lon="-0.99">
        <ele>7.8278809</ele>
        <time>2015-10-04T09:03:55Z</time>
      </trkpt>
      <trkpt lat="44.61298" lon="-0.98986">
        <ele>7.8278809</ele>
        <time>2015-10-04T09:03:57Z</time>
      </trkpt>
      <trkpt lat="44.61288" lon="-0.98961">
        <ele>9.2698975</ele>
        <time>2015-10-04T09:04:01Z</time>
      </trkpt>
      <trkpt lat="44.61277" lon="-0.98937">
        <ele>9.7506104</ele>
        <time>2015-10-04T09:04:05Z</time>
      </trkpt>
      <trkpt lat="44.61274" lon="-0.98923">
        <ele>9.7506104</ele>
        <time>2015-10-04T09:04:07Z</time>
      </trkpt>
      <trkpt lat="44.61264" lon="-0.98906">
        <ele>9.7506104</ele>
        <time>2015-10-04T09:04:11Z</time>
      </trkpt>
      <trkpt lat="44.61255" lon="-0.98896">
        <ele>11.1925049</ele>
        <time>2015-10-04T09:04:13Z</time>
      </trkpt>
      <trkpt lat="44.61225" lon="-0.98877">
        <ele>8.7891846</ele>
        <time>2015-10-04T09:04:19Z</time>
      </trkpt>
      <trkpt lat="44.61194" lon="-0.98855">
        <ele>10.711792</ele>
        <time>2015-10-04T09:04:25Z</time>
      </trkpt>
      <trkpt lat="44.61184" lon="-0.98847">
        <ele>10.711792</ele>
        <time>2015-10-04T09:04:27Z</time>
      </trkpt>
      <trkpt lat="44.61143" lon="-0.98821">
        <ele>8.3085938</ele>
        <time>2015-10-04T09:04:35Z</time>
      </trkpt>
      <trkpt lat="44.61129" lon="-0.988">
        <ele>7.8278809</ele>
        <time>2015-10-04T09:04:40Z</time>
      </trkpt>
      <trkpt lat="44.61128" lon="-0.98796">
        <ele>7.8278809</ele>
        <time>2015-10-04T09:04:41Z</time>
      </trkpt>
      <trkpt lat="44.6112" lon="-0.98783">
        <ele>7.347168</ele>
        <time>2015-10-04T09:04:47Z</time>
      </trkpt>
      <trkpt lat="44.61121" lon="-0.98783">
        <ele>5.4245605</ele>
        <time>2015-10-04T09:04:59Z</time>
      </trkpt>
      <trkpt lat="44.6112" lon="-0.98783">
        <ele>6.3858643</ele>
        <time>2015-10-04T09:05:24Z</time>
      </trkpt>
      <trkpt lat="44.6112" lon="-0.98783">
        <ele>8.3085938</ele>
        <time>2015-10-04T09:06:19Z</time>
      </trkpt>
      <trkpt lat="44.61119" lon="-0.98783">
        <ele>6.3858643</ele>
        <time>2015-10-04T09:06:43Z</time>
      </trkpt>
      <trkpt lat="44.61109" lon="-0.98768">
        <ele>6.3858643</ele>
        <time>2015-10-04T09:06:50Z</time>
      </trkpt>
      <trkpt lat="44.61099" lon="-0.98752">
        <ele>5.9052734</ele>
        <time>2015-10-04T09:06:56Z</time>
      </trkpt>
      <trkpt lat="44.61085" lon="-0.98732">
        <ele>5.9052734</ele>
        <time>2015-10-04T09:07:03Z</time>
      </trkpt>
      <trkpt lat="44.61077" lon="-0.98718">
        <ele>5.9052734</ele>
        <time>2015-10-04T09:07:07Z</time>
      </trkpt>
      <trkpt lat="44.61075" lon="-0.98702">
        <ele>5.9052734</ele>
        <time>2015-10-04T09:07:11Z</time>
      </trkpt>
      <trkpt lat="44.61075" lon="-0.98698">
        <ele>5.4245605</ele>
        <time>2015-10-04T09:07:12Z</time>
      </trkpt>
      <trkpt lat="44.61068" lon="-0.9868">
        <ele>6.3858643</ele>
        <time>2015-10-04T09:07:17Z</time>
      </trkpt>
      <trkpt lat="44.61061" lon="-0.98653">
        <ele>6.3858643</ele>
        <time>2015-10-04T09:07:23Z</time>
      </trkpt>
      <trkpt lat="44.61056" lon="-0.98631">
        <ele>6.8664551</ele>
        <time>2015-10-04T09:07:29Z</time>
      </trkpt>
      <trkpt lat="44.61047" lon="-0.9861">
        <ele>8.3085938</ele>
        <time>2015-10-04T09:07:37Z</time>
      </trkpt>
      <trkpt lat="44.61037" lon="-0.98588">
        <ele>11.1925049</ele>
        <time>2015-10-04T09:07:45Z</time>
      </trkpt>
      <trkpt lat="44.61034" lon="-0.9858">
        <ele>10.2312012</ele>
        <time>2015-10-04T09:07:50Z</time>
      </trkpt>
      <trkpt lat="44.61032" lon="-0.98574">
        <ele>9.2698975</ele>
        <time>2015-10-04T09:07:59Z</time>
      </trkpt>
      <trkpt lat="44.61022" lon="-0.98554">
        <ele>10.2312012</ele>
        <time>2015-10-04T09:08:04Z</time>
      </trkpt>
      <trkpt lat="44.61005" lon="-0.9853">
        <ele>10.2312012</ele>
        <time>2015-10-04T09:08:10Z</time>
      </trkpt>
      <trkpt lat="44.60988" lon="-0.98515">
        <ele>9.2698975</ele>
        <time>2015-10-04T09:08:15Z</time>
      </trkpt>
      <trkpt lat="44.60975" lon="-0.98501">
        <ele>8.7891846</ele>
        <time>2015-10-04T09:08:20Z</time>
      </trkpt>
      <trkpt lat="44.60971" lon="-0.98499">
        <ele>8.3085938</ele>
        <time>2015-10-04T09:08:22Z</time>
      </trkpt>
      <trkpt lat="44.60969" lon="-0.98496">
        <ele>10.2312012</ele>
        <time>2015-10-04T09:08:29Z</time>
      </trkpt>
      <trkpt lat="44.60971" lon="-0.98494">
        <ele>12.1538086</ele>
        <time>2015-10-04T09:09:20Z</time>
      </trkpt>
      <trkpt lat="44.6097" lon="-0.98493">
        <ele>13.5958252</ele>
        <time>2015-10-04T09:10:14Z</time>
      </trkpt>
      <trkpt lat="44.60967" lon="-0.98485">
        <ele>13.5958252</ele>
        <time>2015-10-04T09:10:23Z</time>
      </trkpt>
      <trkpt lat="44.60964" lon="-0.98474">
        <ele>14.076416</ele>
        <time>2015-10-04T09:10:28Z</time>
      </trkpt>
      <trkpt lat="44.60961" lon="-0.98469">
        <ele>14.5570068</ele>
        <time>2015-10-04T09:10:31Z</time>
      </trkpt>
      <trkpt lat="44.60958" lon="-0.98461">
        <ele>13.5958252</ele>
        <time>2015-10-04T09:10:35Z</time>
      </trkpt>
      <trkpt lat="44.60945" lon="-0.98442">
        <ele>13.5958252</ele>
        <time>2015-10-04T09:10:40Z</time>
      </trkpt>
      <trkpt lat="44.60935" lon="-0.98422">
        <ele>12.6343994</ele>
        <time>2015-10-04T09:10:44Z</time>
      </trkpt>
      <trkpt lat="44.60926" lon="-0.98402">
        <ele>13.1151123</ele>
        <time>2015-10-04T09:10:48Z</time>
      </trkpt>
      <trkpt lat="44.60922" lon="-0.98391">
        <ele>15.0377197</ele>
        <time>2015-10-04T09:10:50Z</time>
      </trkpt>
      <trkpt lat="44.6091" lon="-0.98367">
        <ele>15.0377197</ele>
        <time>2015-10-04T09:10:55Z</time>
      </trkpt>
      <trkpt lat="44.60903" lon="-0.98352">
        <ele>14.5570068</ele>
        <time>2015-10-04T09:10:58Z</time>
      </trkpt>
      <trkpt lat="44.60885" lon="-0.9832">
        <ele>12.1538086</ele>
        <time>2015-10-04T09:11:05Z</time>
      </trkpt>
      <trkpt lat="44.60875" lon="-0.98303">
        <ele>13.1151123</ele>
        <time>2015-10-04T09:11:10Z</time>
      </trkpt>
      <trkpt lat="44.60866" lon="-0.98293">
        <ele>14.5570068</ele>
        <time>2015-10-04T09:11:15Z</time>
      </trkpt>
      <trkpt lat="44.60852" lon="-0.98278">
        <ele>12.6343994</ele>
        <time>2015-10-04T09:11:22Z</time>
      </trkpt>
      <trkpt lat="44.60846" lon="-0.98255">
        <ele>10.711792</ele>
        <time>2015-10-04T09:11:29Z</time>
      </trkpt>
      <trkpt lat="44.60839" lon="-0.9823">
        <ele>12.6343994</ele>
        <time>2015-10-04T09:11:34Z</time>
      </trkpt>
      <trkpt lat="44.60828" lon="-0.98203">
        <ele>13.5958252</ele>
        <time>2015-10-04T09:11:39Z</time>
      </trkpt>
      <trkpt lat="44.60809" lon="-0.98167">
        <ele>14.5570068</ele>
        <time>2015-10-04T09:11:46Z</time>
      </trkpt>
      <trkpt lat="44.60807" lon="-0.98162">
        <ele>14.5570068</ele>
        <time>2015-10-04T09:11:47Z</time>
      </trkpt>
      <trkpt lat="44.6079" lon="-0.98134">
        <ele>13.5958252</ele>
        <time>2015-10-04T09:11:54Z</time>
      </trkpt>
      <trkpt lat="44.6077" lon="-0.98112">
        <ele>13.1151123</ele>
        <time>2015-10-04T09:12:01Z</time>
      </trkpt>
      <trkpt lat="44.60752" lon="-0.98092">
        <ele>12.1538086</ele>
        <time>2015-10-04T09:12:06Z</time>
      </trkpt>
      <trkpt lat="44.6074" lon="-0.98081">
        <ele>12.1538086</ele>
        <time>2015-10-04T09:12:09Z</time>
      </trkpt>
      <trkpt lat="44.60719" lon="-0.98052">
        <ele>11.6732178</ele>
        <time>2015-10-04T09:12:15Z</time>
      </trkpt>
      <trkpt lat="44.60701" lon="-0.98024">
        <ele>12.6343994</ele>
        <time>2015-10-04T09:12:20Z</time>
      </trkpt>
      <trkpt lat="44.60688" lon="-0.98004">
        <ele>12.6343994</ele>
        <time>2015-10-04T09:12:24Z</time>
      </trkpt>
      <trkpt lat="44.60683" lon="-0.97992">
        <ele>12.6343994</ele>
        <time>2015-10-04T09:12:27Z</time>
      </trkpt>
      <trkpt lat="44.60676" lon="-0.97982">
        <ele>11.6732178</ele>
        <time>2015-10-04T09:12:31Z</time>
      </trkpt>
      <trkpt lat="44.60667" lon="-0.97968">
        <ele>11.1925049</ele>
        <time>2015-10-04T09:12:36Z</time>
      </trkpt>
      <trkpt lat="44.60658" lon="-0.97942">
        <ele>15.0377197</ele>
        <time>2015-10-04T09:12:41Z</time>
      </trkpt>
      <trkpt lat="44.6065" lon="-0.97918">
        <ele>17.4411621</ele>
        <time>2015-10-04T09:12:46Z</time>
      </trkpt>
      <trkpt lat="44.60655" lon="-0.97899">
        <ele>14.5570068</ele>
        <time>2015-10-04T09:12:50Z</time>
      </trkpt>
      <trkpt lat="44.60658" lon="-0.97894">
        <ele>14.076416</ele>
        <time>2015-10-04T09:12:51Z</time>
      </trkpt>
      <trkpt lat="44.60661" lon="-0.97866">
        <ele>16.9604492</ele>
        <time>2015-10-04T09:12:56Z</time>
      </trkpt>
      <trkpt lat="44.60652" lon="-0.97852">
        <ele>15.5184326</ele>
        <time>2015-10-04T09:13:00Z</time>
      </trkpt>
      <trkpt lat="44.60637" lon="-0.97851">
        <ele>12.6343994</ele>
        <time>2015-10-04T09:13:04Z</time>
      </trkpt>
      <trkpt lat="44.60626" lon="-0.97834">
        <ele>14.076416</ele>
        <time>2015-10-04T09:13:08Z</time>
      </trkpt>
      <trkpt lat="44.60619" lon="-0.97824">
        <ele>15.0377197</ele>
        <time>2015-10-04T09:13:10Z</time>
      </trkpt>
      <trkpt lat="44.60599" lon="-0.97798">
        <ele>16.9604492</ele>
        <time>2015-10-04T09:13:15Z</time>
      </trkpt>
      <trkpt lat="44.60573" lon="-0.97755">
        <ele>18.8830566</ele>
        <time>2015-10-04T09:13:22Z</time>
      </trkpt>
      <trkpt lat="44.60559" lon="-0.97732">
        <ele>19.8443604</ele>
        <time>2015-10-04T09:13:26Z</time>
      </trkpt>
      <trkpt lat="44.6056" lon="-0.9772">
        <ele>19.3637695</ele>
        <time>2015-10-04T09:13:30Z</time>
      </trkpt>
      <trkpt lat="44.60563" lon="-0.97716">
        <ele>17.4411621</ele>
        <time>2015-10-04T09:13:33Z</time>
      </trkpt>
      <trkpt lat="44.60567" lon="-0.97721">
        <ele>13.1151123</ele>
        <time>2015-10-04T09:13:48Z</time>
      </trkpt>
      <trkpt lat="44.60563" lon="-0.97714">
        <ele>14.5570068</ele>
        <time>2015-10-04T09:13:52Z</time>
      </trkpt>
      <trkpt lat="44.60563" lon="-0.97712">
        <ele>13.1151123</ele>
        <time>2015-10-04T09:13:54Z</time>
      </trkpt>
      <trkpt lat="44.60567" lon="-0.97715">
        <ele>10.2312012</ele>
        <time>2015-10-04T09:13:58Z</time>
      </trkpt>
      <trkpt lat="44.60564" lon="-0.97712">
        <ele>9.7506104</ele>
        <time>2015-10-04T09:14:07Z</time>
      </trkpt>
      <trkpt lat="44.6056" lon="-0.97703">
        <ele>17.9217529</ele>
        <time>2015-10-04T09:14:41Z</time>
      </trkpt>
      <trkpt lat="44.60553" lon="-0.97693">
        <ele>17.4411621</ele>
        <time>2015-10-04T09:14:46Z</time>
      </trkpt>
      <trkpt lat="44.60541" lon="-0.97677">
        <ele>16.9604492</ele>
        <time>2015-10-04T09:14:51Z</time>
      </trkpt>
      <trkpt lat="44.60527" lon="-0.97659">
        <ele>15.9990234</ele>
        <time>2015-10-04T09:14:55Z</time>
      </trkpt>
      <trkpt lat="44.60513" lon="-0.97635">
        <ele>15.0377197</ele>
        <time>2015-10-04T09:14:59Z</time>
      </trkpt>
      <trkpt lat="44.60496" lon="-0.9761">
        <ele>15.5184326</ele>
        <time>2015-10-04T09:15:03Z</time>
      </trkpt>
      <trkpt lat="44.60473" lon="-0.97577">
        <ele>15.9990234</ele>
        <time>2015-10-04T09:15:09Z</time>
      </trkpt>
      <trkpt lat="44.60454" lon="-0.97553">
        <ele>14.076416</ele>
        <time>2015-10-04T09:15:14Z</time>
      </trkpt>
      <trkpt lat="44.60435" lon="-0.97527">
        <ele>12.6343994</ele>
        <time>2015-10-04T09:15:19Z</time>
      </trkpt>
      <trkpt lat="44.60422" lon="-0.9751">
        <ele>11.1925049</ele>
        <time>2015-10-04T09:15:23Z</time>
      </trkpt>
      <trkpt lat="44.60421" lon="-0.97505">
        <ele>10.711792</ele>
        <time>2015-10-04T09:15:24Z</time>
      </trkpt>
      <trkpt lat="44.60421" lon="-0.9745">
        <ele>7.347168</ele>
        <time>2015-10-04T09:15:31Z</time>
      </trkpt>
      <trkpt lat="44.6042" lon="-0.97442">
        <ele>6.8664551</ele>
        <time>2015-10-04T09:15:32Z</time>
      </trkpt>
      <trkpt lat="44.60421" lon="-0.9742">
        <ele>6.3858643</ele>
        <time>2015-10-04T09:15:35Z</time>
      </trkpt>
      <trkpt lat="44.60417" lon="-0.97369">
        <ele>8.3085938</ele>
        <time>2015-10-04T09:15:41Z</time>
      </trkpt>
      <trkpt lat="44.60417" lon="-0.97345">
        <ele>8.3085938</ele>
        <time>2015-10-04T09:15:44Z</time>
      </trkpt>
      <trkpt lat="44.60411" lon="-0.97306">
        <ele>9.2698975</ele>
        <time>2015-10-04T09:15:49Z</time>
      </trkpt>
      <trkpt lat="44.60395" lon="-0.97272">
        <ele>12.6343994</ele>
        <time>2015-10-04T09:15:54Z</time>
      </trkpt>
      <trkpt lat="44.60388" lon="-0.97261">
        <ele>12.6343994</ele>
        <time>2015-10-04T09:15:56Z</time>
      </trkpt>
      <trkpt lat="44.60374" lon="-0.97219">
        <ele>12.6343994</ele>
        <time>2015-10-04T09:16:02Z</time>
      </trkpt>
      <trkpt lat="44.60365" lon="-0.9718">
        <ele>11.6732178</ele>
        <time>2015-10-04T09:16:07Z</time>
      </trkpt>
      <trkpt lat="44.60357" lon="-0.9713">
        <ele>10.711792</ele>
        <time>2015-10-04T09:16:13Z</time>
      </trkpt>
      <trkpt lat="44.60347" lon="-0.9709">
        <ele>11.6732178</ele>
        <time>2015-10-04T09:16:19Z</time>
      </trkpt>
      <trkpt lat="44.60346" lon="-0.97084">
        <ele>12.1538086</ele>
        <time>2015-10-04T09:16:20Z</time>
      </trkpt>
      <trkpt lat="44.60343" lon="-0.97049">
        <ele>14.076416</ele>
        <time>2015-10-04T09:16:25Z</time>
      </trkpt>
      <trkpt lat="44.6034" lon="-0.97028">
        <ele>15.0377197</ele>
        <time>2015-10-04T09:16:28Z</time>
      </trkpt>
      <trkpt lat="44.60337" lon="-0.96999">
        <ele>15.5184326</ele>
        <time>2015-10-04T09:16:32Z</time>
      </trkpt>
      <trkpt lat="44.60334" lon="-0.96986">
        <ele>15.9990234</ele>
        <time>2015-10-04T09:16:34Z</time>
      </trkpt>
      <trkpt lat="44.60331" lon="-0.96975">
        <ele>16.4797363</ele>
        <time>2015-10-04T09:16:36Z</time>
      </trkpt>
      <trkpt lat="44.60336" lon="-0.96947">
        <ele>15.5184326</ele>
        <time>2015-10-04T09:16:41Z</time>
      </trkpt>
      <trkpt lat="44.60341" lon="-0.96931">
        <ele>14.5570068</ele>
        <time>2015-10-04T09:16:44Z</time>
      </trkpt>
      <trkpt lat="44.60343" lon="-0.96906">
        <ele>13.1151123</ele>
        <time>2015-10-04T09:16:48Z</time>
      </trkpt>
      <trkpt lat="44.60341" lon="-0.96883">
        <ele>11.6732178</ele>
        <time>2015-10-04T09:16:51Z</time>
      </trkpt>
      <trkpt lat="44.60336" lon="-0.9685">
        <ele>11.6732178</ele>
        <time>2015-10-04T09:16:55Z</time>
      </trkpt>
      <trkpt lat="44.60335" lon="-0.96828">
        <ele>10.711792</ele>
        <time>2015-10-04T09:16:58Z</time>
      </trkpt>
      <trkpt lat="44.60338" lon="-0.96795">
        <ele>8.3085938</ele>
        <time>2015-10-04T09:17:03Z</time>
      </trkpt>
      <trkpt lat="44.60342" lon="-0.96773">
        <ele>7.347168</ele>
        <time>2015-10-04T09:17:06Z</time>
      </trkpt>
      <trkpt lat="44.60343" lon="-0.96751">
        <ele>6.8664551</ele>
        <time>2015-10-04T09:17:09Z</time>
      </trkpt>
      <trkpt lat="44.60343" lon="-0.96729">
        <ele>6.3858643</ele>
        <time>2015-10-04T09:17:12Z</time>
      </trkpt>
      <trkpt lat="44.60348" lon="-0.96692">
        <ele>6.8664551</ele>
        <time>2015-10-04T09:17:17Z</time>
      </trkpt>
      <trkpt lat="44.60357" lon="-0.96666">
        <ele>7.347168</ele>
        <time>2015-10-04T09:17:21Z</time>
      </trkpt>
      <trkpt lat="44.60359" lon="-0.96645">
        <ele>8.3085938</ele>
        <time>2015-10-04T09:17:25Z</time>
      </trkpt>
      <trkpt lat="44.60351" lon="-0.96633">
        <ele>8.7891846</ele>
        <time>2015-10-04T09:17:29Z</time>
      </trkpt>
      <trkpt lat="44.60345" lon="-0.96627">
        <ele>9.2698975</ele>
        <time>2015-10-04T09:17:31Z</time>
      </trkpt>
      <trkpt lat="44.60333" lon="-0.96613">
        <ele>11.1925049</ele>
        <time>2015-10-04T09:17:36Z</time>
      </trkpt>
      <trkpt lat="44.60321" lon="-0.96593">
        <ele>14.076416</ele>
        <time>2015-10-04T09:17:42Z</time>
      </trkpt>
      <trkpt lat="44.60314" lon="-0.9657">
        <ele>15.0377197</ele>
        <time>2015-10-04T09:17:47Z</time>
      </trkpt>
      <trkpt lat="44.60308" lon="-0.96526">
        <ele>15.9990234</ele>
        <time>2015-10-04T09:17:55Z</time>
      </trkpt>
      <trkpt lat="44.60302" lon="-0.96481">
        <ele>15.9990234</ele>
        <time>2015-10-04T09:18:03Z</time>
      </trkpt>
      <trkpt lat="44.60299" lon="-0.96445">
        <ele>14.076416</ele>
        <time>2015-10-04T09:18:09Z</time>
      </trkpt>
      <trkpt lat="44.60299" lon="-0.96392">
        <ele>10.711792</ele>
        <time>2015-10-04T09:18:17Z</time>
      </trkpt>
      <trkpt lat="44.60301" lon="-0.96338">
        <ele>8.7891846</ele>
        <time>2015-10-04T09:18:25Z</time>
      </trkpt>
      <trkpt lat="44.60302" lon="-0.96324">
        <ele>8.7891846</ele>
        <time>2015-10-04T09:18:27Z</time>
      </trkpt>
      <trkpt lat="44.60301" lon="-0.96303">
        <ele>7.8278809</ele>
        <time>2015-10-04T09:18:30Z</time>
      </trkpt>
      <trkpt lat="44.60308" lon="-0.9627">
        <ele>7.8278809</ele>
        <time>2015-10-04T09:18:35Z</time>
      </trkpt>
      <trkpt lat="44.60326" lon="-0.96246">
        <ele>9.2698975</ele>
        <time>2015-10-04T09:18:40Z</time>
      </trkpt>
      <trkpt lat="44.60333" lon="-0.9624">
        <ele>9.7506104</ele>
        <time>2015-10-04T09:18:42Z</time>
      </trkpt>
      <trkpt lat="44.6035" lon="-0.96232">
        <ele>9.2698975</ele>
        <time>2015-10-04T09:18:46Z</time>
      </trkpt>
      <trkpt lat="44.60359" lon="-0.96227">
        <ele>8.3085938</ele>
        <time>2015-10-04T09:18:48Z</time>
      </trkpt>
      <trkpt lat="44.60373" lon="-0.96211">
        <ele>7.347168</ele>
        <time>2015-10-04T09:18:52Z</time>
      </trkpt>
      <trkpt lat="44.60382" lon="-0.96179">
        <ele>9.7506104</ele>
        <time>2015-10-04T09:18:58Z</time>
      </trkpt>
      <trkpt lat="44.60382" lon="-0.96169">
        <ele>10.711792</ele>
        <time>2015-10-04T09:19:00Z</time>
      </trkpt>
      <trkpt lat="44.60381" lon="-0.96162">
        <ele>11.1925049</ele>
        <time>2015-10-04T09:19:02Z</time>
      </trkpt>
      <trkpt lat="44.60379" lon="-0.96145">
        <ele>10.711792</ele>
        <time>2015-10-04T09:19:11Z</time>
      </trkpt>
      <trkpt lat="44.60382" lon="-0.96143">
        <ele>13.5958252</ele>
        <time>2015-10-04T09:19:22Z</time>
      </trkpt>
      <trkpt lat="44.60383" lon="-0.96142">
        <ele>17.9217529</ele>
        <time>2015-10-04T09:20:38Z</time>
      </trkpt>
      <trkpt lat="44.60386" lon="-0.96142">
        <ele>21.7669678</ele>
        <time>2015-10-04T09:20:50Z</time>
      </trkpt>
      <trkpt lat="44.6039" lon="-0.96145">
        <ele>18.4023438</ele>
        <time>2015-10-04T09:22:18Z</time>
      </trkpt>
      <trkpt lat="44.60388" lon="-0.96145">
        <ele>11.1925049</ele>
        <time>2015-10-04T09:22:39Z</time>
      </trkpt>
      <trkpt lat="44.60387" lon="-0.96148">
        <ele>9.7506104</ele>
        <time>2015-10-04T09:22:41Z</time>
      </trkpt>
      <trkpt lat="44.60391" lon="-0.96169">
        <ele>4.4632568</ele>
        <time>2015-10-04T09:22:47Z</time>
      </trkpt>
      <trkpt lat="44.60402" lon="-0.96189">
        <ele>0.618042</ele>
        <time>2015-10-04T09:22:52Z</time>
      </trkpt>
      <trkpt lat="44.60408" lon="-0.96201">
        <ele>-0.3433838</ele>
        <time>2015-10-04T09:22:57Z</time>
      </trkpt>
      <trkpt lat="44.60408" lon="-0.96205">
        <ele>0.1374512</ele>
        <time>2015-10-04T09:23:01Z</time>
      </trkpt>
      <trkpt lat="44.60417" lon="-0.96215">
        <ele>3.0212402</ele>
        <time>2015-10-04T09:23:08Z</time>
      </trkpt>
      <trkpt lat="44.60435" lon="-0.9622">
        <ele>8.3085938</ele>
        <time>2015-10-04T09:23:15Z</time>
      </trkpt>
      <trkpt lat="44.60453" lon="-0.96229">
        <ele>10.2312012</ele>
        <time>2015-10-04T09:23:20Z</time>
      </trkpt>
      <trkpt lat="44.60454" lon="-0.9623">
        <ele>14.076416</ele>
        <time>2015-10-04T09:23:23Z</time>
      </trkpt>
      <trkpt lat="44.60439" lon="-0.9622">
        <ele>18.4023438</ele>
        <time>2015-10-04T09:23:29Z</time>
      </trkpt>
      <trkpt lat="44.60417" lon="-0.96212">
        <ele>17.4411621</ele>
        <time>2015-10-04T09:23:35Z</time>
      </trkpt>
      <trkpt lat="44.60397" lon="-0.96198">
        <ele>14.076416</ele>
        <time>2015-10-04T09:23:41Z</time>
      </trkpt>
      <trkpt lat="44.60387" lon="-0.96187">
        <ele>13.1151123</ele>
        <time>2015-10-04T09:23:46Z</time>
      </trkpt>
      <trkpt lat="44.60385" lon="-0.96186">
        <ele>14.076416</ele>
        <time>2015-10-04T09:23:50Z</time>
      </trkpt>
      <trkpt lat="44.60378" lon="-0.96198">
        <ele>12.1538086</ele>
        <time>2015-10-04T09:23:57Z</time>
      </trkpt>
      <trkpt lat="44.60362" lon="-0.9622">
        <ele>6.8664551</ele>
        <time>2015-10-04T09:24:04Z</time>
      </trkpt>
      <trkpt lat="44.60345" lon="-0.96233">
        <ele>6.8664551</ele>
        <time>2015-10-04T09:24:10Z</time>
      </trkpt>
      <trkpt lat="44.60338" lon="-0.96238">
        <ele>6.3858643</ele>
        <time>2015-10-04T09:24:15Z</time>
      </trkpt>
      <trkpt lat="44.6034" lon="-0.96242">
        <ele>2.0600586</ele>
        <time>2015-10-04T09:26:27Z</time>
      </trkpt>
      <trkpt lat="44.60346" lon="-0.96236">
        <ele>3.5019531</ele>
        <time>2015-10-04T09:26:32Z</time>
      </trkpt>
      <trkpt lat="44.60359" lon="-0.96228">
        <ele>3.5019531</ele>
        <time>2015-10-04T09:26:36Z</time>
      </trkpt>
      <trkpt lat="44.60379" lon="-0.96201">
        <ele>5.9052734</ele>
        <time>2015-10-04T09:26:42Z</time>
      </trkpt>
      <trkpt lat="44.60382" lon="-0.96174">
        <ele>7.347168</ele>
        <time>2015-10-04T09:26:46Z</time>
      </trkpt>
      <trkpt lat="44.60378" lon="-0.9615">
        <ele>8.3085938</ele>
        <time>2015-10-04T09:26:50Z</time>
      </trkpt>
      <trkpt lat="44.60378" lon="-0.96143">
        <ele>10.711792</ele>
        <time>2015-10-04T09:26:54Z</time>
      </trkpt>
      <trkpt lat="44.60379" lon="-0.96141">
        <ele>10.2312012</ele>
        <time>2015-10-04T09:26:59Z</time>
      </trkpt>
      <trkpt lat="44.6038" lon="-0.96139">
        <ele>9.7506104</ele>
        <time>2015-10-04T09:27:01Z</time>
      </trkpt>
      <trkpt lat="44.60377" lon="-0.96123">
        <ele>12.1538086</ele>
        <time>2015-10-04T09:27:06Z</time>
      </trkpt>
      <trkpt lat="44.60367" lon="-0.96096">
        <ele>17.9217529</ele>
        <time>2015-10-04T09:27:12Z</time>
      </trkpt>
      <trkpt lat="44.6036" lon="-0.96081">
        <ele>22.7282715</ele>
        <time>2015-10-04T09:27:17Z</time>
      </trkpt>
      <trkpt lat="44.6035" lon="-0.96064">
        <ele>25.1317139</ele>
        <time>2015-10-04T09:27:23Z</time>
      </trkpt>
      <trkpt lat="44.60336" lon="-0.96043">
        <ele>27.0543213</ele>
        <time>2015-10-04T09:27:28Z</time>
      </trkpt>
      <trkpt lat="44.60319" lon="-0.96022">
        <ele>28.9769287</ele>
        <time>2015-10-04T09:27:34Z</time>
      </trkpt>
      <trkpt lat="44.60304" lon="-0.95997">
        <ele>29.9381104</ele>
        <time>2015-10-04T09:27:40Z</time>
      </trkpt>
      <trkpt lat="44.60295" lon="-0.95975">
        <ele>30.8995361</ele>
        <time>2015-10-04T09:27:45Z</time>
      </trkpt>
      <trkpt lat="44.60278" lon="-0.95941">
        <ele>33.7834473</ele>
        <time>2015-10-04T09:27:51Z</time>
      </trkpt>
      <trkpt lat="44.6026" lon="-0.95912">
        <ele>27.0543213</ele>
        <time>2015-10-04T09:27:57Z</time>
      </trkpt>
      <trkpt lat="44.60252" lon="-0.95905">
        <ele>24.651001</ele>
        <time>2015-10-04T09:27:59Z</time>
      </trkpt>
      <trkpt lat="44.60232" lon="-0.95887">
        <ele>21.286377</ele>
        <time>2015-10-04T09:28:04Z</time>
      </trkpt>
      <trkpt lat="44.60229" lon="-0.95882">
        <ele>20.3249512</ele>
        <time>2015-10-04T09:28:05Z</time>
      </trkpt>
      <trkpt lat="44.60216" lon="-0.95858">
        <ele>19.3637695</ele>
        <time>2015-10-04T09:28:09Z</time>
      </trkpt>
      <trkpt lat="44.60209" lon="-0.95826">
        <ele>17.4411621</ele>
        <time>2015-10-04T09:28:14Z</time>
      </trkpt>
      <trkpt lat="44.60212" lon="-0.9582">
        <ele>16.4797363</ele>
        <time>2015-10-04T09:28:15Z</time>
      </trkpt>
      <trkpt lat="44.60218" lon="-0.95808">
        <ele>15.5184326</ele>
        <time>2015-10-04T09:28:17Z</time>
      </trkpt>
      <trkpt lat="44.60228" lon="-0.95784">
        <ele>12.1538086</ele>
        <time>2015-10-04T09:28:21Z</time>
      </trkpt>
      <trkpt lat="44.60241" lon="-0.95744">
        <ele>5.4245605</ele>
        <time>2015-10-04T09:28:27Z</time>
      </trkpt>
      <trkpt lat="44.6024" lon="-0.9573">
        <ele>3.982666</ele>
        <time>2015-10-04T09:28:29Z</time>
      </trkpt>
      <trkpt lat="44.60225" lon="-0.95648">
        <ele>1.0986328</ele>
        <time>2015-10-04T09:28:41Z</time>
      </trkpt>
      <trkpt lat="44.60217" lon="-0.95597">
        <ele>2.5406494</ele>
        <time>2015-10-04T09:28:47Z</time>
      </trkpt>
      <trkpt lat="44.60215" lon="-0.95581">
        <ele>2.5406494</ele>
        <time>2015-10-04T09:28:49Z</time>
      </trkpt>
      <trkpt lat="44.60201" lon="-0.9554">
        <ele>3.0212402</ele>
        <time>2015-10-04T09:28:55Z</time>
      </trkpt>
      <trkpt lat="44.60171" lon="-0.95484">
        <ele>5.9052734</ele>
        <time>2015-10-04T09:29:04Z</time>
      </trkpt>
      <trkpt lat="44.60147" lon="-0.95434">
        <ele>9.7506104</ele>
        <time>2015-10-04T09:29:12Z</time>
      </trkpt>
      <trkpt lat="44.60129" lon="-0.95403">
        <ele>13.5958252</ele>
        <time>2015-10-04T09:29:18Z</time>
      </trkpt>
      <trkpt lat="44.60124" lon="-0.95384">
        <ele>12.6343994</ele>
        <time>2015-10-04T09:29:22Z</time>
      </trkpt>
      <trkpt lat="44.6012" lon="-0.95366">
        <ele>11.6732178</ele>
        <time>2015-10-04T09:29:28Z</time>
      </trkpt>
      <trkpt lat="44.6011" lon="-0.95338">
        <ele>13.5958252</ele>
        <time>2015-10-04T09:29:34Z</time>
      </trkpt>
      <trkpt lat="44.60102" lon="-0.95308">
        <ele>14.5570068</ele>
        <time>2015-10-04T09:29:39Z</time>
      </trkpt>
      <trkpt lat="44.60099" lon="-0.95282">
        <ele>15.0377197</ele>
        <time>2015-10-04T09:29:45Z</time>
      </trkpt>
      <trkpt lat="44.60095" lon="-0.9525">
        <ele>16.4797363</ele>
        <time>2015-10-04T09:29:53Z</time>
      </trkpt>
      <trkpt lat="44.60087" lon="-0.95219">
        <ele>19.8443604</ele>
        <time>2015-10-04T09:30:00Z</time>
      </trkpt>
      <trkpt lat="44.60077" lon="-0.95188">
        <ele>17.9217529</ele>
        <time>2015-10-04T09:30:06Z</time>
      </trkpt>
      <trkpt lat="44.6007" lon="-0.95161">
        <ele>17.4411621</ele>
        <time>2015-10-04T09:30:10Z</time>
      </trkpt>
      <trkpt lat="44.60066" lon="-0.95138">
        <ele>18.4023438</ele>
        <time>2015-10-04T09:30:13Z</time>
      </trkpt>
      <trkpt lat="44.6006" lon="-0.9512">
        <ele>18.4023438</ele>
        <time>2015-10-04T09:30:16Z</time>
      </trkpt>
      <trkpt lat="44.60044" lon="-0.95091">
        <ele>18.8830566</ele>
        <time>2015-10-04T09:30:22Z</time>
      </trkpt>
      <trkpt lat="44.60033" lon="-0.95062">
        <ele>18.4023438</ele>
        <time>2015-10-04T09:30:27Z</time>
      </trkpt>
      <trkpt lat="44.60018" lon="-0.95025">
        <ele>19.3637695</ele>
        <time>2015-10-04T09:30:33Z</time>
      </trkpt>
      <trkpt lat="44.60016" lon="-0.95018">
        <ele>19.8443604</ele>
        <time>2015-10-04T09:30:34Z</time>
      </trkpt>
      <trkpt lat="44.60011" lon="-0.94995">
        <ele>21.286377</ele>
        <time>2015-10-04T09:30:37Z</time>
      </trkpt>
      <trkpt lat="44.60013" lon="-0.94969">
        <ele>21.286377</ele>
        <time>2015-10-04T09:30:41Z</time>
      </trkpt>
      <trkpt lat="44.60018" lon="-0.9494">
        <ele>20.3249512</ele>
        <time>2015-10-04T09:30:46Z</time>
      </trkpt>
      <trkpt lat="44.60027" lon="-0.94912">
        <ele>22.2475586</ele>
        <time>2015-10-04T09:30:52Z</time>
      </trkpt>
      <trkpt lat="44.60033" lon="-0.94888">
        <ele>17.4411621</ele>
        <time>2015-10-04T09:30:57Z</time>
      </trkpt>
      <trkpt lat="44.60036" lon="-0.94858">
        <ele>17.9217529</ele>
        <time>2015-10-04T09:31:03Z</time>
      </trkpt>
      <trkpt lat="44.60039" lon="-0.9483">
        <ele>20.3249512</ele>
        <time>2015-10-04T09:31:09Z</time>
      </trkpt>
      <trkpt lat="44.6004" lon="-0.94798">
        <ele>19.8443604</ele>
        <time>2015-10-04T09:31:15Z</time>
      </trkpt>
      <trkpt lat="44.6004" lon="-0.94766">
        <ele>18.8830566</ele>
        <time>2015-10-04T09:31:22Z</time>
      </trkpt>
      <trkpt lat="44.60036" lon="-0.94734">
        <ele>18.4023438</ele>
        <time>2015-10-04T09:31:28Z</time>
      </trkpt>
      <trkpt lat="44.60025" lon="-0.94689">
        <ele>19.3637695</ele>
        <time>2015-10-04T09:31:36Z</time>
      </trkpt>
      <trkpt lat="44.60014" lon="-0.94652">
        <ele>16.4797363</ele>
        <time>2015-10-04T09:31:44Z</time>
      </trkpt>
      <trkpt lat="44.59999" lon="-0.94607">
        <ele>15.0377197</ele>
        <time>2015-10-04T09:31:53Z</time>
      </trkpt>
      <trkpt lat="44.59993" lon="-0.94592">
        <ele>15.0377197</ele>
        <time>2015-10-04T09:31:56Z</time>
      </trkpt>
      <trkpt lat="44.59979" lon="-0.94543">
        <ele>14.076416</ele>
        <time>2015-10-04T09:32:05Z</time>
      </trkpt>
      <trkpt lat="44.59967" lon="-0.94503">
        <ele>12.1538086</ele>
        <time>2015-10-04T09:32:13Z</time>
      </trkpt>
      <trkpt lat="44.5996" lon="-0.94481">
        <ele>12.1538086</ele>
        <time>2015-10-04T09:32:17Z</time>
      </trkpt>
      <trkpt lat="44.59953" lon="-0.94461">
        <ele>12.1538086</ele>
        <time>2015-10-04T09:32:21Z</time>
      </trkpt>
      <trkpt lat="44.59936" lon="-0.94414">
        <ele>11.6732178</ele>
        <time>2015-10-04T09:32:30Z</time>
      </trkpt>
      <trkpt lat="44.59925" lon="-0.94375">
        <ele>12.1538086</ele>
        <time>2015-10-04T09:32:37Z</time>
      </trkpt>
      <trkpt lat="44.59919" lon="-0.94359">
        <ele>11.1925049</ele>
        <time>2015-10-04T09:32:40Z</time>
      </trkpt>
      <trkpt lat="44.59904" lon="-0.94314">
        <ele>12.6343994</ele>
        <time>2015-10-04T09:32:48Z</time>
      </trkpt>
      <trkpt lat="44.59892" lon="-0.94277">
        <ele>12.6343994</ele>
        <time>2015-10-04T09:32:55Z</time>
      </trkpt>
      <trkpt lat="44.5988" lon="-0.94241">
        <ele>14.076416</ele>
        <time>2015-10-04T09:33:02Z</time>
      </trkpt>
      <trkpt lat="44.59873" lon="-0.94227">
        <ele>15.5184326</ele>
        <time>2015-10-04T09:33:07Z</time>
      </trkpt>
      <trkpt lat="44.59875" lon="-0.94227">
        <ele>14.5570068</ele>
        <time>2015-10-04T09:33:14Z</time>
      </trkpt>
      <trkpt lat="44.59875" lon="-0.94227">
        <ele>14.076416</ele>
        <time>2015-10-04T09:33:15Z</time>
      </trkpt>
      <trkpt lat="44.59872" lon="-0.94232">
        <ele>11.6732178</ele>
        <time>2015-10-04T09:33:23Z</time>
      </trkpt>
      <trkpt lat="44.5987" lon="-0.94216">
        <ele>11.1925049</ele>
        <time>2015-10-04T09:33:30Z</time>
      </trkpt>
      <trkpt lat="44.59878" lon="-0.94196">
        <ele>11.6732178</ele>
        <time>2015-10-04T09:33:35Z</time>
      </trkpt>
      <trkpt lat="44.5989" lon="-0.94168">
        <ele>11.1925049</ele>
        <time>2015-10-04T09:33:41Z</time>
      </trkpt>
      <trkpt lat="44.59904" lon="-0.94143">
        <ele>10.2312012</ele>
        <time>2015-10-04T09:33:46Z</time>
      </trkpt>
      <trkpt lat="44.59909" lon="-0.94131">
        <ele>10.711792</ele>
        <time>2015-10-04T09:33:48Z</time>
      </trkpt>
      <trkpt lat="44.59921" lon="-0.9411">
        <ele>9.2698975</ele>
        <time>2015-10-04T09:33:52Z</time>
      </trkpt>
      <trkpt lat="44.59927" lon="-0.94099">
        <ele>8.3085938</ele>
        <time>2015-10-04T09:33:54Z</time>
      </trkpt>
      <trkpt lat="44.59938" lon="-0.94072">
        <ele>7.8278809</ele>
        <time>2015-10-04T09:34:00Z</time>
      </trkpt>
      <trkpt lat="44.59955" lon="-0.94034">
        <ele>9.7506104</ele>
        <time>2015-10-04T09:34:06Z</time>
      </trkpt>
      <trkpt lat="44.59974" lon="-0.93997">
        <ele>8.7891846</ele>
        <time>2015-10-04T09:34:13Z</time>
      </trkpt>
      <trkpt lat="44.59986" lon="-0.93967">
        <ele>10.711792</ele>
        <time>2015-10-04T09:34:20Z</time>
      </trkpt>
      <trkpt lat="44.59986" lon="-0.93964">
        <ele>11.1925049</ele>
        <time>2015-10-04T09:34:22Z</time>
      </trkpt>
      <trkpt lat="44.59993" lon="-0.93955">
        <ele>10.711792</ele>
        <time>2015-10-04T09:34:28Z</time>
      </trkpt>
      <trkpt lat="44.59999" lon="-0.93952">
        <ele>10.2312012</ele>
        <time>2015-10-04T09:34:30Z</time>
      </trkpt>
      <trkpt lat="44.60024" lon="-0.93942">
        <ele>10.711792</ele>
        <time>2015-10-04T09:34:36Z</time>
      </trkpt>
      <trkpt lat="44.60049" lon="-0.93933">
        <ele>10.711792</ele>
        <time>2015-10-04T09:34:41Z</time>
      </trkpt>
      <trkpt lat="44.60078" lon="-0.93916">
        <ele>12.1538086</ele>
        <time>2015-10-04T09:34:47Z</time>
      </trkpt>
      <trkpt lat="44.60098" lon="-0.93892">
        <ele>11.1925049</ele>
        <time>2015-10-04T09:34:52Z</time>
      </trkpt>
      <trkpt lat="44.60117" lon="-0.93858">
        <ele>11.1925049</ele>
        <time>2015-10-04T09:34:59Z</time>
      </trkpt>
      <trkpt lat="44.60132" lon="-0.93831">
        <ele>10.2312012</ele>
        <time>2015-10-04T09:35:05Z</time>
      </trkpt>
      <trkpt lat="44.60146" lon="-0.93809">
        <ele>9.2698975</ele>
        <time>2015-10-04T09:35:11Z</time>
      </trkpt>
      <trkpt lat="44.60155" lon="-0.938">
        <ele>9.2698975</ele>
        <time>2015-10-04T09:35:15Z</time>
      </trkpt>
      <trkpt lat="44.60162" lon="-0.93799">
        <ele>8.3085938</ele>
        <time>2015-10-04T09:35:21Z</time>
      </trkpt>
      <trkpt lat="44.60166" lon="-0.93799">
        <ele>7.347168</ele>
        <time>2015-10-04T09:35:24Z</time>
      </trkpt>
      <trkpt lat="44.6017" lon="-0.93805">
        <ele>5.9052734</ele>
        <time>2015-10-04T09:35:30Z</time>
      </trkpt>
      <trkpt lat="44.60172" lon="-0.93809">
        <ele>4.9438477</ele>
        <time>2015-10-04T09:35:31Z</time>
      </trkpt>
      <trkpt lat="44.60195" lon="-0.93844">
        <ele>4.4632568</ele>
        <time>2015-10-04T09:35:37Z</time>
      </trkpt>
      <trkpt lat="44.602" lon="-0.93849">
        <ele>3.982666</ele>
        <time>2015-10-04T09:35:38Z</time>
      </trkpt>
      <trkpt lat="44.60229" lon="-0.93874">
        <ele>2.0600586</ele>
        <time>2015-10-04T09:35:44Z</time>
      </trkpt>
      <trkpt lat="44.60246" lon="-0.93896">
        <ele>1.5793457</ele>
        <time>2015-10-04T09:35:49Z</time>
      </trkpt>
      <trkpt lat="44.60262" lon="-0.93927">
        <ele>0.1374512</ele>
        <time>2015-10-04T09:35:54Z</time>
      </trkpt>
      <trkpt lat="44.60274" lon="-0.93946">
        <ele>-0.3433838</ele>
        <time>2015-10-04T09:35:57Z</time>
      </trkpt>
      <trkpt lat="44.60288" lon="-0.93972">
        <ele>-1.3046875</ele>
        <time>2015-10-04T09:36:01Z</time>
      </trkpt>
      <trkpt lat="44.60293" lon="-0.93986">
        <ele>-2.2659912</ele>
        <time>2015-10-04T09:36:03Z</time>
      </trkpt>
      <trkpt lat="44.60302" lon="-0.94007">
        <ele>-1.7852783</ele>
        <time>2015-10-04T09:36:07Z</time>
      </trkpt>
      <trkpt lat="44.60309" lon="-0.94019">
        <ele>-1.3046875</ele>
        <time>2015-10-04T09:36:10Z</time>
      </trkpt>
      <trkpt lat="44.60317" lon="-0.94039">
        <ele>-1.7852783</ele>
        <time>2015-10-04T09:36:14Z</time>
      </trkpt>
      <trkpt lat="44.60332" lon="-0.94063">
        <ele>-4.1885986</ele>
        <time>2015-10-04T09:36:20Z</time>
      </trkpt>
      <trkpt lat="44.60337" lon="-0.94066">
        <ele>-4.1885986</ele>
        <time>2015-10-04T09:36:22Z</time>
      </trkpt>
      <trkpt lat="44.60346" lon="-0.94061">
        <ele>-2.7467041</ele>
        <time>2015-10-04T09:36:26Z</time>
      </trkpt>
      <trkpt lat="44.60349" lon="-0.94067">
        <ele>-2.2659912</ele>
        <time>2015-10-04T09:36:28Z</time>
      </trkpt>
      <trkpt lat="44.60357" lon="-0.94091">
        <ele>-3.7078857</ele>
        <time>2015-10-04T09:36:33Z</time>
      </trkpt>
      <trkpt lat="44.60372" lon="-0.94131">
        <ele>-3.2272949</ele>
        <time>2015-10-04T09:36:39Z</time>
      </trkpt>
      <trkpt lat="44.60374" lon="-0.94137">
        <ele>-3.2272949</ele>
        <time>2015-10-04T09:36:40Z</time>
      </trkpt>
      <trkpt lat="44.60379" lon="-0.9415">
        <ele>-3.7078857</ele>
        <time>2015-10-04T09:36:42Z</time>
      </trkpt>
      <trkpt lat="44.60394" lon="-0.94179">
        <ele>-3.2272949</ele>
        <time>2015-10-04T09:36:47Z</time>
      </trkpt>
      <trkpt lat="44.60413" lon="-0.94206">
        <ele>-2.7467041</ele>
        <time>2015-10-04T09:36:52Z</time>
      </trkpt>
      <trkpt lat="44.60428" lon="-0.94223">
        <ele>-4.1885986</ele>
        <time>2015-10-04T09:36:56Z</time>
      </trkpt>
      <trkpt lat="44.60445" lon="-0.94235">
        <ele>-3.7078857</ele>
        <time>2015-10-04T09:37:00Z</time>
      </trkpt>
      <trkpt lat="44.60451" lon="-0.94238">
        <ele>-3.2272949</ele>
        <time>2015-10-04T09:37:02Z</time>
      </trkpt>
      <trkpt lat="44.60454" lon="-0.94241">
        <ele>-2.2659912</ele>
        <time>2015-10-04T09:37:05Z</time>
      </trkpt>
      <trkpt lat="44.6046" lon="-0.94238">
        <ele>-0.8240967</ele>
        <time>2015-10-04T09:37:11Z</time>
      </trkpt>
      <trkpt lat="44.60465" lon="-0.94235">
        <ele>-0.3433838</ele>
        <time>2015-10-04T09:37:16Z</time>
      </trkpt>
      <trkpt lat="44.60467" lon="-0.94231">
        <ele>0.1374512</ele>
        <time>2015-10-04T09:37:18Z</time>
      </trkpt>
      <trkpt lat="44.60471" lon="-0.94222">
        <ele>1.0986328</ele>
        <time>2015-10-04T09:37:23Z</time>
      </trkpt>
      <trkpt lat="44.60479" lon="-0.94223">
        <ele>1.0986328</ele>
        <time>2015-10-04T09:37:30Z</time>
      </trkpt>
      <trkpt lat="44.60484" lon="-0.94221">
        <ele>1.0986328</ele>
        <time>2015-10-04T09:37:35Z</time>
      </trkpt>
      <trkpt lat="44.60484" lon="-0.94221">
        <ele>0.618042</ele>
        <time>2015-10-04T09:37:36Z</time>
      </trkpt>
      <trkpt lat="44.60491" lon="-0.94216">
        <ele>3.5019531</ele>
        <time>2015-10-04T09:37:44Z</time>
      </trkpt>
      <trkpt lat="44.60492" lon="-0.94216">
        <ele>8.3085938</ele>
        <time>2015-10-04T09:38:51Z</time>
      </trkpt>
      <trkpt lat="44.60494" lon="-0.94233">
        <ele>6.8664551</ele>
        <time>2015-10-04T09:38:57Z</time>
      </trkpt>
      <trkpt lat="44.60495" lon="-0.9425">
        <ele>5.4245605</ele>
        <time>2015-10-04T09:39:01Z</time>
      </trkpt>
      <trkpt lat="44.60495" lon="-0.94279">
        <ele>3.0212402</ele>
        <time>2015-10-04T09:39:08Z</time>
      </trkpt>
      <trkpt lat="44.60497" lon="-0.94308">
        <ele>3.0212402</ele>
        <time>2015-10-04T09:39:14Z</time>
      </trkpt>
      <trkpt lat="44.60499" lon="-0.94322">
        <ele>3.5019531</ele>
        <time>2015-10-04T09:39:18Z</time>
      </trkpt>
      <trkpt lat="44.605" lon="-0.94338">
        <ele>3.5019531</ele>
        <time>2015-10-04T09:39:23Z</time>
      </trkpt>
      <trkpt lat="44.60501" lon="-0.94354">
        <ele>1.0986328</ele>
        <time>2015-10-04T09:39:27Z</time>
      </trkpt>
      <trkpt lat="44.60499" lon="-0.94356">
        <ele>0.618042</ele>
        <time>2015-10-04T09:39:28Z</time>
      </trkpt>
      <trkpt lat="44.60495" lon="-0.94376">
        <ele>-0.3433838</ele>
        <time>2015-10-04T09:39:33Z</time>
      </trkpt>
      <trkpt lat="44.60495" lon="-0.94393">
        <ele>-0.3433838</ele>
        <time>2015-10-04T09:39:36Z</time>
      </trkpt>
      <trkpt lat="44.60494" lon="-0.94419">
        <ele>-1.3046875</ele>
        <time>2015-10-04T09:39:42Z</time>
      </trkpt>
      <trkpt lat="44.60494" lon="-0.9444">
        <ele>-0.8240967</ele>
        <time>2015-10-04T09:39:46Z</time>
      </trkpt>
      <trkpt lat="44.60492" lon="-0.9445">
        <ele>-0.3433838</ele>
        <time>2015-10-04T09:39:50Z</time>
      </trkpt>
      <trkpt lat="44.60482" lon="-0.94456">
        <ele>3.982666</ele>
        <time>2015-10-04T09:40:04Z</time>
      </trkpt>
      <trkpt lat="44.60479" lon="-0.94467">
        <ele>3.5019531</ele>
        <time>2015-10-04T09:40:09Z</time>
      </trkpt>
      <trkpt lat="44.60476" lon="-0.94494">
        <ele>1.5793457</ele>
        <time>2015-10-04T09:40:14Z</time>
      </trkpt>
      <trkpt lat="44.60474" lon="-0.94518">
        <ele>1.5793457</ele>
        <time>2015-10-04T09:40:19Z</time>
      </trkpt>
      <trkpt lat="44.60474" lon="-0.94539">
        <ele>1.5793457</ele>
        <time>2015-10-04T09:40:24Z</time>
      </trkpt>
      <trkpt lat="44.60473" lon="-0.94544">
        <ele>2.0600586</ele>
        <time>2015-10-04T09:40:25Z</time>
      </trkpt>
      <trkpt lat="44.60476" lon="-0.94575">
        <ele>2.5406494</ele>
        <time>2015-10-04T09:40:30Z</time>
      </trkpt>
      <trkpt lat="44.60482" lon="-0.94591">
        <ele>2.5406494</ele>
        <time>2015-10-04T09:40:34Z</time>
      </trkpt>
      <trkpt lat="44.60484" lon="-0.9462">
        <ele>0.618042</ele>
        <time>2015-10-04T09:40:38Z</time>
      </trkpt>
      <trkpt lat="44.60481" lon="-0.94654">
        <ele>-0.3433838</ele>
        <time>2015-10-04T09:40:42Z</time>
      </trkpt>
      <trkpt lat="44.60476" lon="-0.94691">
        <ele>-0.3433838</ele>
        <time>2015-10-04T09:40:47Z</time>
      </trkpt>
      <trkpt lat="44.60472" lon="-0.94721">
        <ele>-0.3433838</ele>
        <time>2015-10-04T09:40:51Z</time>
      </trkpt>
      <trkpt lat="44.60473" lon="-0.94735">
        <ele>0.1374512</ele>
        <time>2015-10-04T09:40:53Z</time>
      </trkpt>
      <trkpt lat="44.60478" lon="-0.94759">
        <ele>0.618042</ele>
        <time>2015-10-04T09:40:57Z</time>
      </trkpt>
      <trkpt lat="44.60493" lon="-0.94773">
        <ele>1.0986328</ele>
        <time>2015-10-04T09:41:02Z</time>
      </trkpt>
      <trkpt lat="44.60496" lon="-0.94777">
        <ele>1.5793457</ele>
        <time>2015-10-04T09:41:03Z</time>
      </trkpt>
      <trkpt lat="44.60508" lon="-0.94797">
        <ele>3.0212402</ele>
        <time>2015-10-04T09:41:07Z</time>
      </trkpt>
      <trkpt lat="44.60521" lon="-0.94817">
        <ele>4.4632568</ele>
        <time>2015-10-04T09:41:11Z</time>
      </trkpt>
      <trkpt lat="44.60533" lon="-0.94832">
        <ele>6.8664551</ele>
        <time>2015-10-04T09:41:14Z</time>
      </trkpt>
      <trkpt lat="44.6055" lon="-0.94843">
        <ele>10.711792</ele>
        <time>2015-10-04T09:41:18Z</time>
      </trkpt>
      <trkpt lat="44.60567" lon="-0.94857">
        <ele>9.7506104</ele>
        <time>2015-10-04T09:41:23Z</time>
      </trkpt>
      <trkpt lat="44.60579" lon="-0.94867">
        <ele>8.7891846</ele>
        <time>2015-10-04T09:41:26Z</time>
      </trkpt>
      <trkpt lat="44.60592" lon="-0.94875">
        <ele>7.8278809</ele>
        <time>2015-10-04T09:41:30Z</time>
      </trkpt>
      <trkpt lat="44.6061" lon="-0.9488">
        <ele>2.0600586</ele>
        <time>2015-10-04T09:41:37Z</time>
      </trkpt>
      <trkpt lat="44.60627" lon="-0.94887">
        <ele>0.1374512</ele>
        <time>2015-10-04T09:41:42Z</time>
      </trkpt>
      <trkpt lat="44.60633" lon="-0.94887">
        <ele>0.1374512</ele>
        <time>2015-10-04T09:41:44Z</time>
      </trkpt>
      <trkpt lat="44.60645" lon="-0.94898">
        <ele>-2.2659912</ele>
        <time>2015-10-04T09:41:49Z</time>
      </trkpt>
      <trkpt lat="44.60659" lon="-0.94908">
        <ele>-3.2272949</ele>
        <time>2015-10-04T09:41:54Z</time>
      </trkpt>
      <trkpt lat="44.6067" lon="-0.94913">
        <ele>-5.1499023</ele>
        <time>2015-10-04T09:41:58Z</time>
      </trkpt>
      <trkpt lat="44.60681" lon="-0.9492">
        <ele>-6.5919189</ele>
        <time>2015-10-04T09:42:03Z</time>
      </trkpt>
      <trkpt lat="44.60689" lon="-0.94928">
        <ele>-6.1112061</ele>
        <time>2015-10-04T09:42:07Z</time>
      </trkpt>
      <trkpt lat="44.60698" lon="-0.94931">
        <ele>-7.0725098</ele>
        <time>2015-10-04T09:42:11Z</time>
      </trkpt>
      <trkpt lat="44.60708" lon="-0.94938">
        <ele>-5.6304932</ele>
        <time>2015-10-04T09:42:16Z</time>
      </trkpt>
      <trkpt lat="44.60713" lon="-0.94943">
        <ele>-6.1112061</ele>
        <time>2015-10-04T09:42:18Z</time>
      </trkpt>
      <trkpt lat="44.60729" lon="-0.94953">
        <ele>-5.6304932</ele>
        <time>2015-10-04T09:42:23Z</time>
      </trkpt>
      <trkpt lat="44.6073" lon="-0.94955">
        <ele>-7.0725098</ele>
        <time>2015-10-04T09:42:24Z</time>
      </trkpt>
      <trkpt lat="44.60741" lon="-0.94965">
        <ele>-6.1112061</ele>
        <time>2015-10-04T09:42:30Z</time>
      </trkpt>
      <trkpt lat="44.60755" lon="-0.94966">
        <ele>-1.7852783</ele>
        <time>2015-10-04T09:42:35Z</time>
      </trkpt>
      <trkpt lat="44.60768" lon="-0.94977">
        <ele>-0.3433838</ele>
        <time>2015-10-04T09:42:39Z</time>
      </trkpt>
      <trkpt lat="44.60783" lon="-0.94988">
        <ele>-1.3046875</ele>
        <time>2015-10-04T09:42:43Z</time>
      </trkpt>
      <trkpt lat="44.608" lon="-0.95003">
        <ele>1.0986328</ele>
        <time>2015-10-04T09:42:49Z</time>
      </trkpt>
      <trkpt lat="44.60811" lon="-0.95015">
        <ele>-2.7467041</ele>
        <time>2015-10-04T09:42:53Z</time>
      </trkpt>
      <trkpt lat="44.60816" lon="-0.95026">
        <ele>-7.5531006</ele>
        <time>2015-10-04T09:42:58Z</time>
      </trkpt>
      <trkpt lat="44.60825" lon="-0.95034">
        <ele>-11.3984375</ele>
        <time>2015-10-04T09:43:02Z</time>
      </trkpt>
      <trkpt lat="44.60835" lon="-0.95049">
        <ele>-12.8404541</ele>
        <time>2015-10-04T09:43:06Z</time>
      </trkpt>
      <trkpt lat="44.60837" lon="-0.95056">
        <ele>-13.8017578</ele>
        <time>2015-10-04T09:43:07Z</time>
      </trkpt>
      <trkpt lat="44.60852" lon="-0.95083">
        <ele>-20.050415</ele>
        <time>2015-10-04T09:43:13Z</time>
      </trkpt>
      <trkpt lat="44.60855" lon="-0.95087">
        <ele>-21.9730225</ele>
        <time>2015-10-04T09:43:14Z</time>
      </trkpt>
      <trkpt lat="44.60865" lon="-0.95104">
        <ele>-23.8956299</ele>
        <time>2015-10-04T09:43:17Z</time>
      </trkpt>
      <trkpt lat="44.60882" lon="-0.95122">
        <ele>-23.8956299</ele>
        <time>2015-10-04T09:43:21Z</time>
      </trkpt>
      <trkpt lat="44.6089" lon="-0.95131">
        <ele>-23.414917</ele>
        <time>2015-10-04T09:43:23Z</time>
      </trkpt>
      <trkpt lat="44.60899" lon="-0.95138">
        <ele>-22.9342041</ele>
        <time>2015-10-04T09:43:25Z</time>
      </trkpt>
      <trkpt lat="44.60921" lon="-0.95146">
        <ele>-12.3598633</ele>
        <time>2015-10-04T09:43:29Z</time>
      </trkpt>
      <trkpt lat="44.60946" lon="-0.95157">
        <ele>-6.5919189</ele>
        <time>2015-10-04T09:43:35Z</time>
      </trkpt>
      <trkpt lat="44.60962" lon="-0.95169">
        <ele>-0.8240967</ele>
        <time>2015-10-04T09:43:38Z</time>
      </trkpt>
      <trkpt lat="44.60984" lon="-0.95181">
        <ele>1.0986328</ele>
        <time>2015-10-04T09:43:43Z</time>
      </trkpt>
      <trkpt lat="44.61007" lon="-0.95201">
        <ele>8.7891846</ele>
        <time>2015-10-04T09:43:48Z</time>
      </trkpt>
      <trkpt lat="44.61023" lon="-0.95211">
        <ele>9.7506104</ele>
        <time>2015-10-04T09:43:52Z</time>
      </trkpt>
      <trkpt lat="44.61035" lon="-0.95217">
        <ele>11.6732178</ele>
        <time>2015-10-04T09:43:55Z</time>
      </trkpt>
      <trkpt lat="44.6104" lon="-0.9522">
        <ele>12.1538086</ele>
        <time>2015-10-04T09:43:57Z</time>
      </trkpt>
      <trkpt lat="44.61042" lon="-0.95221">
        <ele>11.6732178</ele>
        <time>2015-10-04T09:43:59Z</time>
      </trkpt>
      <trkpt lat="44.61042" lon="-0.95226">
        <ele>11.6732178</ele>
        <time>2015-10-04T09:44:02Z</time>
      </trkpt>
      <trkpt lat="44.61047" lon="-0.95239">
        <ele>8.7891846</ele>
        <time>2015-10-04T09:44:06Z</time>
      </trkpt>
      <trkpt lat="44.61053" lon="-0.95258">
        <ele>3.0212402</ele>
        <time>2015-10-04T09:44:11Z</time>
      </trkpt>
      <trkpt lat="44.61061" lon="-0.95271">
        <ele>-2.2659912</ele>
        <time>2015-10-04T09:44:15Z</time>
      </trkpt>
      <trkpt lat="44.61066" lon="-0.95291">
        <ele>-9.4758301</ele>
        <time>2015-10-04T09:44:21Z</time>
      </trkpt>
      <trkpt lat="44.61075" lon="-0.95303">
        <ele>-8.0339355</ele>
        <time>2015-10-04T09:44:26Z</time>
      </trkpt>
      <trkpt lat="44.61078" lon="-0.95316">
        <ele>-11.3984375</ele>
        <time>2015-10-04T09:44:30Z</time>
      </trkpt>
      <trkpt lat="44.61081" lon="-0.95325">
        <ele>-7.5531006</ele>
        <time>2015-10-04T09:44:34Z</time>
      </trkpt>
      <trkpt lat="44.61087" lon="-0.95336">
        <ele>-5.1499023</ele>
        <time>2015-10-04T09:44:39Z</time>
      </trkpt>
      <trkpt lat="44.61093" lon="-0.95349">
        <ele>-2.2659912</ele>
        <time>2015-10-04T09:44:43Z</time>
      </trkpt>
      <trkpt lat="44.61095" lon="-0.95355">
        <ele>-3.2272949</ele>
        <time>2015-10-04T09:44:47Z</time>
      </trkpt>
      <trkpt lat="44.611" lon="-0.95367">
        <ele>-4.1885986</ele>
        <time>2015-10-04T09:44:53Z</time>
      </trkpt>
      <trkpt lat="44.61104" lon="-0.95378">
        <ele>-4.6693115</ele>
        <time>2015-10-04T09:44:58Z</time>
      </trkpt>
      <trkpt lat="44.61104" lon="-0.95381">
        <ele>-4.6693115</ele>
        <time>2015-10-04T09:45:00Z</time>
      </trkpt>
      <trkpt lat="44.61108" lon="-0.95391">
        <ele>-4.6693115</ele>
        <time>2015-10-04T09:45:04Z</time>
      </trkpt>
      <trkpt lat="44.61113" lon="-0.95408">
        <ele>-5.1499023</ele>
        <time>2015-10-04T09:45:09Z</time>
      </trkpt>
      <trkpt lat="44.61121" lon="-0.95431">
        <ele>-4.1885986</ele>
        <time>2015-10-04T09:45:13Z</time>
      </trkpt>
      <trkpt lat="44.61128" lon="-0.95455">
        <ele>-1.7852783</ele>
        <time>2015-10-04T09:45:17Z</time>
      </trkpt>
      <trkpt lat="44.61141" lon="-0.95489">
        <ele>0.1374512</ele>
        <time>2015-10-04T09:45:23Z</time>
      </trkpt>
      <trkpt lat="44.61151" lon="-0.95525">
        <ele>-5.6304932</ele>
        <time>2015-10-04T09:45:29Z</time>
      </trkpt>
      <trkpt lat="44.61153" lon="-0.9553">
        <ele>-6.5919189</ele>
        <time>2015-10-04T09:45:30Z</time>
      </trkpt>
      <trkpt lat="44.61161" lon="-0.95552">
        <ele>-7.5531006</ele>
        <time>2015-10-04T09:45:34Z</time>
      </trkpt>
      <trkpt lat="44.61166" lon="-0.9557">
        <ele>-7.5531006</ele>
        <time>2015-10-04T09:45:37Z</time>
      </trkpt>
      <trkpt lat="44.61173" lon="-0.95606">
        <ele>-15.7243652</ele>
        <time>2015-10-04T09:45:43Z</time>
      </trkpt>
      <trkpt lat="44.61176" lon="-0.95618">
        <ele>-18.6083984</ele>
        <time>2015-10-04T09:45:45Z</time>
      </trkpt>
      <trkpt lat="44.61182" lon="-0.95634">
        <ele>-19.5697021</ele>
        <time>2015-10-04T09:45:48Z</time>
      </trkpt>
      <trkpt lat="44.6119" lon="-0.95648">
        <ele>-23.414917</ele>
        <time>2015-10-04T09:45:52Z</time>
      </trkpt>
      <trkpt lat="44.61197" lon="-0.95667">
        <ele>-24.3763428</ele>
        <time>2015-10-04T09:45:57Z</time>
      </trkpt>
      <trkpt lat="44.61205" lon="-0.95687">
        <ele>-25.8183594</ele>
        <time>2015-10-04T09:46:02Z</time>
      </trkpt>
      <trkpt lat="44.6121" lon="-0.95699">
        <ele>-27.7409668</ele>
        <time>2015-10-04T09:46:07Z</time>
      </trkpt>
      <trkpt lat="44.61214" lon="-0.95703">
        <ele>-27.7409668</ele>
        <time>2015-10-04T09:46:10Z</time>
      </trkpt>
      <trkpt lat="44.61215" lon="-0.95725">
        <ele>-30.6247559</ele>
        <time>2015-10-04T09:46:15Z</time>
      </trkpt>
      <trkpt lat="44.61226" lon="-0.95747">
        <ele>-23.414917</ele>
        <time>2015-10-04T09:46:19Z</time>
      </trkpt>
      <trkpt lat="44.61232" lon="-0.9577">
        <ele>-23.8956299</ele>
        <time>2015-10-04T09:46:23Z</time>
      </trkpt>
      <trkpt lat="44.61234" lon="-0.95776">
        <ele>-24.3763428</ele>
        <time>2015-10-04T09:46:24Z</time>
      </trkpt>
      <trkpt lat="44.61239" lon="-0.95789">
        <ele>-20.050415</ele>
        <time>2015-10-04T09:46:26Z</time>
      </trkpt>
      <trkpt lat="44.6125" lon="-0.95815">
        <ele>-15.7243652</ele>
        <time>2015-10-04T09:46:30Z</time>
      </trkpt>
      <trkpt lat="44.61252" lon="-0.95827">
        <ele>-17.1663818</ele>
        <time>2015-10-04T09:46:32Z</time>
      </trkpt>
      <trkpt lat="44.61254" lon="-0.95844">
        <ele>-19.0889893</ele>
        <time>2015-10-04T09:46:35Z</time>
      </trkpt>
      <trkpt lat="44.61255" lon="-0.95857">
        <ele>-20.050415</ele>
        <time>2015-10-04T09:46:37Z</time>
      </trkpt>
      <trkpt lat="44.6126" lon="-0.95873">
        <ele>-20.5310059</ele>
        <time>2015-10-04T09:46:40Z</time>
      </trkpt>
      <trkpt lat="44.6126" lon="-0.95893">
        <ele>-23.414917</ele>
        <time>2015-10-04T09:46:45Z</time>
      </trkpt>
      <trkpt lat="44.61261" lon="-0.959">
        <ele>-19.5697021</ele>
        <time>2015-10-04T09:46:46Z</time>
      </trkpt>
      <trkpt lat="44.61262" lon="-0.95936">
        <ele>-17.1663818</ele>
        <time>2015-10-04T09:46:52Z</time>
      </trkpt>
      <trkpt lat="44.61264" lon="-0.95948">
        <ele>-17.6470947</ele>
        <time>2015-10-04T09:46:54Z</time>
      </trkpt>
      <trkpt lat="44.61267" lon="-0.95985">
        <ele>-18.6083984</ele>
        <time>2015-10-04T09:47:00Z</time>
      </trkpt>
      <trkpt lat="44.61271" lon="-0.95998">
        <ele>-6.5919189</ele>
        <time>2015-10-04T09:47:02Z</time>
      </trkpt>
      <trkpt lat="44.6127" lon="-0.96029">
        <ele>-2.2659912</ele>
        <time>2015-10-04T09:47:07Z</time>
      </trkpt>
      <trkpt lat="44.61268" lon="-0.96041">
        <ele>-2.2659912</ele>
        <time>2015-10-04T09:47:09Z</time>
      </trkpt>
      <trkpt lat="44.61267" lon="-0.9607">
        <ele>-3.2272949</ele>
        <time>2015-10-04T09:47:13Z</time>
      </trkpt>
      <trkpt lat="44.61272" lon="-0.96095">
        <ele>-4.6693115</ele>
        <time>2015-10-04T09:47:17Z</time>
      </trkpt>
      <trkpt lat="44.61277" lon="-0.96107">
        <ele>-6.1112061</ele>
        <time>2015-10-04T09:47:19Z</time>
      </trkpt>
      <trkpt lat="44.61286" lon="-0.96129">
        <ele>-4.1885986</ele>
        <time>2015-10-04T09:47:23Z</time>
      </trkpt>
      <trkpt lat="44.61287" lon="-0.96138">
        <ele>-5.6304932</ele>
        <time>2015-10-04T09:47:25Z</time>
      </trkpt>
      <trkpt lat="44.61282" lon="-0.96167">
        <ele>-10.4372559</ele>
        <time>2015-10-04T09:47:30Z</time>
      </trkpt>
      <trkpt lat="44.61286" lon="-0.96205">
        <ele>-8.5146484</ele>
        <time>2015-10-04T09:47:35Z</time>
      </trkpt>
      <trkpt lat="44.61293" lon="-0.96225">
        <ele>-7.5531006</ele>
        <time>2015-10-04T09:47:39Z</time>
      </trkpt>
      <trkpt lat="44.61303" lon="-0.96263">
        <ele>-8.9952393</ele>
        <time>2015-10-04T09:47:46Z</time>
      </trkpt>
      <trkpt lat="44.61305" lon="-0.9627">
        <ele>-8.5146484</ele>
        <time>2015-10-04T09:47:47Z</time>
      </trkpt>
      <trkpt lat="44.61307" lon="-0.9629">
        <ele>-9.4758301</ele>
        <time>2015-10-04T09:47:50Z</time>
      </trkpt>
      <trkpt lat="44.61317" lon="-0.96333">
        <ele>-4.6693115</ele>
        <time>2015-10-04T09:47:56Z</time>
      </trkpt>
      <trkpt lat="44.61324" lon="-0.9636">
        <ele>-6.1112061</ele>
        <time>2015-10-04T09:48:00Z</time>
      </trkpt>
      <trkpt lat="44.6133" lon="-0.96396">
        <ele>-10.4372559</ele>
        <time>2015-10-04T09:48:05Z</time>
      </trkpt>
      <trkpt lat="44.61337" lon="-0.96415">
        <ele>-10.4372559</ele>
        <time>2015-10-04T09:48:08Z</time>
      </trkpt>
      <trkpt lat="44.61341" lon="-0.96427">
        <ele>-10.4372559</ele>
        <time>2015-10-04T09:48:10Z</time>
      </trkpt>
      <trkpt lat="44.61347" lon="-0.96449">
        <ele>-11.8791504</ele>
        <time>2015-10-04T09:48:14Z</time>
      </trkpt>
      <trkpt lat="44.61353" lon="-0.96467">
        <ele>-6.1112061</ele>
        <time>2015-10-04T09:48:18Z</time>
      </trkpt>
      <trkpt lat="44.61354" lon="-0.96489">
        <ele>-4.1885986</ele>
        <time>2015-10-04T09:48:22Z</time>
      </trkpt>
      <trkpt lat="44.61355" lon="-0.96502">
        <ele>-2.7467041</ele>
        <time>2015-10-04T09:48:24Z</time>
      </trkpt>
      <trkpt lat="44.6135" lon="-0.9656">
        <ele>-2.7467041</ele>
        <time>2015-10-04T09:48:31Z</time>
      </trkpt>
      <trkpt lat="44.61351" lon="-0.96568">
        <ele>-1.7852783</ele>
        <time>2015-10-04T09:48:32Z</time>
      </trkpt>
      <trkpt lat="44.6135" lon="-0.96592">
        <ele>-0.8240967</ele>
        <time>2015-10-04T09:48:35Z</time>
      </trkpt>
      <trkpt lat="44.61361" lon="-0.96624">
        <ele>-3.7078857</ele>
        <time>2015-10-04T09:48:40Z</time>
      </trkpt>
      <trkpt lat="44.61371" lon="-0.96641">
        <ele>-4.6693115</ele>
        <time>2015-10-04T09:48:43Z</time>
      </trkpt>
      <trkpt lat="44.61391" lon="-0.96666">
        <ele>-7.0725098</ele>
        <time>2015-10-04T09:48:48Z</time>
      </trkpt>
      <trkpt lat="44.61398" lon="-0.96677">
        <ele>-7.5531006</ele>
        <time>2015-10-04T09:48:50Z</time>
      </trkpt>
      <trkpt lat="44.61404" lon="-0.9669">
        <ele>-8.0339355</ele>
        <time>2015-10-04T09:48:52Z</time>
      </trkpt>
      <trkpt lat="44.61411" lon="-0.96709">
        <ele>-7.5531006</ele>
        <time>2015-10-04T09:48:55Z</time>
      </trkpt>
      <trkpt lat="44.61435" lon="-0.96745">
        <ele>-10.4372559</ele>
        <time>2015-10-04T09:49:01Z</time>
      </trkpt>
      <trkpt lat="44.61465" lon="-0.96786">
        <ele>-10.9178467</ele>
        <time>2015-10-04T09:49:08Z</time>
      </trkpt>
      <trkpt lat="44.61481" lon="-0.96806">
        <ele>-9.956543</ele>
        <time>2015-10-04T09:49:12Z</time>
      </trkpt>
      <trkpt lat="44.61497" lon="-0.96831">
        <ele>-5.1499023</ele>
        <time>2015-10-04T09:49:17Z</time>
      </trkpt>
      <trkpt lat="44.61513" lon="-0.96853">
        <ele>-4.1885986</ele>
        <time>2015-10-04T09:49:21Z</time>
      </trkpt>
      <trkpt lat="44.6153" lon="-0.96875">
        <ele>-4.6693115</ele>
        <time>2015-10-04T09:49:25Z</time>
      </trkpt>
      <trkpt lat="44.61553" lon="-0.96922">
        <ele>-5.1499023</ele>
        <time>2015-10-04T09:49:32Z</time>
      </trkpt>
      <trkpt lat="44.61563" lon="-0.96949">
        <ele>-5.6304932</ele>
        <time>2015-10-04T09:49:36Z</time>
      </trkpt>
      <trkpt lat="44.6157" lon="-0.96962">
        <ele>-6.1112061</ele>
        <time>2015-10-04T09:49:38Z</time>
      </trkpt>
      <trkpt lat="44.61586" lon="-0.97014">
        <ele>-7.0725098</ele>
        <time>2015-10-04T09:49:45Z</time>
      </trkpt>
      <trkpt lat="44.61588" lon="-0.97021">
        <ele>-7.5531006</ele>
        <time>2015-10-04T09:49:46Z</time>
      </trkpt>
      <trkpt lat="44.616" lon="-0.97054">
        <ele>-8.5146484</ele>
        <time>2015-10-04T09:49:51Z</time>
      </trkpt>
      <trkpt lat="44.61607" lon="-0.97064">
        <ele>-3.2272949</ele>
        <time>2015-10-04T09:49:53Z</time>
      </trkpt>
      <trkpt lat="44.6161" lon="-0.97076">
        <ele>0.618042</ele>
        <time>2015-10-04T09:49:55Z</time>
      </trkpt>
      <trkpt lat="44.61613" lon="-0.97084">
        <ele>0.1374512</ele>
        <time>2015-10-04T09:49:57Z</time>
      </trkpt>
      <trkpt lat="44.61623" lon="-0.97101">
        <ele>-0.3433838</ele>
        <time>2015-10-04T09:50:01Z</time>
      </trkpt>
      <trkpt lat="44.61632" lon="-0.97124">
        <ele>-2.7467041</ele>
        <time>2015-10-04T09:50:05Z</time>
      </trkpt>
      <trkpt lat="44.61639" lon="-0.97136">
        <ele>-0.3433838</ele>
        <time>2015-10-04T09:50:07Z</time>
      </trkpt>
      <trkpt lat="44.6165" lon="-0.97152">
        <ele>-1.7852783</ele>
        <time>2015-10-04T09:50:10Z</time>
      </trkpt>
      <trkpt lat="44.61659" lon="-0.97169">
        <ele>-3.2272949</ele>
        <time>2015-10-04T09:50:13Z</time>
      </trkpt>
      <trkpt lat="44.6167" lon="-0.97203">
        <ele>-5.6304932</ele>
        <time>2015-10-04T09:50:18Z</time>
      </trkpt>
      <trkpt lat="44.61678" lon="-0.97222">
        <ele>-7.0725098</ele>
        <time>2015-10-04T09:50:21Z</time>
      </trkpt>
      <trkpt lat="44.61691" lon="-0.97245">
        <ele>-2.2659912</ele>
        <time>2015-10-04T09:50:25Z</time>
      </trkpt>
      <trkpt lat="44.61706" lon="-0.9727">
        <ele>0.1374512</ele>
        <time>2015-10-04T09:50:30Z</time>
      </trkpt>
      <trkpt lat="44.61709" lon="-0.97275">
        <ele>-0.3433838</ele>
        <time>2015-10-04T09:50:31Z</time>
      </trkpt>
      <trkpt lat="44.61716" lon="-0.97282">
        <ele>-0.8240967</ele>
        <time>2015-10-04T09:50:33Z</time>
      </trkpt>
      <trkpt lat="44.61729" lon="-0.97303">
        <ele>-3.7078857</ele>
        <time>2015-10-04T09:50:38Z</time>
      </trkpt>
      <trkpt lat="44.61733" lon="-0.97316">
        <ele>-4.1885986</ele>
        <time>2015-10-04T09:50:40Z</time>
      </trkpt>
      <trkpt lat="44.61734" lon="-0.97348">
        <ele>-8.5146484</ele>
        <time>2015-10-04T09:50:45Z</time>
      </trkpt>
      <trkpt lat="44.61743" lon="-0.97378">
        <ele>-10.4372559</ele>
        <time>2015-10-04T09:50:49Z</time>
      </trkpt>
      <trkpt lat="44.61753" lon="-0.97417">
        <ele>-14.2824707</ele>
        <time>2015-10-04T09:50:55Z</time>
      </trkpt>
      <trkpt lat="44.61756" lon="-0.97445">
        <ele>-6.5919189</ele>
        <time>2015-10-04T09:51:00Z</time>
      </trkpt>
      <trkpt lat="44.61763" lon="-0.97465">
        <ele>-3.2272949</ele>
        <time>2015-10-04T09:51:03Z</time>
      </trkpt>
      <trkpt lat="44.61777" lon="-0.97496">
        <ele>-4.6693115</ele>
        <time>2015-10-04T09:51:08Z</time>
      </trkpt>
      <trkpt lat="44.61788" lon="-0.97519">
        <ele>-7.0725098</ele>
        <time>2015-10-04T09:51:13Z</time>
      </trkpt>
      <trkpt lat="44.61798" lon="-0.97548">
        <ele>-9.956543</ele>
        <time>2015-10-04T09:51:19Z</time>
      </trkpt>
      <trkpt lat="44.61806" lon="-0.97566">
        <ele>-5.6304932</ele>
        <time>2015-10-04T09:51:23Z</time>
      </trkpt>
      <trkpt lat="44.61816" lon="-0.97586">
        <ele>-6.1112061</ele>
        <time>2015-10-04T09:51:28Z</time>
      </trkpt>
      <trkpt lat="44.61825" lon="-0.97604">
        <ele>-3.2272949</ele>
        <time>2015-10-04T09:51:33Z</time>
      </trkpt>
      <trkpt lat="44.61833" lon="-0.97623">
        <ele>-0.3433838</ele>
        <time>2015-10-04T09:51:38Z</time>
      </trkpt>
      <trkpt lat="44.61839" lon="-0.97646">
        <ele>-0.8240967</ele>
        <time>2015-10-04T09:51:43Z</time>
      </trkpt>
      <trkpt lat="44.61855" lon="-0.9766">
        <ele>1.5793457</ele>
        <time>2015-10-04T09:51:46Z</time>
      </trkpt>
      <trkpt lat="44.6187" lon="-0.97671">
        <ele>2.0600586</ele>
        <time>2015-10-04T09:51:50Z</time>
      </trkpt>
      <trkpt lat="44.61885" lon="-0.97679">
        <ele>2.0600586</ele>
        <time>2015-10-04T09:51:54Z</time>
      </trkpt>
      <trkpt lat="44.61902" lon="-0.97687">
        <ele>3.982666</ele>
        <time>2015-10-04T09:51:59Z</time>
      </trkpt>
      <trkpt lat="44.61916" lon="-0.97706">
        <ele>1.0986328</ele>
        <time>2015-10-04T09:52:04Z</time>
      </trkpt>
      <trkpt lat="44.61934" lon="-0.97721">
        <ele>-2.2659912</ele>
        <time>2015-10-04T09:52:09Z</time>
      </trkpt>
      <trkpt lat="44.61951" lon="-0.97731">
        <ele>-2.7467041</ele>
        <time>2015-10-04T09:52:14Z</time>
      </trkpt>
      <trkpt lat="44.61958" lon="-0.97734">
        <ele>-3.2272949</ele>
        <time>2015-10-04T09:52:18Z</time>
      </trkpt>
      <trkpt lat="44.61961" lon="-0.97739">
        <ele>3.982666</ele>
        <time>2015-10-04T09:52:24Z</time>
      </trkpt>
      <trkpt lat="44.61966" lon="-0.97743">
        <ele>2.5406494</ele>
        <time>2015-10-04T09:52:31Z</time>
      </trkpt>
      <trkpt lat="44.61969" lon="-0.97745">
        <ele>2.5406494</ele>
        <time>2015-10-04T09:52:34Z</time>
      </trkpt>
      <trkpt lat="44.6197" lon="-0.97744">
        <ele>4.4632568</ele>
        <time>2015-10-04T09:52:38Z</time>
      </trkpt>
      <trkpt lat="44.61972" lon="-0.97745">
        <ele>6.8664551</ele>
        <time>2015-10-04T09:52:45Z</time>
      </trkpt>
      <trkpt lat="44.61977" lon="-0.97747">
        <ele>8.7891846</ele>
        <time>2015-10-04T09:52:49Z</time>
      </trkpt>
      <trkpt lat="44.61991" lon="-0.97754">
        <ele>6.8664551</ele>
        <time>2015-10-04T09:52:55Z</time>
      </trkpt>
      <trkpt lat="44.62011" lon="-0.97769">
        <ele>8.7891846</ele>
        <time>2015-10-04T09:53:01Z</time>
      </trkpt>
      <trkpt lat="44.62026" lon="-0.97787">
        <ele>6.8664551</ele>
        <time>2015-10-04T09:53:06Z</time>
      </trkpt>
      <trkpt lat="44.62041" lon="-0.97799">
        <ele>5.4245605</ele>
        <time>2015-10-04T09:53:11Z</time>
      </trkpt>
      <trkpt lat="44.62055" lon="-0.97795">
        <ele>4.9438477</ele>
        <time>2015-10-04T09:53:15Z</time>
      </trkpt>
      <trkpt lat="44.62073" lon="-0.97784">
        <ele>4.9438477</ele>
        <time>2015-10-04T09:53:19Z</time>
      </trkpt>
      <trkpt lat="44.62091" lon="-0.97775">
        <ele>4.9438477</ele>
        <time>2015-10-04T09:53:23Z</time>
      </trkpt>
      <trkpt lat="44.62117" lon="-0.97771">
        <ele>4.4632568</ele>
        <time>2015-10-04T09:53:28Z</time>
      </trkpt>
      <trkpt lat="44.62149" lon="-0.97772">
        <ele>0.1374512</ele>
        <time>2015-10-04T09:53:34Z</time>
      </trkpt>
      <trkpt lat="44.62173" lon="-0.97787">
        <ele>-2.2659912</ele>
        <time>2015-10-04T09:53:38Z</time>
      </trkpt>
      <trkpt lat="44.62193" lon="-0.97801">
        <ele>-2.7467041</ele>
        <time>2015-10-04T09:53:42Z</time>
      </trkpt>
      <trkpt lat="44.62213" lon="-0.97814">
        <ele>-0.3433838</ele>
        <time>2015-10-04T09:53:47Z</time>
      </trkpt>
      <trkpt lat="44.62218" lon="-0.97822">
        <ele>3.5019531</ele>
        <time>2015-10-04T09:53:50Z</time>
      </trkpt>
      <trkpt lat="44.62212" lon="-0.97814">
        <ele>3.982666</ele>
        <time>2015-10-04T09:53:54Z</time>
      </trkpt>
      <trkpt lat="44.62205" lon="-0.97808">
        <ele>3.982666</ele>
        <time>2015-10-04T09:53:56Z</time>
      </trkpt>
      <trkpt lat="44.62186" lon="-0.97792">
        <ele>1.5793457</ele>
        <time>2015-10-04T09:54:01Z</time>
      </trkpt>
      <trkpt lat="44.62182" lon="-0.97776">
        <ele>1.5793457</ele>
        <time>2015-10-04T09:54:05Z</time>
      </trkpt>
      <trkpt lat="44.62184" lon="-0.97761">
        <ele>2.0600586</ele>
        <time>2015-10-04T09:54:10Z</time>
      </trkpt>
      <trkpt lat="44.62185" lon="-0.97763">
        <ele>3.5019531</ele>
        <time>2015-10-04T09:54:14Z</time>
      </trkpt>
      <trkpt lat="44.62189" lon="-0.97761">
        <ele>6.8664551</ele>
        <time>2015-10-04T09:54:25Z</time>
      </trkpt>
      <trkpt lat="44.62184" lon="-0.97761">
        <ele>8.3085938</ele>
        <time>2015-10-04T09:55:56Z</time>
      </trkpt>
      <trkpt lat="44.62183" lon="-0.9777">
        <ele>5.4245605</ele>
        <time>2015-10-04T09:56:02Z</time>
      </trkpt>
      <trkpt lat="44.62182" lon="-0.9778">
        <ele>4.4632568</ele>
        <time>2015-10-04T09:56:07Z</time>
      </trkpt>
      <trkpt lat="44.62182" lon="-0.97782">
        <ele>4.4632568</ele>
        <time>2015-10-04T09:56:08Z</time>
      </trkpt>
      <trkpt lat="44.62183" lon="-0.97787">
        <ele>3.5019531</ele>
        <time>2015-10-04T09:56:10Z</time>
      </trkpt>
      <trkpt lat="44.62199" lon="-0.97803">
        <ele>3.0212402</ele>
        <time>2015-10-04T09:56:17Z</time>
      </trkpt>
      <trkpt lat="44.62216" lon="-0.97817">
        <ele>4.4632568</ele>
        <time>2015-10-04T09:56:22Z</time>
      </trkpt>
      <trkpt lat="44.62222" lon="-0.97838">
        <ele>4.9438477</ele>
        <time>2015-10-04T09:56:26Z</time>
      </trkpt>
      <trkpt lat="44.62225" lon="-0.97848">
        <ele>6.8664551</ele>
        <time>2015-10-04T09:56:28Z</time>
      </trkpt>
      <trkpt lat="44.62237" lon="-0.9788">
        <ele>8.3085938</ele>
        <time>2015-10-04T09:56:34Z</time>
      </trkpt>
      <trkpt lat="44.62244" lon="-0.97908">
        <ele>8.7891846</ele>
        <time>2015-10-04T09:56:39Z</time>
      </trkpt>
      <trkpt lat="44.62255" lon="-0.97942">
        <ele>9.2698975</ele>
        <time>2015-10-04T09:56:45Z</time>
      </trkpt>
      <trkpt lat="44.62266" lon="-0.97962">
        <ele>9.2698975</ele>
        <time>2015-10-04T09:56:49Z</time>
      </trkpt>
      <trkpt lat="44.62276" lon="-0.9798">
        <ele>7.8278809</ele>
        <time>2015-10-04T09:56:53Z</time>
      </trkpt>
      <trkpt lat="44.62283" lon="-0.98">
        <ele>7.347168</ele>
        <time>2015-10-04T09:56:57Z</time>
      </trkpt>
      <trkpt lat="44.62294" lon="-0.98026">
        <ele>7.347168</ele>
        <time>2015-10-04T09:57:02Z</time>
      </trkpt>
      <trkpt lat="44.62297" lon="-0.98032">
        <ele>6.3858643</ele>
        <time>2015-10-04T09:57:03Z</time>
      </trkpt>
      <trkpt lat="44.62307" lon="-0.98068">
        <ele>5.9052734</ele>
        <time>2015-10-04T09:57:08Z</time>
      </trkpt>
      <trkpt lat="44.62323" lon="-0.98119">
        <ele>3.0212402</ele>
        <time>2015-10-04T09:57:15Z</time>
      </trkpt>
      <trkpt lat="44.62327" lon="-0.98173">
        <ele>-2.2659912</ele>
        <time>2015-10-04T09:57:21Z</time>
      </trkpt>
      <trkpt lat="44.62328" lon="-0.98223">
        <ele>-0.8240967</ele>
        <time>2015-10-04T09:57:27Z</time>
      </trkpt>
      <trkpt lat="44.62324" lon="-0.98259">
        <ele>-0.3433838</ele>
        <time>2015-10-04T09:57:32Z</time>
      </trkpt>
      <trkpt lat="44.62317" lon="-0.98272">
        <ele>1.0986328</ele>
        <time>2015-10-04T09:57:34Z</time>
      </trkpt>
      <trkpt lat="44.62303" lon="-0.9829">
        <ele>2.0600586</ele>
        <time>2015-10-04T09:57:37Z</time>
      </trkpt>
      <trkpt lat="44.62273" lon="-0.98315">
        <ele>2.5406494</ele>
        <time>2015-10-04T09:57:43Z</time>
      </trkpt>
      <trkpt lat="44.62251" lon="-0.98327">
        <ele>3.0212402</ele>
        <time>2015-10-04T09:57:47Z</time>
      </trkpt>
      <trkpt lat="44.62237" lon="-0.98332">
        <ele>3.5019531</ele>
        <time>2015-10-04T09:57:50Z</time>
      </trkpt>
      <trkpt lat="44.62218" lon="-0.98349">
        <ele>4.4632568</ele>
        <time>2015-10-04T09:57:55Z</time>
      </trkpt>
      <trkpt lat="44.62212" lon="-0.98368">
        <ele>4.9438477</ele>
        <time>2015-10-04T09:57:59Z</time>
      </trkpt>
      <trkpt lat="44.62203" lon="-0.98394">
        <ele>5.9052734</ele>
        <time>2015-10-04T09:58:04Z</time>
      </trkpt>
      <trkpt lat="44.62191" lon="-0.98417">
        <ele>8.3085938</ele>
        <time>2015-10-04T09:58:10Z</time>
      </trkpt>
      <trkpt lat="44.6218" lon="-0.98434">
        <ele>9.7506104</ele>
        <time>2015-10-04T09:58:15Z</time>
      </trkpt>
      <trkpt lat="44.6217" lon="-0.98454">
        <ele>11.6732178</ele>
        <time>2015-10-04T09:58:20Z</time>
      </trkpt>
      <trkpt lat="44.62167" lon="-0.98466">
        <ele>11.6732178</ele>
        <time>2015-10-04T09:58:23Z</time>
      </trkpt>
      <trkpt lat="44.62169" lon="-0.98481">
        <ele>11.1925049</ele>
        <time>2015-10-04T09:58:27Z</time>
      </trkpt>
      <trkpt lat="44.6217" lon="-0.98509">
        <ele>9.2698975</ele>
        <time>2015-10-04T09:58:34Z</time>
      </trkpt>
      <trkpt lat="44.62168" lon="-0.9853">
        <ele>6.3858643</ele>
        <time>2015-10-04T09:58:39Z</time>
      </trkpt>
      <trkpt lat="44.62167" lon="-0.98538">
        <ele>5.9052734</ele>
        <time>2015-10-04T09:58:41Z</time>
      </trkpt>
      <trkpt lat="44.62158" lon="-0.98557">
        <ele>5.4245605</ele>
        <time>2015-10-04T09:58:45Z</time>
      </trkpt>
      <trkpt lat="44.62152" lon="-0.98575">
        <ele>6.3858643</ele>
        <time>2015-10-04T09:58:50Z</time>
      </trkpt>
      <trkpt lat="44.6215" lon="-0.98592">
        <ele>6.3858643</ele>
        <time>2015-10-04T09:58:56Z</time>
      </trkpt>
      <trkpt lat="44.62147" lon="-0.98613">
        <ele>5.4245605</ele>
        <time>2015-10-04T09:59:02Z</time>
      </trkpt>
      <trkpt lat="44.62147" lon="-0.98635">
        <ele>2.5406494</ele>
        <time>2015-10-04T09:59:08Z</time>
      </trkpt>
      <trkpt lat="44.62148" lon="-0.98648">
        <ele>-0.3433838</ele>
        <time>2015-10-04T09:59:12Z</time>
      </trkpt>
      <trkpt lat="44.62148" lon="-0.98651">
        <ele>-0.8240967</ele>
        <time>2015-10-04T09:59:13Z</time>
      </trkpt>
      <trkpt lat="44.62149" lon="-0.9867">
        <ele>-7.0725098</ele>
        <time>2015-10-04T09:59:19Z</time>
      </trkpt>
      <trkpt lat="44.62151" lon="-0.98681">
        <ele>-10.9178467</ele>
        <time>2015-10-04T09:59:22Z</time>
      </trkpt>
      <trkpt lat="44.62149" lon="-0.98715">
        <ele>-11.3984375</ele>
        <time>2015-10-04T09:59:27Z</time>
      </trkpt>
      <trkpt lat="44.62159" lon="-0.98732">
        <ele>-11.8791504</ele>
        <time>2015-10-04T09:59:31Z</time>
      </trkpt>
      <trkpt lat="44.62164" lon="-0.98756">
        <ele>-4.6693115</ele>
        <time>2015-10-04T09:59:35Z</time>
      </trkpt>
      <trkpt lat="44.62174" lon="-0.98776">
        <ele>-2.2659912</ele>
        <time>2015-10-04T09:59:40Z</time>
      </trkpt>
      <trkpt lat="44.62184" lon="-0.98802">
        <ele>-3.7078857</ele>
        <time>2015-10-04T09:59:45Z</time>
      </trkpt>
      <trkpt lat="44.62191" lon="-0.98817">
        <ele>-6.1112061</ele>
        <time>2015-10-04T09:59:48Z</time>
      </trkpt>
      <trkpt lat="44.62202" lon="-0.98843">
        <ele>-7.0725098</ele>
        <time>2015-10-04T09:59:53Z</time>
      </trkpt>
      <trkpt lat="44.62209" lon="-0.98869">
        <ele>-11.3984375</ele>
        <time>2015-10-04T09:59:58Z</time>
      </trkpt>
      <trkpt lat="44.62221" lon="-0.989">
        <ele>-12.8404541</ele>
        <time>2015-10-04T10:00:04Z</time>
      </trkpt>
      <trkpt lat="44.62227" lon="-0.98918">
        <ele>-12.8404541</ele>
        <time>2015-10-04T10:00:07Z</time>
      </trkpt>
      <trkpt lat="44.62248" lon="-0.98958">
        <ele>-13.3210449</ele>
        <time>2015-10-04T10:00:13Z</time>
      </trkpt>
      <trkpt lat="44.62267" lon="-0.98992">
        <ele>-9.956543</ele>
        <time>2015-10-04T10:00:18Z</time>
      </trkpt>
      <trkpt lat="44.62279" lon="-0.99018">
        <ele>-8.5146484</ele>
        <time>2015-10-04T10:00:22Z</time>
      </trkpt>
      <trkpt lat="44.62283" lon="-0.99046">
        <ele>-8.9952393</ele>
        <time>2015-10-04T10:00:26Z</time>
      </trkpt>
      <trkpt lat="44.62285" lon="-0.99069">
        <ele>-7.5531006</ele>
        <time>2015-10-04T10:00:29Z</time>
      </trkpt>
      <trkpt lat="44.6229" lon="-0.99093">
        <ele>-11.8791504</ele>
        <time>2015-10-04T10:00:33Z</time>
      </trkpt>
      <trkpt lat="44.62293" lon="-0.99112">
        <ele>-17.1663818</ele>
        <time>2015-10-04T10:00:36Z</time>
      </trkpt>
      <trkpt lat="44.62303" lon="-0.99144">
        <ele>-20.5310059</ele>
        <time>2015-10-04T10:00:40Z</time>
      </trkpt>
      <trkpt lat="44.62312" lon="-0.99168">
        <ele>-23.8956299</ele>
        <time>2015-10-04T10:00:44Z</time>
      </trkpt>
      <trkpt lat="44.6232" lon="-0.99208">
        <ele>-25.3376465</ele>
        <time>2015-10-04T10:00:49Z</time>
      </trkpt>
      <trkpt lat="44.62327" lon="-0.99221">
        <ele>-24.8569336</ele>
        <time>2015-10-04T10:00:51Z</time>
      </trkpt>
      <trkpt lat="44.62342" lon="-0.9924">
        <ele>-19.5697021</ele>
        <time>2015-10-04T10:00:55Z</time>
      </trkpt>
      <trkpt lat="44.62355" lon="-0.9926">
        <ele>-17.6470947</ele>
        <time>2015-10-04T10:00:59Z</time>
      </trkpt>
      <trkpt lat="44.62347" lon="-0.99302">
        <ele>-7.0725098</ele>
        <time>2015-10-04T10:01:03Z</time>
      </trkpt>
      <trkpt lat="44.62355" lon="-0.99336">
        <ele>0.1374512</ele>
        <time>2015-10-04T10:01:08Z</time>
      </trkpt>
      <trkpt lat="44.62362" lon="-0.99349">
        <ele>1.5793457</ele>
        <time>2015-10-04T10:01:11Z</time>
      </trkpt>
      <trkpt lat="44.6237" lon="-0.99355">
        <ele>2.0600586</ele>
        <time>2015-10-04T10:01:13Z</time>
      </trkpt>
      <trkpt lat="44.62386" lon="-0.99368">
        <ele>1.0986328</ele>
        <time>2015-10-04T10:01:18Z</time>
      </trkpt>
      <trkpt lat="44.62389" lon="-0.99371">
        <ele>0.1374512</ele>
        <time>2015-10-04T10:01:19Z</time>
      </trkpt>
      <trkpt lat="44.62396" lon="-0.99387">
        <ele>-1.7852783</ele>
        <time>2015-10-04T10:01:22Z</time>
      </trkpt>
      <trkpt lat="44.62401" lon="-0.99398">
        <ele>-2.2659912</ele>
        <time>2015-10-04T10:01:24Z</time>
      </trkpt>
      <trkpt lat="44.62419" lon="-0.99429">
        <ele>1.5793457</ele>
        <time>2015-10-04T10:01:30Z</time>
      </trkpt>
      <trkpt lat="44.62425" lon="-0.99439">
        <ele>2.5406494</ele>
        <time>2015-10-04T10:01:32Z</time>
      </trkpt>
      <trkpt lat="44.62435" lon="-0.99449">
        <ele>2.0600586</ele>
        <time>2015-10-04T10:01:35Z</time>
      </trkpt>
      <trkpt lat="44.62461" lon="-0.99463">
        <ele>1.0986328</ele>
        <time>2015-10-04T10:01:41Z</time>
      </trkpt>
      <trkpt lat="44.62472" lon="-0.9947">
        <ele>1.5793457</ele>
        <time>2015-10-04T10:01:43Z</time>
      </trkpt>
      <trkpt lat="44.62496" lon="-0.995">
        <ele>1.5793457</ele>
        <time>2015-10-04T10:01:48Z</time>
      </trkpt>
      <trkpt lat="44.62504" lon="-0.99509">
        <ele>1.0986328</ele>
        <time>2015-10-04T10:01:50Z</time>
      </trkpt>
      <trkpt lat="44.62511" lon="-0.99517">
        <ele>1.5793457</ele>
        <time>2015-10-04T10:01:52Z</time>
      </trkpt>
      <trkpt lat="44.62524" lon="-0.99528">
        <ele>1.5793457</ele>
        <time>2015-10-04T10:01:55Z</time>
      </trkpt>
      <trkpt lat="44.62545" lon="-0.99544">
        <ele>2.0600586</ele>
        <time>2015-10-04T10:02:00Z</time>
      </trkpt>
      <trkpt lat="44.62563" lon="-0.99554">
        <ele>1.5793457</ele>
        <time>2015-10-04T10:02:04Z</time>
      </trkpt>
      <trkpt lat="44.62566" lon="-0.99555">
        <ele>1.0986328</ele>
        <time>2015-10-04T10:02:05Z</time>
      </trkpt>
      <trkpt lat="44.62583" lon="-0.99557">
        <ele>2.0600586</ele>
        <time>2015-10-04T10:02:10Z</time>
      </trkpt>
      <trkpt lat="44.62591" lon="-0.99558">
        <ele>3.0212402</ele>
        <time>2015-10-04T10:02:12Z</time>
      </trkpt>
      <trkpt lat="44.62599" lon="-0.99567">
        <ele>3.5019531</ele>
        <time>2015-10-04T10:02:16Z</time>
      </trkpt>
      <trkpt lat="44.62598" lon="-0.99571">
        <ele>4.4632568</ele>
        <time>2015-10-04T10:02:21Z</time>
      </trkpt>
      <trkpt lat="44.62592" lon="-0.9958">
        <ele>5.9052734</ele>
        <time>2015-10-04T10:02:26Z</time>
      </trkpt>
      <trkpt lat="44.62597" lon="-0.9959">
        <ele>5.4245605</ele>
        <time>2015-10-04T10:02:32Z</time>
      </trkpt>
      <trkpt lat="44.62598" lon="-0.99592">
        <ele>4.9438477</ele>
        <time>2015-10-04T10:02:33Z</time>
      </trkpt>
      <trkpt lat="44.62605" lon="-0.99595">
        <ele>3.0212402</ele>
        <time>2015-10-04T10:02:36Z</time>
      </trkpt>
      <trkpt lat="44.62615" lon="-0.99595">
        <ele>2.5406494</ele>
        <time>2015-10-04T10:02:41Z</time>
      </trkpt>
      <trkpt lat="44.62623" lon="-0.99596">
        <ele>-0.3433838</ele>
        <time>2015-10-04T10:02:45Z</time>
      </trkpt>
      <trkpt lat="44.62637" lon="-0.99591">
        <ele>1.0986328</ele>
        <time>2015-10-04T10:02:50Z</time>
      </trkpt>
      <trkpt lat="44.62652" lon="-0.99587">
        <ele>1.0986328</ele>
        <time>2015-10-04T10:02:55Z</time>
      </trkpt>
      <trkpt lat="44.6266" lon="-0.99574">
        <ele>3.0212402</ele>
        <time>2015-10-04T10:03:00Z</time>
      </trkpt>
      <trkpt lat="44.62664" lon="-0.99552">
        <ele>3.0212402</ele>
        <time>2015-10-04T10:03:06Z</time>
      </trkpt>
      <trkpt lat="44.62663" lon="-0.99534">
        <ele>2.0600586</ele>
        <time>2015-10-04T10:03:11Z</time>
      </trkpt>
      <trkpt lat="44.62666" lon="-0.9952">
        <ele>2.5406494</ele>
        <time>2015-10-04T10:03:18Z</time>
      </trkpt>
      <trkpt lat="44.62666" lon="-0.99506">
        <ele>3.982666</ele>
        <time>2015-10-04T10:03:25Z</time>
      </trkpt>
      <trkpt lat="44.62667" lon="-0.99502">
        <ele>15.0377197</ele>
        <time>2015-10-04T10:04:39Z</time>
      </trkpt>
      <trkpt lat="44.62664" lon="-0.99509">
        <ele>3.0212402</ele>
        <time>2015-10-04T10:06:27Z</time>
      </trkpt>
      <trkpt lat="44.62668" lon="-0.9951">
        <ele>2.0600586</ele>
        <time>2015-10-04T10:07:07Z</time>
      </trkpt>
      <trkpt lat="44.62668" lon="-0.99517">
        <ele>2.5406494</ele>
        <time>2015-10-04T10:07:12Z</time>
      </trkpt>
      <trkpt lat="44.62668" lon="-0.9952">
        <ele>2.5406494</ele>
        <time>2015-10-04T10:07:14Z</time>
      </trkpt>
      <trkpt lat="44.62668" lon="-0.99532">
        <ele>3.982666</ele>
        <time>2015-10-04T10:07:20Z</time>
      </trkpt>
      <trkpt lat="44.62669" lon="-0.99551">
        <ele>3.0212402</ele>
        <time>2015-10-04T10:07:27Z</time>
      </trkpt>
      <trkpt lat="44.62669" lon="-0.99562">
        <ele>0.1374512</ele>
        <time>2015-10-04T10:07:31Z</time>
      </trkpt>
      <trkpt lat="44.62662" lon="-0.99577">
        <ele>-0.8240967</ele>
        <time>2015-10-04T10:07:36Z</time>
      </trkpt>
      <trkpt lat="44.62645" lon="-0.99592">
        <ele>0.618042</ele>
        <time>2015-10-04T10:07:43Z</time>
      </trkpt>
      <trkpt lat="44.6263" lon="-0.99595">
        <ele>0.618042</ele>
        <time>2015-10-04T10:07:48Z</time>
      </trkpt>
      <trkpt lat="44.6262" lon="-0.99595">
        <ele>1.5793457</ele>
        <time>2015-10-04T10:07:54Z</time>
      </trkpt>
      <trkpt lat="44.62606" lon="-0.99593">
        <ele>2.5406494</ele>
        <time>2015-10-04T10:07:59Z</time>
      </trkpt>
      <trkpt lat="44.62593" lon="-0.99585">
        <ele>1.5793457</ele>
        <time>2015-10-04T10:08:04Z</time>
      </trkpt>
      <trkpt lat="44.62578" lon="-0.9957">
        <ele>-3.7078857</ele>
        <time>2015-10-04T10:08:10Z</time>
      </trkpt>
      <trkpt lat="44.62569" lon="-0.99559">
        <ele>-5.6304932</ele>
        <time>2015-10-04T10:08:14Z</time>
      </trkpt>
      <trkpt lat="44.62555" lon="-0.9955">
        <ele>-1.3046875</ele>
        <time>2015-10-04T10:08:20Z</time>
      </trkpt>
      <trkpt lat="44.6255" lon="-0.99548">
        <ele>-0.8240967</ele>
        <time>2015-10-04T10:08:22Z</time>
      </trkpt>
      <trkpt lat="44.62539" lon="-0.99538">
        <ele>-1.7852783</ele>
        <time>2015-10-04T10:08:27Z</time>
      </trkpt>
      <trkpt lat="44.62528" lon="-0.9953">
        <ele>-3.2272949</ele>
        <time>2015-10-04T10:08:31Z</time>
      </trkpt>
      <trkpt lat="44.62514" lon="-0.99516">
        <ele>-4.1885986</ele>
        <time>2015-10-04T10:08:38Z</time>
      </trkpt>
      <trkpt lat="44.62501" lon="-0.99504">
        <ele>-5.1499023</ele>
        <time>2015-10-04T10:08:42Z</time>
      </trkpt>
      <trkpt lat="44.62488" lon="-0.99485">
        <ele>-6.5919189</ele>
        <time>2015-10-04T10:08:47Z</time>
      </trkpt>
      <trkpt lat="44.62473" lon="-0.99473">
        <ele>-7.5531006</ele>
        <time>2015-10-04T10:08:51Z</time>
      </trkpt>
      <trkpt lat="44.62453" lon="-0.99463">
        <ele>-5.1499023</ele>
        <time>2015-10-04T10:08:56Z</time>
      </trkpt>
      <trkpt lat="44.62446" lon="-0.9946">
        <ele>-6.1112061</ele>
        <time>2015-10-04T10:08:58Z</time>
      </trkpt>
      <trkpt lat="44.62426" lon="-0.99444">
        <ele>-4.1885986</ele>
        <time>2015-10-04T10:09:04Z</time>
      </trkpt>
      <trkpt lat="44.62421" lon="-0.99434">
        <ele>-3.2272949</ele>
        <time>2015-10-04T10:09:06Z</time>
      </trkpt>
      <trkpt lat="44.6241" lon="-0.99412">
        <ele>-1.3046875</ele>
        <time>2015-10-04T10:09:10Z</time>
      </trkpt>
      <trkpt lat="44.62404" lon="-0.99402">
        <ele>-0.8240967</ele>
        <time>2015-10-04T10:09:12Z</time>
      </trkpt>
      <trkpt lat="44.624" lon="-0.99392">
        <ele>-0.3433838</ele>
        <time>2015-10-04T10:09:14Z</time>
      </trkpt>
      <trkpt lat="44.62389" lon="-0.99377">
        <ele>0.618042</ele>
        <time>2015-10-04T10:09:18Z</time>
      </trkpt>
      <trkpt lat="44.62386" lon="-0.99375">
        <ele>1.5793457</ele>
        <time>2015-10-04T10:09:19Z</time>
      </trkpt>
      <trkpt lat="44.62365" lon="-0.99363">
        <ele>1.0986328</ele>
        <time>2015-10-04T10:09:25Z</time>
      </trkpt>
      <trkpt lat="44.62353" lon="-0.99351">
        <ele>0.1374512</ele>
        <time>2015-10-04T10:09:29Z</time>
      </trkpt>
      <trkpt lat="44.62335" lon="-0.99334">
        <ele>-3.2272949</ele>
        <time>2015-10-04T10:09:34Z</time>
      </trkpt>
      <trkpt lat="44.62317" lon="-0.99333">
        <ele>-2.2659912</ele>
        <time>2015-10-04T10:09:38Z</time>
      </trkpt>
      <trkpt lat="44.62301" lon="-0.99324">
        <ele>-3.7078857</ele>
        <time>2015-10-04T10:09:42Z</time>
      </trkpt>
      <trkpt lat="44.62294" lon="-0.99316">
        <ele>-4.6693115</ele>
        <time>2015-10-04T10:09:44Z</time>
      </trkpt>
      <trkpt lat="44.62285" lon="-0.99309">
        <ele>-6.1112061</ele>
        <time>2015-10-04T10:09:46Z</time>
      </trkpt>
      <trkpt lat="44.62276" lon="-0.99301">
        <ele>-6.1112061</ele>
        <time>2015-10-04T10:09:48Z</time>
      </trkpt>
      <trkpt lat="44.62266" lon="-0.99273">
        <ele>-4.6693115</ele>
        <time>2015-10-04T10:09:52Z</time>
      </trkpt>
      <trkpt lat="44.62255" lon="-0.99242">
        <ele>-3.2272949</ele>
        <time>2015-10-04T10:09:57Z</time>
      </trkpt>
      <trkpt lat="44.62254" lon="-0.99235">
        <ele>-1.7852783</ele>
        <time>2015-10-04T10:09:58Z</time>
      </trkpt>
      <trkpt lat="44.62244" lon="-0.99174">
        <ele>4.4632568</ele>
        <time>2015-10-04T10:10:06Z</time>
      </trkpt>
      <trkpt lat="44.62243" lon="-0.99155">
        <ele>6.3858643</ele>
        <time>2015-10-04T10:10:09Z</time>
      </trkpt>
      <trkpt lat="44.62244" lon="-0.99128">
        <ele>8.7891846</ele>
        <time>2015-10-04T10:10:13Z</time>
      </trkpt>
      <trkpt lat="44.62243" lon="-0.991">
        <ele>10.711792</ele>
        <time>2015-10-04T10:10:17Z</time>
      </trkpt>
      <trkpt lat="44.62243" lon="-0.99087">
        <ele>12.1538086</ele>
        <time>2015-10-04T10:10:19Z</time>
      </trkpt>
      <trkpt lat="44.62239" lon="-0.99067">
        <ele>13.5958252</ele>
        <time>2015-10-04T10:10:22Z</time>
      </trkpt>
      <trkpt lat="44.62235" lon="-0.99048">
        <ele>15.5184326</ele>
        <time>2015-10-04T10:10:25Z</time>
      </trkpt>
      <trkpt lat="44.62218" lon="-0.99012">
        <ele>14.076416</ele>
        <time>2015-10-04T10:10:31Z</time>
      </trkpt>
      <trkpt lat="44.62214" lon="-0.99007">
        <ele>13.1151123</ele>
        <time>2015-10-04T10:10:32Z</time>
      </trkpt>
      <trkpt lat="44.62201" lon="-0.98987">
        <ele>8.7891846</ele>
        <time>2015-10-04T10:10:36Z</time>
      </trkpt>
      <trkpt lat="44.62193" lon="-0.9897">
        <ele>5.9052734</ele>
        <time>2015-10-04T10:10:39Z</time>
      </trkpt>
      <trkpt lat="44.62187" lon="-0.98937">
        <ele>3.982666</ele>
        <time>2015-10-04T10:10:44Z</time>
      </trkpt>
      <trkpt lat="44.62186" lon="-0.98932">
        <ele>3.0212402</ele>
        <time>2015-10-04T10:10:45Z</time>
      </trkpt>
      <trkpt lat="44.62175" lon="-0.9889">
        <ele>4.4632568</ele>
        <time>2015-10-04T10:10:51Z</time>
      </trkpt>
      <trkpt lat="44.62162" lon="-0.98866">
        <ele>4.9438477</ele>
        <time>2015-10-04T10:10:55Z</time>
      </trkpt>
      <trkpt lat="44.62159" lon="-0.98849">
        <ele>3.982666</ele>
        <time>2015-10-04T10:10:58Z</time>
      </trkpt>
      <trkpt lat="44.62159" lon="-0.98828">
        <ele>5.4245605</ele>
        <time>2015-10-04T10:11:01Z</time>
      </trkpt>
      <trkpt lat="44.6215" lon="-0.988">
        <ele>5.9052734</ele>
        <time>2015-10-04T10:11:06Z</time>
      </trkpt>
      <trkpt lat="44.62146" lon="-0.98775">
        <ele>3.982666</ele>
        <time>2015-10-04T10:11:10Z</time>
      </trkpt>
      <trkpt lat="44.62137" lon="-0.98761">
        <ele>3.982666</ele>
        <time>2015-10-04T10:11:13Z</time>
      </trkpt>
      <trkpt lat="44.62121" lon="-0.98739">
        <ele>3.0212402</ele>
        <time>2015-10-04T10:11:18Z</time>
      </trkpt>
      <trkpt lat="44.62113" lon="-0.98723">
        <ele>3.982666</ele>
        <time>2015-10-04T10:11:22Z</time>
      </trkpt>
      <trkpt lat="44.62116" lon="-0.98709">
        <ele>5.4245605</ele>
        <time>2015-10-04T10:11:25Z</time>
      </trkpt>
      <trkpt lat="44.62125" lon="-0.98672">
        <ele>5.4245605</ele>
        <time>2015-10-04T10:11:32Z</time>
      </trkpt>
      <trkpt lat="44.62133" lon="-0.98642">
        <ele>8.3085938</ele>
        <time>2015-10-04T10:11:38Z</time>
      </trkpt>
      <trkpt lat="44.62141" lon="-0.98607">
        <ele>9.7506104</ele>
        <time>2015-10-04T10:11:43Z</time>
      </trkpt>
      <trkpt lat="44.62143" lon="-0.98592">
        <ele>9.7506104</ele>
        <time>2015-10-04T10:11:45Z</time>
      </trkpt>
      <trkpt lat="44.62152" lon="-0.98562">
        <ele>9.7506104</ele>
        <time>2015-10-04T10:11:49Z</time>
      </trkpt>
      <trkpt lat="44.62158" lon="-0.9854">
        <ele>10.711792</ele>
        <time>2015-10-04T10:11:52Z</time>
      </trkpt>
      <trkpt lat="44.62162" lon="-0.98526">
        <ele>10.711792</ele>
        <time>2015-10-04T10:11:54Z</time>
      </trkpt>
      <trkpt lat="44.62163" lon="-0.98498">
        <ele>13.1151123</ele>
        <time>2015-10-04T10:11:58Z</time>
      </trkpt>
      <trkpt lat="44.62163" lon="-0.98484">
        <ele>13.1151123</ele>
        <time>2015-10-04T10:12:00Z</time>
      </trkpt>
      <trkpt lat="44.62168" lon="-0.98455">
        <ele>13.1151123</ele>
        <time>2015-10-04T10:12:04Z</time>
      </trkpt>
      <trkpt lat="44.62193" lon="-0.98409">
        <ele>13.1151123</ele>
        <time>2015-10-04T10:12:11Z</time>
      </trkpt>
      <trkpt lat="44.62203" lon="-0.9839">
        <ele>11.6732178</ele>
        <time>2015-10-04T10:12:14Z</time>
      </trkpt>
      <trkpt lat="44.62214" lon="-0.98358">
        <ele>10.711792</ele>
        <time>2015-10-04T10:12:19Z</time>
      </trkpt>
      <trkpt lat="44.62218" lon="-0.98348">
        <ele>9.7506104</ele>
        <time>2015-10-04T10:12:21Z</time>
      </trkpt>
      <trkpt lat="44.62231" lon="-0.98334">
        <ele>9.7506104</ele>
        <time>2015-10-04T10:12:25Z</time>
      </trkpt>
      <trkpt lat="44.62246" lon="-0.98328">
        <ele>9.2698975</ele>
        <time>2015-10-04T10:12:29Z</time>
      </trkpt>
      <trkpt lat="44.62264" lon="-0.98317">
        <ele>7.8278809</ele>
        <time>2015-10-04T10:12:35Z</time>
      </trkpt>
      <trkpt lat="44.62287" lon="-0.98303">
        <ele>6.3858643</ele>
        <time>2015-10-04T10:12:41Z</time>
      </trkpt>
      <trkpt lat="44.62295" lon="-0.98296">
        <ele>6.3858643</ele>
        <time>2015-10-04T10:12:43Z</time>
      </trkpt>
      <trkpt lat="44.62302" lon="-0.98287">
        <ele>6.8664551</ele>
        <time>2015-10-04T10:12:45Z</time>
      </trkpt>
      <trkpt lat="44.6232" lon="-0.98254">
        <ele>6.3858643</ele>
        <time>2015-10-04T10:12:51Z</time>
      </trkpt>
      <trkpt lat="44.62323" lon="-0.98226">
        <ele>5.4245605</ele>
        <time>2015-10-04T10:12:55Z</time>
      </trkpt>
      <trkpt lat="44.62323" lon="-0.98182">
        <ele>3.5019531</ele>
        <time>2015-10-04T10:13:01Z</time>
      </trkpt>
      <trkpt lat="44.62321" lon="-0.98132">
        <ele>3.5019531</ele>
        <time>2015-10-04T10:13:07Z</time>
      </trkpt>
      <trkpt lat="44.62313" lon="-0.98083">
        <ele>4.4632568</ele>
        <time>2015-10-04T10:13:13Z</time>
      </trkpt>
      <trkpt lat="44.62298" lon="-0.98032">
        <ele>5.9052734</ele>
        <time>2015-10-04T10:13:20Z</time>
      </trkpt>
      <trkpt lat="44.62287" lon="-0.98008">
        <ele>6.8664551</ele>
        <time>2015-10-04T10:13:24Z</time>
      </trkpt>
      <trkpt lat="44.62272" lon="-0.97978">
        <ele>7.347168</ele>
        <time>2015-10-04T10:13:29Z</time>
      </trkpt>
      <trkpt lat="44.62249" lon="-0.97934">
        <ele>4.9438477</ele>
        <time>2015-10-04T10:13:35Z</time>
      </trkpt>
      <trkpt lat="44.62242" lon="-0.97917">
        <ele>4.9438477</ele>
        <time>2015-10-04T10:13:37Z</time>
      </trkpt>
      <trkpt lat="44.62223" lon="-0.97845">
        <ele>4.9438477</ele>
        <time>2015-10-04T10:13:45Z</time>
      </trkpt>
      <trkpt lat="44.62221" lon="-0.97836">
        <ele>4.4632568</ele>
        <time>2015-10-04T10:13:46Z</time>
      </trkpt>
      <trkpt lat="44.62208" lon="-0.9781">
        <ele>3.982666</ele>
        <time>2015-10-04T10:13:50Z</time>
      </trkpt>
      <trkpt lat="44.62197" lon="-0.97801">
        <ele>4.4632568</ele>
        <time>2015-10-04T10:13:52Z</time>
      </trkpt>
      <trkpt lat="44.62162" lon="-0.97777">
        <ele>3.0212402</ele>
        <time>2015-10-04T10:13:58Z</time>
      </trkpt>
      <trkpt lat="44.62149" lon="-0.9777">
        <ele>3.0212402</ele>
        <time>2015-10-04T10:14:00Z</time>
      </trkpt>
      <trkpt lat="44.62127" lon="-0.97767">
        <ele>1.0986328</ele>
        <time>2015-10-04T10:14:04Z</time>
      </trkpt>
      <trkpt lat="44.62085" lon="-0.97778">
        <ele>-0.8240967</ele>
        <time>2015-10-04T10:14:10Z</time>
      </trkpt>
      <trkpt lat="44.62058" lon="-0.97795">
        <ele>-1.3046875</ele>
        <time>2015-10-04T10:14:14Z</time>
      </trkpt>
      <trkpt lat="44.62031" lon="-0.97796">
        <ele>-2.7467041</ele>
        <time>2015-10-04T10:14:18Z</time>
      </trkpt>
      <trkpt lat="44.62014" lon="-0.97778">
        <ele>-6.1112061</ele>
        <time>2015-10-04T10:14:21Z</time>
      </trkpt>
      <trkpt lat="44.61994" lon="-0.97761">
        <ele>-9.4758301</ele>
        <time>2015-10-04T10:14:24Z</time>
      </trkpt>
      <trkpt lat="44.61967" lon="-0.97747">
        <ele>-10.9178467</ele>
        <time>2015-10-04T10:14:28Z</time>
      </trkpt>
      <trkpt lat="44.61929" lon="-0.97722">
        <ele>-11.8791504</ele>
        <time>2015-10-04T10:14:35Z</time>
      </trkpt>
      <trkpt lat="44.61924" lon="-0.97719">
        <ele>-11.3984375</ele>
        <time>2015-10-04T10:14:36Z</time>
      </trkpt>
      <trkpt lat="44.61908" lon="-0.97699">
        <ele>-12.3598633</ele>
        <time>2015-10-04T10:14:40Z</time>
      </trkpt>
      <trkpt lat="44.61889" lon="-0.97687">
        <ele>-12.3598633</ele>
        <time>2015-10-04T10:14:44Z</time>
      </trkpt>
      <trkpt lat="44.61884" lon="-0.97685">
        <ele>-11.8791504</ele>
        <time>2015-10-04T10:14:45Z</time>
      </trkpt>
      <trkpt lat="44.6186" lon="-0.97671">
        <ele>-10.4372559</ele>
        <time>2015-10-04T10:14:52Z</time>
      </trkpt>
      <trkpt lat="44.61851" lon="-0.97661">
        <ele>-8.5146484</ele>
        <time>2015-10-04T10:14:57Z</time>
      </trkpt>
      <trkpt lat="44.61834" lon="-0.97647">
        <ele>-4.1885986</ele>
        <time>2015-10-04T10:15:00Z</time>
      </trkpt>
      <trkpt lat="44.61827" lon="-0.97625">
        <ele>-5.1499023</ele>
        <time>2015-10-04T10:15:04Z</time>
      </trkpt>
      <trkpt lat="44.61823" lon="-0.97605">
        <ele>-4.6693115</ele>
        <time>2015-10-04T10:15:07Z</time>
      </trkpt>
      <trkpt lat="44.61822" lon="-0.97589">
        <ele>-4.1885986</ele>
        <time>2015-10-04T10:15:09Z</time>
      </trkpt>
      <trkpt lat="44.6182" lon="-0.97573">
        <ele>-4.6693115</ele>
        <time>2015-10-04T10:15:11Z</time>
      </trkpt>
      <trkpt lat="44.61818" lon="-0.97549">
        <ele>-3.7078857</ele>
        <time>2015-10-04T10:15:14Z</time>
      </trkpt>
      <trkpt lat="44.61805" lon="-0.97514">
        <ele>-1.7852783</ele>
        <time>2015-10-04T10:15:19Z</time>
      </trkpt>
      <trkpt lat="44.61798" lon="-0.97502">
        <ele>-2.2659912</ele>
        <time>2015-10-04T10:15:21Z</time>
      </trkpt>
      <trkpt lat="44.61782" lon="-0.97469">
        <ele>-4.1885986</ele>
        <time>2015-10-04T10:15:26Z</time>
      </trkpt>
      <trkpt lat="44.61761" lon="-0.97426">
        <ele>3.5019531</ele>
        <time>2015-10-04T10:15:32Z</time>
      </trkpt>
      <trkpt lat="44.61753" lon="-0.97391">
        <ele>9.7506104</ele>
        <time>2015-10-04T10:15:36Z</time>
      </trkpt>
      <trkpt lat="44.61742" lon="-0.97355">
        <ele>12.1538086</ele>
        <time>2015-10-04T10:15:40Z</time>
      </trkpt>
      <trkpt lat="44.61736" lon="-0.97338">
        <ele>12.6343994</ele>
        <time>2015-10-04T10:15:42Z</time>
      </trkpt>
      <trkpt lat="44.61721" lon="-0.97291">
        <ele>13.1151123</ele>
        <time>2015-10-04T10:15:48Z</time>
      </trkpt>
      <trkpt lat="44.61717" lon="-0.97286">
        <ele>13.1151123</ele>
        <time>2015-10-04T10:15:49Z</time>
      </trkpt>
      <trkpt lat="44.61695" lon="-0.97256">
        <ele>10.2312012</ele>
        <time>2015-10-04T10:15:54Z</time>
      </trkpt>
      <trkpt lat="44.6167" lon="-0.97199">
        <ele>10.711792</ele>
        <time>2015-10-04T10:16:01Z</time>
      </trkpt>
      <trkpt lat="44.61662" lon="-0.97185">
        <ele>9.7506104</ele>
        <time>2015-10-04T10:16:03Z</time>
      </trkpt>
      <trkpt lat="44.61654" lon="-0.97165">
        <ele>8.7891846</ele>
        <time>2015-10-04T10:16:06Z</time>
      </trkpt>
      <trkpt lat="44.61635" lon="-0.97134">
        <ele>6.3858643</ele>
        <time>2015-10-04T10:16:11Z</time>
      </trkpt>
      <trkpt lat="44.61632" lon="-0.97126">
        <ele>6.3858643</ele>
        <time>2015-10-04T10:16:12Z</time>
      </trkpt>
      <trkpt lat="44.61617" lon="-0.97098">
        <ele>5.4245605</ele>
        <time>2015-10-04T10:16:16Z</time>
      </trkpt>
      <trkpt lat="44.61608" lon="-0.97085">
        <ele>3.5019531</ele>
        <time>2015-10-04T10:16:18Z</time>
      </trkpt>
      <trkpt lat="44.61586" lon="-0.97031">
        <ele>5.9052734</ele>
        <time>2015-10-04T10:16:25Z</time>
      </trkpt>
      <trkpt lat="44.61576" lon="-0.96993">
        <ele>3.5019531</ele>
        <time>2015-10-04T10:16:30Z</time>
      </trkpt>
      <trkpt lat="44.61564" lon="-0.9695">
        <ele>3.0212402</ele>
        <time>2015-10-04T10:16:35Z</time>
      </trkpt>
      <trkpt lat="44.61546" lon="-0.96905">
        <ele>11.6732178</ele>
        <time>2015-10-04T10:16:40Z</time>
      </trkpt>
      <trkpt lat="44.61536" lon="-0.96885">
        <ele>12.1538086</ele>
        <time>2015-10-04T10:16:43Z</time>
      </trkpt>
      <trkpt lat="44.61526" lon="-0.96865">
        <ele>11.6732178</ele>
        <time>2015-10-04T10:16:46Z</time>
      </trkpt>
      <trkpt lat="44.61502" lon="-0.96827">
        <ele>9.2698975</ele>
        <time>2015-10-04T10:16:52Z</time>
      </trkpt>
      <trkpt lat="44.61497" lon="-0.96821">
        <ele>8.7891846</ele>
        <time>2015-10-04T10:16:53Z</time>
      </trkpt>
      <trkpt lat="44.61483" lon="-0.96798">
        <ele>8.3085938</ele>
        <time>2015-10-04T10:16:57Z</time>
      </trkpt>
      <trkpt lat="44.61459" lon="-0.96774">
        <ele>4.9438477</ele>
        <time>2015-10-04T10:17:02Z</time>
      </trkpt>
      <trkpt lat="44.61427" lon="-0.96732">
        <ele>2.0600586</ele>
        <time>2015-10-04T10:17:09Z</time>
      </trkpt>
      <trkpt lat="44.61412" lon="-0.96706">
        <ele>2.0600586</ele>
        <time>2015-10-04T10:17:13Z</time>
      </trkpt>
      <trkpt lat="44.61394" lon="-0.96669">
        <ele>1.0986328</ele>
        <time>2015-10-04T10:17:18Z</time>
      </trkpt>
      <trkpt lat="44.61389" lon="-0.96663">
        <ele>1.5793457</ele>
        <time>2015-10-04T10:17:19Z</time>
      </trkpt>
      <trkpt lat="44.61381" lon="-0.96652">
        <ele>1.5793457</ele>
        <time>2015-10-04T10:17:21Z</time>
      </trkpt>
      <trkpt lat="44.61361" lon="-0.96621">
        <ele>-0.8240967</ele>
        <time>2015-10-04T10:17:26Z</time>
      </trkpt>
      <trkpt lat="44.61353" lon="-0.96597">
        <ele>-0.8240967</ele>
        <time>2015-10-04T10:17:29Z</time>
      </trkpt>
      <trkpt lat="44.61352" lon="-0.96589">
        <ele>-0.8240967</ele>
        <time>2015-10-04T10:17:30Z</time>
      </trkpt>
      <trkpt lat="44.61351" lon="-0.96543">
        <ele>0.1374512</ele>
        <time>2015-10-04T10:17:35Z</time>
      </trkpt>
      <trkpt lat="44.61352" lon="-0.96499">
        <ele>1.0986328</ele>
        <time>2015-10-04T10:17:40Z</time>
      </trkpt>
      <trkpt lat="44.61353" lon="-0.96483">
        <ele>1.0986328</ele>
        <time>2015-10-04T10:17:42Z</time>
      </trkpt>
      <trkpt lat="44.61355" lon="-0.96453">
        <ele>2.0600586</ele>
        <time>2015-10-04T10:17:46Z</time>
      </trkpt>
      <trkpt lat="44.61353" lon="-0.96447">
        <ele>2.5406494</ele>
        <time>2015-10-04T10:17:47Z</time>
      </trkpt>
      <trkpt lat="44.61339" lon="-0.96399">
        <ele>2.5406494</ele>
        <time>2015-10-04T10:17:54Z</time>
      </trkpt>
      <trkpt lat="44.61337" lon="-0.96392">
        <ele>2.5406494</ele>
        <time>2015-10-04T10:17:55Z</time>
      </trkpt>
      <trkpt lat="44.61324" lon="-0.96349">
        <ele>2.5406494</ele>
        <time>2015-10-04T10:18:01Z</time>
      </trkpt>
      <trkpt lat="44.61322" lon="-0.96342">
        <ele>2.0600586</ele>
        <time>2015-10-04T10:18:02Z</time>
      </trkpt>
      <trkpt lat="44.61316" lon="-0.96321">
        <ele>1.5793457</ele>
        <time>2015-10-04T10:18:05Z</time>
      </trkpt>
      <trkpt lat="44.61308" lon="-0.96273">
        <ele>1.0986328</ele>
        <time>2015-10-04T10:18:11Z</time>
      </trkpt>
      <trkpt lat="44.61295" lon="-0.96231">
        <ele>-0.8240967</ele>
        <time>2015-10-04T10:18:17Z</time>
      </trkpt>
      <trkpt lat="44.61284" lon="-0.96201">
        <ele>-0.3433838</ele>
        <time>2015-10-04T10:18:22Z</time>
      </trkpt>
      <trkpt lat="44.6128" lon="-0.9619">
        <ele>0.618042</ele>
        <time>2015-10-04T10:18:24Z</time>
      </trkpt>
      <trkpt lat="44.6128" lon="-0.96164">
        <ele>2.5406494</ele>
        <time>2015-10-04T10:18:29Z</time>
      </trkpt>
      <trkpt lat="44.61283" lon="-0.96154">
        <ele>2.5406494</ele>
        <time>2015-10-04T10:18:31Z</time>
      </trkpt>
      <trkpt lat="44.61283" lon="-0.96125">
        <ele>2.5406494</ele>
        <time>2015-10-04T10:18:36Z</time>
      </trkpt>
      <trkpt lat="44.61277" lon="-0.96108">
        <ele>5.4245605</ele>
        <time>2015-10-04T10:18:39Z</time>
      </trkpt>
      <trkpt lat="44.61268" lon="-0.96073">
        <ele>4.9438477</ele>
        <time>2015-10-04T10:18:44Z</time>
      </trkpt>
      <trkpt lat="44.61267" lon="-0.96066">
        <ele>4.9438477</ele>
        <time>2015-10-04T10:18:45Z</time>
      </trkpt>
      <trkpt lat="44.61267" lon="-0.96039">
        <ele>4.9438477</ele>
        <time>2015-10-04T10:18:49Z</time>
      </trkpt>
      <trkpt lat="44.61268" lon="-0.96027">
        <ele>4.9438477</ele>
        <time>2015-10-04T10:18:51Z</time>
      </trkpt>
      <trkpt lat="44.61268" lon="-0.96007">
        <ele>6.3858643</ele>
        <time>2015-10-04T10:18:54Z</time>
      </trkpt>
      <trkpt lat="44.61268" lon="-0.95979">
        <ele>6.8664551</ele>
        <time>2015-10-04T10:18:58Z</time>
      </trkpt>
      <trkpt lat="44.61267" lon="-0.95965">
        <ele>7.8278809</ele>
        <time>2015-10-04T10:19:00Z</time>
      </trkpt>
      <trkpt lat="44.61263" lon="-0.95931">
        <ele>7.347168</ele>
        <time>2015-10-04T10:19:05Z</time>
      </trkpt>
      <trkpt lat="44.61263" lon="-0.9591">
        <ele>7.347168</ele>
        <time>2015-10-04T10:19:08Z</time>
      </trkpt>
      <trkpt lat="44.61263" lon="-0.9589">
        <ele>10.2312012</ele>
        <time>2015-10-04T10:19:13Z</time>
      </trkpt>
      <trkpt lat="44.61263" lon="-0.95883">
        <ele>12.1538086</ele>
        <time>2015-10-04T10:19:17Z</time>
      </trkpt>
      <trkpt lat="44.61257" lon="-0.95864">
        <ele>10.2312012</ele>
        <time>2015-10-04T10:19:21Z</time>
      </trkpt>
      <trkpt lat="44.61251" lon="-0.95839">
        <ele>8.3085938</ele>
        <time>2015-10-04T10:19:25Z</time>
      </trkpt>
      <trkpt lat="44.6125" lon="-0.95824">
        <ele>8.3085938</ele>
        <time>2015-10-04T10:19:27Z</time>
      </trkpt>
      <trkpt lat="44.6124" lon="-0.95788">
        <ele>5.4245605</ele>
        <time>2015-10-04T10:19:32Z</time>
      </trkpt>
      <trkpt lat="44.61234" lon="-0.95762">
        <ele>5.4245605</ele>
        <time>2015-10-04T10:19:36Z</time>
      </trkpt>
      <trkpt lat="44.61227" lon="-0.95738">
        <ele>5.9052734</ele>
        <time>2015-10-04T10:19:40Z</time>
      </trkpt>
      <trkpt lat="44.61224" lon="-0.95712">
        <ele>7.347168</ele>
        <time>2015-10-04T10:19:44Z</time>
      </trkpt>
      <trkpt lat="44.61221" lon="-0.95701">
        <ele>8.3085938</ele>
        <time>2015-10-04T10:19:46Z</time>
      </trkpt>
      <trkpt lat="44.61218" lon="-0.95691">
        <ele>9.7506104</ele>
        <time>2015-10-04T10:19:48Z</time>
      </trkpt>
      <trkpt lat="44.61212" lon="-0.95676">
        <ele>10.2312012</ele>
        <time>2015-10-04T10:19:51Z</time>
      </trkpt>
      <trkpt lat="44.61208" lon="-0.95656">
        <ele>8.7891846</ele>
        <time>2015-10-04T10:19:54Z</time>
      </trkpt>
      <trkpt lat="44.61202" lon="-0.95636">
        <ele>9.2698975</ele>
        <time>2015-10-04T10:19:58Z</time>
      </trkpt>
      <trkpt lat="44.61189" lon="-0.95607">
        <ele>6.8664551</ele>
        <time>2015-10-04T10:20:03Z</time>
      </trkpt>
      <trkpt lat="44.61181" lon="-0.95587">
        <ele>5.9052734</ele>
        <time>2015-10-04T10:20:06Z</time>
      </trkpt>
      <trkpt lat="44.61171" lon="-0.9556">
        <ele>5.9052734</ele>
        <time>2015-10-04T10:20:10Z</time>
      </trkpt>
      <trkpt lat="44.61167" lon="-0.95546">
        <ele>6.8664551</ele>
        <time>2015-10-04T10:20:12Z</time>
      </trkpt>
      <trkpt lat="44.61158" lon="-0.95527">
        <ele>5.9052734</ele>
        <time>2015-10-04T10:20:15Z</time>
      </trkpt>
      <trkpt lat="44.61145" lon="-0.95493">
        <ele>7.347168</ele>
        <time>2015-10-04T10:20:20Z</time>
      </trkpt>
      <trkpt lat="44.61132" lon="-0.95467">
        <ele>5.4245605</ele>
        <time>2015-10-04T10:20:24Z</time>
      </trkpt>
      <trkpt lat="44.61129" lon="-0.9546">
        <ele>4.9438477</ele>
        <time>2015-10-04T10:20:25Z</time>
      </trkpt>
      <trkpt lat="44.61121" lon="-0.95439">
        <ele>4.4632568</ele>
        <time>2015-10-04T10:20:28Z</time>
      </trkpt>
      <trkpt lat="44.61112" lon="-0.95413">
        <ele>3.5019531</ele>
        <time>2015-10-04T10:20:32Z</time>
      </trkpt>
      <trkpt lat="44.61107" lon="-0.95399">
        <ele>4.4632568</ele>
        <time>2015-10-04T10:20:35Z</time>
      </trkpt>
      <trkpt lat="44.61103" lon="-0.95388">
        <ele>3.982666</ele>
        <time>2015-10-04T10:20:38Z</time>
      </trkpt>
      <trkpt lat="44.61098" lon="-0.95371">
        <ele>2.0600586</ele>
        <time>2015-10-04T10:20:43Z</time>
      </trkpt>
      <trkpt lat="44.61091" lon="-0.95365">
        <ele>-0.8240967</ele>
        <time>2015-10-04T10:20:47Z</time>
      </trkpt>
      <trkpt lat="44.61086" lon="-0.95364">
        <ele>-1.7852783</ele>
        <time>2015-10-04T10:20:49Z</time>
      </trkpt>
      <trkpt lat="44.61078" lon="-0.95352">
        <ele>-0.3433838</ele>
        <time>2015-10-04T10:20:54Z</time>
      </trkpt>
      <trkpt lat="44.6107" lon="-0.95336">
        <ele>0.1374512</ele>
        <time>2015-10-04T10:20:59Z</time>
      </trkpt>
      <trkpt lat="44.61061" lon="-0.95321">
        <ele>1.0986328</ele>
        <time>2015-10-04T10:21:03Z</time>
      </trkpt>
      <trkpt lat="44.61057" lon="-0.95299">
        <ele>1.5793457</ele>
        <time>2015-10-04T10:21:07Z</time>
      </trkpt>
      <trkpt lat="44.61052" lon="-0.95274">
        <ele>2.5406494</ele>
        <time>2015-10-04T10:21:11Z</time>
      </trkpt>
      <trkpt lat="44.61047" lon="-0.95248">
        <ele>3.5019531</ele>
        <time>2015-10-04T10:21:15Z</time>
      </trkpt>
      <trkpt lat="44.61041" lon="-0.95219">
        <ele>4.9438477</ele>
        <time>2015-10-04T10:21:20Z</time>
      </trkpt>
      <trkpt lat="44.6103" lon="-0.9521">
        <ele>5.4245605</ele>
        <time>2015-10-04T10:21:23Z</time>
      </trkpt>
      <trkpt lat="44.61013" lon="-0.95199">
        <ele>4.9438477</ele>
        <time>2015-10-04T10:21:27Z</time>
      </trkpt>
      <trkpt lat="44.61001" lon="-0.95189">
        <ele>3.5019531</ele>
        <time>2015-10-04T10:21:30Z</time>
      </trkpt>
      <trkpt lat="44.60986" lon="-0.95187">
        <ele>3.0212402</ele>
        <time>2015-10-04T10:21:34Z</time>
      </trkpt>
      <trkpt lat="44.6098" lon="-0.95181">
        <ele>2.0600586</ele>
        <time>2015-10-04T10:21:36Z</time>
      </trkpt>
      <trkpt lat="44.60968" lon="-0.95164">
        <ele>0.618042</ele>
        <time>2015-10-04T10:21:40Z</time>
      </trkpt>
      <trkpt lat="44.60945" lon="-0.95146">
        <ele>-1.7852783</ele>
        <time>2015-10-04T10:21:45Z</time>
      </trkpt>
      <trkpt lat="44.60924" lon="-0.95145">
        <ele>-3.7078857</ele>
        <time>2015-10-04T10:21:49Z</time>
      </trkpt>
      <trkpt lat="44.60902" lon="-0.95141">
        <ele>-4.1885986</ele>
        <time>2015-10-04T10:21:53Z</time>
      </trkpt>
      <trkpt lat="44.60886" lon="-0.95122">
        <ele>-7.0725098</ele>
        <time>2015-10-04T10:21:57Z</time>
      </trkpt>
      <trkpt lat="44.60867" lon="-0.95091">
        <ele>-8.5146484</ele>
        <time>2015-10-04T10:22:03Z</time>
      </trkpt>
      <trkpt lat="44.60856" lon="-0.95073">
        <ele>-10.4372559</ele>
        <time>2015-10-04T10:22:07Z</time>
      </trkpt>
      <trkpt lat="44.60848" lon="-0.95048">
        <ele>-9.956543</ele>
        <time>2015-10-04T10:22:11Z</time>
      </trkpt>
      <trkpt lat="44.60834" lon="-0.95035">
        <ele>-10.9178467</ele>
        <time>2015-10-04T10:22:15Z</time>
      </trkpt>
      <trkpt lat="44.6083" lon="-0.95032">
        <ele>-10.4372559</ele>
        <time>2015-10-04T10:22:16Z</time>
      </trkpt>
      <trkpt lat="44.60823" lon="-0.95026">
        <ele>-13.3210449</ele>
        <time>2015-10-04T10:22:18Z</time>
      </trkpt>
      <trkpt lat="44.60814" lon="-0.95012">
        <ele>-11.8791504</ele>
        <time>2015-10-04T10:22:21Z</time>
      </trkpt>
      <trkpt lat="44.60809" lon="-0.95005">
        <ele>-11.8791504</ele>
        <time>2015-10-04T10:22:23Z</time>
      </trkpt>
      <trkpt lat="44.60791" lon="-0.94991">
        <ele>-11.3984375</ele>
        <time>2015-10-04T10:22:28Z</time>
      </trkpt>
      <trkpt lat="44.60781" lon="-0.9498">
        <ele>-11.8791504</ele>
        <time>2015-10-04T10:22:31Z</time>
      </trkpt>
      <trkpt lat="44.60764" lon="-0.94969">
        <ele>-11.3984375</ele>
        <time>2015-10-04T10:22:35Z</time>
      </trkpt>
      <trkpt lat="44.60751" lon="-0.94969">
        <ele>-3.7078857</ele>
        <time>2015-10-04T10:22:39Z</time>
      </trkpt>
      <trkpt lat="44.60749" lon="-0.94967">
        <ele>-4.1885986</ele>
        <time>2015-10-04T10:22:40Z</time>
      </trkpt>
      <trkpt lat="44.60726" lon="-0.94943">
        <ele>-2.7467041</ele>
        <time>2015-10-04T10:22:47Z</time>
      </trkpt>
      <trkpt lat="44.60715" lon="-0.94932">
        <ele>-2.2659912</ele>
        <time>2015-10-04T10:22:51Z</time>
      </trkpt>
      <trkpt lat="44.60704" lon="-0.94925">
        <ele>2.0600586</ele>
        <time>2015-10-04T10:22:55Z</time>
      </trkpt>
      <trkpt lat="44.60685" lon="-0.94916">
        <ele>-2.2659912</ele>
        <time>2015-10-04T10:23:00Z</time>
      </trkpt>
      <trkpt lat="44.60671" lon="-0.9491">
        <ele>-0.8240967</ele>
        <time>2015-10-04T10:23:03Z</time>
      </trkpt>
      <trkpt lat="44.60654" lon="-0.94898">
        <ele>-2.2659912</ele>
        <time>2015-10-04T10:23:07Z</time>
      </trkpt>
      <trkpt lat="44.60634" lon="-0.94887">
        <ele>-1.7852783</ele>
        <time>2015-10-04T10:23:12Z</time>
      </trkpt>
      <trkpt lat="44.60601" lon="-0.94874">
        <ele>0.1374512</ele>
        <time>2015-10-04T10:23:19Z</time>
      </trkpt>
      <trkpt lat="44.60582" lon="-0.94868">
        <ele>-1.3046875</ele>
        <time>2015-10-04T10:23:23Z</time>
      </trkpt>
      <trkpt lat="44.6055" lon="-0.94845">
        <ele>-9.4758301</ele>
        <time>2015-10-04T10:23:30Z</time>
      </trkpt>
      <trkpt lat="44.6053" lon="-0.94827">
        <ele>-13.8017578</ele>
        <time>2015-10-04T10:23:35Z</time>
      </trkpt>
      <trkpt lat="44.60514" lon="-0.948">
        <ele>-14.7630615</ele>
        <time>2015-10-04T10:23:40Z</time>
      </trkpt>
      <trkpt lat="44.60494" lon="-0.94772">
        <ele>-15.7243652</ele>
        <time>2015-10-04T10:23:45Z</time>
      </trkpt>
      <trkpt lat="44.60479" lon="-0.94752">
        <ele>-14.7630615</ele>
        <time>2015-10-04T10:23:49Z</time>
      </trkpt>
      <trkpt lat="44.60471" lon="-0.94718">
        <ele>-10.9178467</ele>
        <time>2015-10-04T10:23:55Z</time>
      </trkpt>
      <trkpt lat="44.60474" lon="-0.94681">
        <ele>-8.0339355</ele>
        <time>2015-10-04T10:24:01Z</time>
      </trkpt>
      <trkpt lat="44.60475" lon="-0.94669">
        <ele>-7.0725098</ele>
        <time>2015-10-04T10:24:03Z</time>
      </trkpt>
      <trkpt lat="44.60475" lon="-0.94631">
        <ele>-3.7078857</ele>
        <time>2015-10-04T10:24:08Z</time>
      </trkpt>
      <trkpt lat="44.60473" lon="-0.9461">
        <ele>-2.7467041</ele>
        <time>2015-10-04T10:24:11Z</time>
      </trkpt>
      <trkpt lat="44.60473" lon="-0.94589">
        <ele>-1.7852783</ele>
        <time>2015-10-04T10:24:15Z</time>
      </trkpt>
      <trkpt lat="44.60469" lon="-0.94577">
        <ele>-1.7852783</ele>
        <time>2015-10-04T10:24:17Z</time>
      </trkpt>
      <trkpt lat="44.60468" lon="-0.94545">
        <ele>0.618042</ele>
        <time>2015-10-04T10:24:22Z</time>
      </trkpt>
      <trkpt lat="44.60468" lon="-0.94512">
        <ele>2.5406494</ele>
        <time>2015-10-04T10:24:27Z</time>
      </trkpt>
      <trkpt lat="44.60469" lon="-0.94497">
        <ele>3.0212402</ele>
        <time>2015-10-04T10:24:29Z</time>
      </trkpt>
      <trkpt lat="44.60475" lon="-0.94466">
        <ele>3.5019531</ele>
        <time>2015-10-04T10:24:34Z</time>
      </trkpt>
      <trkpt lat="44.60485" lon="-0.9445">
        <ele>5.9052734</ele>
        <time>2015-10-04T10:24:39Z</time>
      </trkpt>
      <trkpt lat="44.60487" lon="-0.94432">
        <ele>3.0212402</ele>
        <time>2015-10-04T10:24:45Z</time>
      </trkpt>
      <trkpt lat="44.60488" lon="-0.94411">
        <ele>-0.8240967</ele>
        <time>2015-10-04T10:24:51Z</time>
      </trkpt>
      <trkpt lat="44.60487" lon="-0.9439">
        <ele>-2.2659912</ele>
        <time>2015-10-04T10:24:55Z</time>
      </trkpt>
      <trkpt lat="44.60492" lon="-0.94364">
        <ele>-0.8240967</ele>
        <time>2015-10-04T10:25:00Z</time>
      </trkpt>
      <trkpt lat="44.60499" lon="-0.94349">
        <ele>1.5793457</ele>
        <time>2015-10-04T10:25:04Z</time>
      </trkpt>
      <trkpt lat="44.60499" lon="-0.94338">
        <ele>1.5793457</ele>
        <time>2015-10-04T10:25:08Z</time>
      </trkpt>
      <trkpt lat="44.60496" lon="-0.94318">
        <ele>0.618042</ele>
        <time>2015-10-04T10:25:13Z</time>
      </trkpt>
      <trkpt lat="44.60491" lon="-0.94287">
        <ele>1.5793457</ele>
        <time>2015-10-04T10:25:19Z</time>
      </trkpt>
      <trkpt lat="44.60486" lon="-0.94251">
        <ele>3.982666</ele>
        <time>2015-10-04T10:25:26Z</time>
      </trkpt>
      <trkpt lat="44.6049" lon="-0.9423">
        <ele>5.4245605</ele>
        <time>2015-10-04T10:25:31Z</time>
      </trkpt>
      <trkpt lat="44.60496" lon="-0.94212">
        <ele>6.8664551</ele>
        <time>2015-10-04T10:25:36Z</time>
      </trkpt>
      <trkpt lat="44.60503" lon="-0.94204">
        <ele>6.3858643</ele>
        <time>2015-10-04T10:25:41Z</time>
      </trkpt>
      <trkpt lat="44.60514" lon="-0.94188">
        <ele>6.3858643</ele>
        <time>2015-10-04T10:25:47Z</time>
      </trkpt>
      <trkpt lat="44.60528" lon="-0.94168">
        <ele>8.3085938</ele>
        <time>2015-10-04T10:25:54Z</time>
      </trkpt>
      <trkpt lat="44.60538" lon="-0.9415">
        <ele>8.7891846</ele>
        <time>2015-10-04T10:26:01Z</time>
      </trkpt>
      <trkpt lat="44.60549" lon="-0.94137">
        <ele>8.7891846</ele>
        <time>2015-10-04T10:26:08Z</time>
      </trkpt>
      <trkpt lat="44.60562" lon="-0.94125">
        <ele>8.3085938</ele>
        <time>2015-10-04T10:26:15Z</time>
      </trkpt>
      <trkpt lat="44.60581" lon="-0.94106">
        <ele>8.3085938</ele>
        <time>2015-10-04T10:26:23Z</time>
      </trkpt>
      <trkpt lat="44.60597" lon="-0.94084">
        <ele>8.7891846</ele>
        <time>2015-10-04T10:26:31Z</time>
      </trkpt>
      <trkpt lat="44.60602" lon="-0.94063">
        <ele>8.3085938</ele>
        <time>2015-10-04T10:26:38Z</time>
      </trkpt>
      <trkpt lat="44.60599" lon="-0.94047">
        <ele>6.8664551</ele>
        <time>2015-10-04T10:26:43Z</time>
      </trkpt>
      <trkpt lat="44.60597" lon="-0.94038">
        <ele>6.3858643</ele>
        <time>2015-10-04T10:26:46Z</time>
      </trkpt>
      <trkpt lat="44.60603" lon="-0.9402">
        <ele>7.8278809</ele>
        <time>2015-10-04T10:26:53Z</time>
      </trkpt>
      <trkpt lat="44.60604" lon="-0.94018">
        <ele>7.8278809</ele>
        <time>2015-10-04T10:26:54Z</time>
      </trkpt>
      <trkpt lat="44.6061" lon="-0.94021">
        <ele>8.3085938</ele>
        <time>2015-10-04T10:26:59Z</time>
      </trkpt>
      <trkpt lat="44.60609" lon="-0.94026">
        <ele>5.9052734</ele>
        <time>2015-10-04T10:27:06Z</time>
      </trkpt>
      <trkpt lat="44.6061" lon="-0.94026">
        <ele>6.8664551</ele>
        <time>2015-10-04T10:27:10Z</time>
      </trkpt>
      <trkpt lat="44.60611" lon="-0.94029">
        <ele>7.347168</ele>
        <time>2015-10-04T10:27:20Z</time>
      </trkpt>
      <trkpt lat="44.60611" lon="-0.9403">
        <ele>6.8664551</ele>
        <time>2015-10-04T10:27:24Z</time>
      </trkpt>
      <trkpt lat="44.60608" lon="-0.94023">
        <ele>6.3858643</ele>
        <time>2015-10-04T10:27:29Z</time>
      </trkpt>
      <trkpt lat="44.60608" lon="-0.94002">
        <ele>5.9052734</ele>
        <time>2015-10-04T10:27:34Z</time>
      </trkpt>
      <trkpt lat="44.60615" lon="-0.93989">
        <ele>6.8664551</ele>
        <time>2015-10-04T10:27:38Z</time>
      </trkpt>
      <trkpt lat="44.60621" lon="-0.93978">
        <ele>6.8664551</ele>
        <time>2015-10-04T10:27:41Z</time>
      </trkpt>
      <trkpt lat="44.60631" lon="-0.93964">
        <ele>8.7891846</ele>
        <time>2015-10-04T10:27:46Z</time>
      </trkpt>
      <trkpt lat="44.60627" lon="-0.93953">
        <ele>8.7891846</ele>
        <time>2015-10-04T10:27:50Z</time>
      </trkpt>
      <trkpt lat="44.60619" lon="-0.93934">
        <ele>9.2698975</ele>
        <time>2015-10-04T10:27:55Z</time>
      </trkpt>
      <trkpt lat="44.60609" lon="-0.93904">
        <ele>8.7891846</ele>
        <time>2015-10-04T10:27:59Z</time>
      </trkpt>
      <trkpt lat="44.60582" lon="-0.9383">
        <ele>7.347168</ele>
        <time>2015-10-04T10:28:07Z</time>
      </trkpt>
      <trkpt lat="44.60557" lon="-0.93748">
        <ele>4.9438477</ele>
        <time>2015-10-04T10:28:16Z</time>
      </trkpt>
      <trkpt lat="44.60553" lon="-0.9373">
        <ele>4.9438477</ele>
        <time>2015-10-04T10:28:18Z</time>
      </trkpt>
      <trkpt lat="44.60547" lon="-0.93684">
        <ele>4.9438477</ele>
        <time>2015-10-04T10:28:23Z</time>
      </trkpt>
      <trkpt lat="44.60539" lon="-0.93611">
        <ele>5.9052734</ele>
        <time>2015-10-04T10:28:31Z</time>
      </trkpt>
      <trkpt lat="44.6054" lon="-0.93558">
        <ele>8.3085938</ele>
        <time>2015-10-04T10:28:37Z</time>
      </trkpt>
      <trkpt lat="44.60542" lon="-0.93469">
        <ele>10.711792</ele>
        <time>2015-10-04T10:28:47Z</time>
      </trkpt>
      <trkpt lat="44.60543" lon="-0.93459">
        <ele>11.1925049</ele>
        <time>2015-10-04T10:28:48Z</time>
      </trkpt>
      <trkpt lat="44.60541" lon="-0.93425">
        <ele>11.1925049</ele>
        <time>2015-10-04T10:28:52Z</time>
      </trkpt>
      <trkpt lat="44.60554" lon="-0.93408">
        <ele>10.711792</ele>
        <time>2015-10-04T10:28:55Z</time>
      </trkpt>
      <trkpt lat="44.60561" lon="-0.93405">
        <ele>11.1925049</ele>
        <time>2015-10-04T10:28:56Z</time>
      </trkpt>
      <trkpt lat="44.60585" lon="-0.93394">
        <ele>11.6732178</ele>
        <time>2015-10-04T10:29:00Z</time>
      </trkpt>
      <trkpt lat="44.60609" lon="-0.93368">
        <ele>12.6343994</ele>
        <time>2015-10-04T10:29:05Z</time>
      </trkpt>
      <trkpt lat="44.60641" lon="-0.93326">
        <ele>13.5958252</ele>
        <time>2015-10-04T10:29:12Z</time>
      </trkpt>
      <trkpt lat="44.60676" lon="-0.93278">
        <ele>14.5570068</ele>
        <time>2015-10-04T10:29:20Z</time>
      </trkpt>
      <trkpt lat="44.60711" lon="-0.93232">
        <ele>15.9990234</ele>
        <time>2015-10-04T10:29:28Z</time>
      </trkpt>
      <trkpt lat="44.60753" lon="-0.93176">
        <ele>17.9217529</ele>
        <time>2015-10-04T10:29:38Z</time>
      </trkpt>
      <trkpt lat="44.60792" lon="-0.93125">
        <ele>19.3637695</ele>
        <time>2015-10-04T10:29:47Z</time>
      </trkpt>
      <trkpt lat="44.60835" lon="-0.93067">
        <ele>20.3249512</ele>
        <time>2015-10-04T10:29:57Z</time>
      </trkpt>
      <trkpt lat="44.60865" lon="-0.93027">
        <ele>20.3249512</ele>
        <time>2015-10-04T10:30:04Z</time>
      </trkpt>
      <trkpt lat="44.60896" lon="-0.92986">
        <ele>20.3249512</ele>
        <time>2015-10-04T10:30:11Z</time>
      </trkpt>
      <trkpt lat="44.60927" lon="-0.92942">
        <ele>20.3249512</ele>
        <time>2015-10-04T10:30:18Z</time>
      </trkpt>
      <trkpt lat="44.60956" lon="-0.92886">
        <ele>20.8056641</ele>
        <time>2015-10-04T10:30:26Z</time>
      </trkpt>
      <trkpt lat="44.60993" lon="-0.92817">
        <ele>20.3249512</ele>
        <time>2015-10-04T10:30:36Z</time>
      </trkpt>
      <trkpt lat="44.61021" lon="-0.92761">
        <ele>19.8443604</ele>
        <time>2015-10-04T10:30:44Z</time>
      </trkpt>
      <trkpt lat="44.61034" lon="-0.92732">
        <ele>19.3637695</ele>
        <time>2015-10-04T10:30:48Z</time>
      </trkpt>
      <trkpt lat="44.61047" lon="-0.92686">
        <ele>18.8830566</ele>
        <time>2015-10-04T10:30:54Z</time>
      </trkpt>
      <trkpt lat="44.61059" lon="-0.92622">
        <ele>18.8830566</ele>
        <time>2015-10-04T10:31:02Z</time>
      </trkpt>
      <trkpt lat="44.61076" lon="-0.9256">
        <ele>20.3249512</ele>
        <time>2015-10-04T10:31:10Z</time>
      </trkpt>
      <trkpt lat="44.61099" lon="-0.92524">
        <ele>20.3249512</ele>
        <time>2015-10-04T10:31:16Z</time>
      </trkpt>
      <trkpt lat="44.61108" lon="-0.92513">
        <ele>20.3249512</ele>
        <time>2015-10-04T10:31:18Z</time>
      </trkpt>
      <trkpt lat="44.61141" lon="-0.92492">
        <ele>19.8443604</ele>
        <time>2015-10-04T10:31:24Z</time>
      </trkpt>
      <trkpt lat="44.61178" lon="-0.9247">
        <ele>18.8830566</ele>
        <time>2015-10-04T10:31:31Z</time>
      </trkpt>
      <trkpt lat="44.61187" lon="-0.92465">
        <ele>18.8830566</ele>
        <time>2015-10-04T10:31:33Z</time>
      </trkpt>
      <trkpt lat="44.61196" lon="-0.92452">
        <ele>18.8830566</ele>
        <time>2015-10-04T10:31:36Z</time>
      </trkpt>
    </trkseg>
  </trk>
</gpx>